     2              OBSERVATION DATA    GPS                 RINEX VERSION / TYPE
teqc 2000Jul20 Karen Wendt 20040301 20:41:13UTC             PGM / RUN BY / DATE
                                                            COMMENT
L2: 1 -> 1; 150 -> 5; 250 -> 9                              COMMENT
L2: 1 -> 1; 150 -> 5; 250 -> 9                              COMMENT
L2: 1 -> 1; 150 -> 5; 250 -> 9                              COMMENT
L2: 1 -> 1; 150 -> 5; 250 -> 9                              COMMENT
L2: 1 -> 1; 150 -> 5; 250 -> 9                              COMMENT
L2: 1 -> 1; 150 -> 5; 250 -> 9                              COMMENT
L2: 1 -> 1; 150 -> 5; 250 -> 9                              COMMENT
L2: 1 -> 1; 150 -> 5; 250 -> 9                              COMMENT
L2: 1 -> 1; 150 -> 5; 250 -> 9                              COMMENT
L2: 1 -> 1; 150 -> 5; 250 -> 9                              COMMENT
L2: 1 -> 1; 150 -> 5; 250 -> 9                              COMMENT
L2: 1 -> 1; 150 -> 5; 250 -> 9                              COMMENT
L2: 1 -> 1; 150 -> 5; 250 -> 9                              COMMENT
L2: 1 -> 1; 150 -> 5; 250 -> 9                              COMMENT
Original Marker Name: 1009 1009_unstamped_USNavy_12thNavalDiCOMMENT
Campaign Name: USGS San Simeon 2003-2004                    COMMENT
4-Character Station Name: 1009                              COMMENT
6-Character Antenna Code: DMRCHT                            COMMENT
Vertical Measurement Point: BCR                             COMMENT
Vertical Offset to Rinex Ref. Point: 0.0348                 COMMENT
Radial Measurement Point: ECF                               COMMENT
Radial Offset to Rinex Ref. Point: 0.1897                   COMMENT
Antenna Height from Field Measurement: 1.3020 m             COMMENT
Additional Antenna Identification Info.:                    COMMENT
Turborogue and Ashtech Choke Ring                           COMMENT
Original XYZ: -2693923.7991 -4433488.4760 3698011.4550      COMMENT
New XYZ position is based on association with SCEC monument COMMENT
E1F0L8A0+0011. Position of that monument is believed to be  COMMENT
valid to within 1 m horizontally; vertical accuracy         COMMENT
should be no worse than 3-times this value.                 COMMENT
                                                            COMMENT
Revised Rinex header created by UCSD GPS archive for        COMMENT
GSAC on 20-Apr-2005 (2005:110) 16:29:55 GMT                 COMMENT
For assistance contact dagnew@ucsd.edu                      COMMENT
or anderson@python.ucsd.edu                                 COMMENT
                                                            COMMENT
1009 1009_UNSTAMPED_USNAVY_12THNAVALDIST.                   MARKER NAME
CHS US GEOLOGICAL SURVEY                                    OBSERVER / AGENCY
LP019992809 ASHTECH Z-XII3 CD00                             REC # / TYPE / VERS
CR14244 DORNE-MARGOL. TYPE T                                ANT # / TYPE
 -2693942.0000 -4433464.0000  3698003.0000                  APPROX POSITION XYZ
        1.2533        0.0000        0.0000                  ANTENNA: DELTA H/E/N
     1     1     0                                          WAVELENGTH FACT L1/2
     5    C1    L1    L2    P1    P2                        # / TYPES OF OBSERV
    30                                                      INTERVAL
  2004     2    25     0     0   30.000000                  TIME OF FIRST OBS
  2004     2    25    23    59   30.000000                  TIME OF LAST OBS
                                                            END OF HEADER
 04  2 25  0  0 30.0000000  0  8G29G18G21G22G 6G26G16G15
  23489162.750   -12546063.08449  -9763567.81746  23489162.551    23489168.030
  20467889.619   -26354459.37649 -20521520.56548  20467889.055    20467893.005
  20565563.862   -29402247.08549 -22632721.50948  20565563.217    20565566.743
  22288140.613   -18771503.97849 -14612358.79047  22288140.252    22288144.370
  21539772.515   -20945506.51749 -16097641.72447  21539772.216    21539777.707
  22046602.859   -15336088.20149 -11929043.21246  22046602.814    22046608.038
  23063154.316   -11900461.35549  -9261629.86846  23063153.791    23063159.661
  22343267.049   -19337711.20049 -15039483.55246  22343266.299    22343272.865
 04  2 25  0  1  0.0000000  0  8G29G18G21G22G 6G26G16G15
  23499349.760   -12492530.04349  -9721853.75646  23499349.578    23499355.088
  20463313.552   -26378506.54949 -20540258.59148  20463313.013    20463316.965
  20564666.775   -29406961.17549 -22636394.80448  20564666.148    20564669.656
  22273254.765   -18849728.76849 -14673313.07647  22273254.457    22273258.575
  21553966.287   -20870917.67049 -16039520.55547  21553966.000    21553971.499
  22051805.630   -15308747.45249 -11907738.70146  22051805.573    22051810.814
  23065520.599   -11888026.59749  -9251940.45746  23065520.083    23065525.850
  22330601.303   -19404269.72849 -15091347.26746  22330600.567    22330607.190
 04  2 25  0  1 30.0000000  0  9G29G18G 3G21G22G 6G26G16G15
  23509626.898   -12438523.23849  -9679770.54246  23509626.684    23509632.179
  20458823.110   -26402103.93049 -20558646.12948  20458822.562    20458826.493
  24557919.179    -2754290.10249  -2122418.93945  24557918.816    24557927.051
  20563810.543   -29411460.49149 -22639900.74348  20563809.911    20563813.439
  22258430.095   -18927632.20949 -14734016.96247  22258429.830    22258433.956
  21568232.868   -20795946.27249 -15981101.30947  21568232.553    21568238.087
  22057131.286   -15280760.50449 -11885930.64746  22057131.236    22057136.524
  23067985.858   -11875071.20149  -9241845.33146  23067985.357    23067991.219
  22317954.144   -19470730.77749 -15143135.02546  22317953.432    22317960.067
 04  2 25  0  2  0.0000000  0  9G29G18G 3G21G22G 6G26G16G15
  23519993.825   -12384044.48449  -9637319.58246  23519993.587    23519999.098
  20454418.135   -26425252.14149 -20576683.66348  20454417.581    20454421.484
  24538709.868    -2855235.91749  -2201077.87945  24538709.455    24538717.556
  20562995.197   -29415745.09649 -22643239.38048  20562994.555    20562998.095
  22243666.803   -19005213.44149 -14794469.77147  22243666.540    22243670.685
  21582571.955   -20720593.89049 -15922385.18847  21582571.667    21582577.168
  22062579.716   -15252128.47849 -11863619.92346  22062579.714    22062584.997
  23070549.905   -11861596.77349  -9231345.77946  23070549.421    23070555.385
  22305325.670   -19537094.15649 -15194846.67946  22305324.935    22305331.548
 04  2 25  0  2 30.0000000  0  9G29G18G 3G21G22G 6G26G16G15
  23530451.339   -12329089.58449  -9594497.58846  23530451.108    23530456.696
  20450099.647   -26447945.82649 -20594367.02948  20450099.091    20450103.028
  24519523.394    -2956061.37049  -2279643.05345  24519522.977    24519530.937
  20562221.910   -29419808.44049 -22646405.60648  20562221.290    20562224.837
  22228966.252   -19082465.69049 -14854666.22347  22228965.907    22228969.981
  21596984.354   -20644856.37449 -15863368.97647  21596984.059    21596989.566
  22068151.853   -15222846.46249 -11840802.71046  22068151.846    22068157.134
  23073213.709   -11847598.66549  -9220438.16246  23073213.257    23073219.099
  22292716.894   -19603353.79849 -15246477.49846  22292716.094    22292722.708
 04  2 25  0  3  0.0000000  0  9G29G18G 3G21G22G 6G26G16G15
  23540998.886   -12273662.24049  -9551307.45846  23540998.645    23541004.221
  20445867.210   -26470187.31949 -20611698.02548  20445866.661    20445870.596
  24500359.846    -3056766.12549  -2358114.17645  24500359.424    24500367.401
  20561490.506   -29423652.07149 -22649400.62148  20561489.867    20561493.417
  22214328.026   -19159389.82449 -14914606.99747  22214327.681    22214331.680
  21611469.444   -20568736.58749 -15804054.88147  21611469.141    21611474.699
  22073847.233   -15192917.04649 -11817481.03046  22073847.184    22073852.511
  23075976.637   -11833079.66149  -9209124.65846  23075976.174    23075981.847
  22280127.468   -19669511.30849 -15298028.72646  22280126.649    22280133.275
 04  2 25  0  3 30.0000000  0  9G29G18G 3G21G22G 6G26G16G15
  23551635.800   -12217764.65949  -9507750.91146  23551635.622    23551641.185
  20441720.654   -26491977.41049 -20628677.28648  20441720.122    20441724.039
  24481219.583    -3157348.42949  -2436489.90645  24481219.284    24481227.064
  20560800.809   -29427276.17649 -22652224.58748  20560800.194    20560803.737
  22199752.265   -19235985.22349 -14974291.62647  22199751.962    22199755.972
  21626026.883   -20492236.63549 -15744444.55447  21626026.593    21626032.210
  22079665.525   -15162341.59449 -11793655.95846  22079665.476    22079670.720
  23078838.240   -11818041.74149  -9197406.79846  23078837.823    23078843.598
  22267557.457   -19735566.62949 -15349500.32746  22267556.671    22267563.204
 04  2 25  0  4  0.0000000  0  9G29G18G 3G21G22G 6G26G16G15
  23562361.492   -12161400.44049  -9463830.76645  23562361.267    23562366.900
  20437659.648   -26513318.19449 -20645306.42948  20437659.093    20437663.003
  24462102.665    -3257808.03749  -2514770.03945  24462102.309    24462110.006
  20560152.661   -29430682.26349 -22654878.66748  20560152.043    20560155.564
  22185238.878   -19312252.90649 -15033720.87947  22185238.589    22185242.633
  21640656.074   -20415359.91249 -15684540.63847  21640655.766    21640661.347
  22085606.223   -15131123.05849 -11769329.77346  22085606.173    22085611.344
  23081798.065   -11802487.96449  -9185286.98446  23081797.624    23081803.451
  22255006.679   -19801521.42549 -15400893.58446  22255005.850    22255012.255
 04  2 25  0  4 30.0000000  0  9G29G18G 3G21G22G 6G26G16G15
  23573176.291   -12104567.98049  -9419545.75745  23573176.080    23573181.765
  20433684.661   -26534206.79149 -20661583.22048  20433684.115    20433688.040
  24443010.248    -3358139.28149  -2592950.12245  24443009.777    24443017.295
  20559546.668   -29433866.73449 -22657360.06148  20559546.033    20559549.540
  22170788.697   -19388188.59549 -15092891.44147  22170788.443    22170792.486
  21655357.328   -20338104.67349 -15624341.77147  21655357.028    21655362.554
  22091669.675   -15099259.17349 -11744500.76046  22091669.605    22091674.809
  23084856.416   -11786416.29049  -9172763.60646  23084855.937    23084861.713
  22242475.703   -19867372.21449 -15452205.80546  22242474.865    22242481.213
 04  2 25  0  5  0.0000000  0  9G29G18G 3G21G22G 6G26G16G15
  23584079.320   -12047272.54649  -9374899.98545  23584079.121    23584084.765
  20429794.932   -26554647.09349 -20677510.69048  20429794.408    20429798.336
  24423942.010    -3458343.32349  -2671031.07245  24423941.547    24423949.009
  20558982.332   -29436832.34549 -22659670.91448  20558981.713    20558985.206
  22156401.322   -19463794.68749 -15151805.17347  22156401.003    22156405.040
  21670129.675   -20260475.72649 -15563851.69747  21670129.371    21670134.842
  22097855.065   -15066754.16149 -11719172.16046  22097855.024    22097860.275
  23088012.309   -11769831.62849  -9159840.49046  23088011.882    23088017.684
  22229963.908   -19933121.78049 -15503439.15246  22229963.067    22229969.440
 04  2 25  0  5 30.0000000  0  9G29G18G 3G21G22G 6G26G16G15
  23595070.472   -11989514.04449  -9329893.39046  23595070.292    23595075.866
  20425990.752   -26574638.15649 -20693088.10548  20425990.211    20425994.121
  24404898.866    -3558415.74849  -2749009.45145  24404898.330    24404905.806
  20558460.044   -29439577.03449 -22661809.62248  20558459.405    20558462.888
  22142077.087   -19539068.51949 -15210460.00847  22142076.769    22142080.794
  21684973.099   -20182472.90749 -15503070.30447  21684972.836    21684978.312
  22104162.720   -15033607.29149 -11693343.41746  22104162.707    22104167.880
  23091266.111   -11752733.30649  -9146517.12946  23091265.619    23091271.480
  22217471.700   -19998768.00649 -15554591.98846  22217470.875    22217477.388
 04  2 25  0  6  0.0000000  0  9G29G18G 3G21G22G 6G26G16G15
  23606149.404   -11931294.16349  -9284527.27846  23606149.183    23606154.807
  20422272.061   -26594179.79049 -20708315.30848  20422271.536    20422275.423
  24385881.079    -3658354.40449  -2826883.61145  24385880.576    24385888.026
  20557979.873   -29442100.16749 -22663775.68348  20557979.237    20557982.734
  22127816.312   -19614009.04949 -15268855.12247  22127816.012    22127819.960
  21699887.464   -20104097.55449 -15441998.60747  21699887.161    21699892.664
  22110592.332   -14999819.45649 -11667015.22646  22110592.295    22110597.463
  23094617.159   -11735122.73649  -9132794.59746  23094616.710    23094622.707
  22204999.257   -20064310.40949 -15605663.90946  22204998.450    22205005.074
 04  2 25  0  6 30.0000000  0  9G29G18G 3G21G22G 6G26G16G15
  23617315.575   -11872615.51549  -9238803.68345  23617315.313    23617320.931
  20418638.686   -26613273.20249 -20723193.25148  20418638.151    20418642.026
  24366888.976    -3758157.82449  -2904652.38345  24366888.445    24366896.009
  20557541.810   -29444402.27649 -22665569.51448  20557541.180    20557544.700
  22113619.061   -19688615.77649 -15326990.13547  22113618.761    22113622.641
  21714872.187   -20025352.24249 -15380638.63847  21714871.907    21714877.434
  22117143.613   -14965392.43749 -11640188.97146  22117143.530    22117148.663
  23098065.472   -11717002.04749  -9118674.58146  23098064.982    23098070.869
  22192546.541   -20129749.31049 -15656655.18546  22192545.760    22192552.380
 04  2 25  0  7  0.0000000  0  9G29G18G 3G21G22G 6G26G16G15
  23628568.460   -11813480.95049  -9192724.82245  23628568.192    23628573.833
  20415090.342   -26631919.84649 -20737723.05748  20415089.798    20415093.668
  24347922.861    -3857824.90149  -2982314.90145  24347922.404    24347929.956
  20557145.660   -29446483.86049 -22667191.50348  20557145.025    20557148.549
  22099485.139   -19762889.37049 -15384865.56547  22099484.835    22099488.742
  21729926.792   -19946239.89349 -15318992.67147  21729926.495    21729931.993
  22123816.017   -14930328.45449 -11612866.38046  22123815.970    22123821.110
  23101610.424   -11698373.52149  -9104158.84246  23101609.908    23101615.757
  22180113.512   -20195085.34949 -15707566.30046  22180112.707    22180119.212
 04  2 25  0  7 30.0000000  0  9G29G18G 3G21G22G 6G26G16G15
  23639908.324   -11753889.40049  -9146289.87745  23639908.142    23639913.766
  20411627.372   -26650117.54349 -20751903.04448  20411626.845    20411630.679
  24328983.749    -3957350.13249  -3059866.89945  24328983.325    24328990.820
  20556792.128   -29448341.62849 -22668639.09848  20556791.499    20556795.027
  22085415.365   -19836825.85749 -15442478.32547  22085415.075    22085419.017
  21745051.668   -19866758.39349 -15257059.06347  21745051.374    21745056.842
  22130610.011   -14894625.69549 -11585046.04146  22130609.988    22130615.180
  23105252.218   -11679235.51949  -9089246.11346  23105251.687    23105257.628
  22167700.637   -20260315.39149 -15758394.82846  22167699.841    22167706.140
 04  2 25  0  8  0.0000000  0  9G29G18G 3G21G22G 6G26G16G15
  23651334.560   -11693844.71549  -9099501.81645  23651334.292    23651339.946
  20408249.407   -26667868.77349 -20765735.12748  20408248.873    20408252.690
  24310071.533    -4056733.37749  -3137308.24945  24310071.129    24310078.778
  20556480.880   -29449977.23749 -22669913.57348  20556480.235    20556483.772
  22071409.615   -19910426.26149 -15499829.19847  22071409.301    22071413.240
  21760245.949   -19786912.10349 -15194841.19747  21760245.665    21760251.127
  22137524.922   -14858287.32549 -11556730.42446  22137524.891    22137530.175
  23108990.310   -11659591.80849  -9073939.31946  23108989.799    23108995.733
  22155307.594   -20325441.06349 -15809142.02946  22155306.790    22155313.004
 04  2 25  0  8 30.0000000  0  9G29G18G 3G21G22G 6G26G16G15
  23662846.696   -11633348.18949  -9052361.69446  23662846.472    23662852.121
  20404956.371   -26685173.69549 -20779219.44048  20404955.813    20404959.651
  24291186.890    -4155971.66849  -3214636.66745  24291186.343    24291194.217
  20556212.074   -29451389.73049 -22671014.19048  20556211.441    20556214.923
  22057468.187   -19983689.00349 -15556916.95947  22057467.843    22057471.689
  21775509.563   -19706701.07449 -15132339.10847  21775509.308    21775514.812
  22144560.758   -14821313.94149 -11527919.98046  22144560.690    22144565.944
  23112824.504   -11639443.08549  -9058239.00846  23112823.975    23112829.910
  22142934.595   -20390461.24349 -15859807.02546  22142933.796    22142939.959
 04  2 25  0  9  0.0000000  0  9G29G18G 3G21G22G 6G26G16G15
  23674444.446   -11572401.95649  -9004871.14845  23674444.184    23674449.887
  20401748.059   -26702033.27949 -20792356.74648  20401747.524    20401751.357
  24272330.255    -4255063.23949  -3291850.73345  24272329.556    24272337.485
  20555985.783   -29452578.83149 -22671940.74248  20555985.158    20555988.617
  22043591.015   -20056613.75749 -15613741.35647  22043590.610    22043594.421
  21790842.132   -19626128.11249 -15069554.99547  21790841.824    21790847.372
  22151717.051   -14783707.22549 -11498616.05546  22151717.026    22151722.181
  23116754.418   -11618791.44849  -9042146.82646  23116753.874    23116759.722
  22130581.610   -20455376.04749 -15910389.92946  22130580.808    22130587.018
 04  2 25  0  9 30.0000000  0  9G29G18G 3G21G22G 6G26G16G15
  23686127.223   -11511008.50549  -8957032.10645  23686127.035    23686132.669
  20398624.313   -26718448.44649 -20805147.74548  20398623.797    20398627.588
  24253501.954    -4354006.20049  -3368949.02645  24253501.360    24253509.280
  20555802.011   -29453544.60349 -22672693.26748  20555801.385    20555804.826
  22029778.026   -20129199.98149 -15670301.96647  22029777.732    22029781.574
  21806243.069   -19545195.55349 -15006490.67347  21806242.782    21806248.341
  22158993.605   -14745468.70749 -11468819.79746  22158993.598    22158998.673
  23120779.701   -11597638.63249  -9025664.10546  23120779.147    23120784.976
  22118248.767   -20520185.24149 -15960890.53746  22118247.966    22118254.171
 04  2 25  0 10  0.0000000  0  9G29G18G 3G21G22G 6G26G16G15
  23697895.074   -11449167.91349  -8908844.64845  23697894.849    23697900.483
  20395585.498   -26734417.48049 -20817591.11648  20395584.950    20395588.750
  24234702.799    -4452796.41349  -3445928.27645  24234702.185    24234709.999
  20555661.133   -29454284.85249 -22673270.06548  20555660.492    20555663.922
  22016030.171   -20201445.10549 -15726596.79247  22016029.890    22016033.726
  21821712.670   -19463902.15549 -14943145.18947  21821712.383    21821717.962
  22166390.471   -14706597.92249 -11438530.88046  22166390.447    22166395.538
  23124900.448   -11575984.22449  -9008790.55946  23124899.895    23124905.766
  22105936.452   -20584886.81149 -16011307.28647  22105935.649    22105941.861
 04  2 25  0 10 30.0000000  0  9G29G18G 3G21G22G 6G26G16G15
  23709747.361   -11386883.78749  -8860311.57445  23709747.213    23709752.739
  20392631.047   -26749942.99349 -20829688.88948  20392630.516    20392634.351
  24215932.892    -4551432.94549  -3522787.75545  24215932.259    24215939.978
  20555562.943   -29454800.78149 -22673672.06648  20555562.300    20555565.727
  22002347.254   -20273349.96649 -15782626.46847  22002346.922    22002350.684
  21837250.190   -19382252.12049 -14879521.79947  21837249.877    21837255.464
  22173907.045   -14667097.75149 -11407751.53246  22173907.043    22173912.187
  23129115.903   -11553831.66449  -8991528.82246  23129115.326    23129121.245
  22093644.394   -20649482.00849 -16061641.14747  22093643.599    22093649.748
 04  2 25  0 11  0.0000000  0  9G29G18G 3G21G22G 6G26G16G15
  23721683.585   -11324158.55549  -8811434.78645  23721683.391    23721688.997
  20389760.743   -26765026.30849 -20841442.09248  20389760.223    20389764.048
  24197192.370    -4649914.22149  -3599526.25345  24197191.763    24197199.537
  20555507.401   -29455092.61049 -22673899.45048  20555506.759    20555510.191
  21988728.988   -20344914.51049 -15838390.96547  21988728.590    21988732.345
  21852855.103   -19300247.46049 -14815622.08947  21852854.853    21852860.445
  22181543.091   -14626970.24949 -11376483.36246  22181543.087    22181548.232
  23133425.722   -11531183.07049  -8973880.57146  23133425.242    23133431.045
  22081372.625   -20713970.67849 -16111892.00447  22081371.814    22081377.892
 04  2 25  0 11 30.0000000  0  9G29G18G 3G21G22G 6G26G16G15
  23733703.705   -11260992.57649  -8762214.56545  23733703.429    23733709.129
  20386974.928   -26779665.85149 -20852849.49948  20386974.381    20386978.170
  24178482.211    -4748235.99649  -3676140.48145  24178481.675    24178489.398
  20555494.999   -29455157.77049 -22673950.21148  20555494.367    20555497.788
  21975175.848   -20416135.68649 -15893887.90547  21975175.513    21975179.279
  21868527.627   -19217887.79249 -14751445.74947  21868527.373    21868533.005
  22189298.583   -14586214.80849 -11344725.88546  22189298.518    22189303.686
  23137830.108   -11508038.04249  -8955845.49946  23137829.574    23137835.343
  22069121.501   -20778350.51749 -16162058.05847  22069120.686    22069126.765
 04  2 25  0 12  0.0000000  0  9G29G18G 3G21G22G 6G26G16G15
  23745807.295   -11197388.00749  -8712652.57545  23745806.999    23745812.662
  20384273.332   -26793862.63649 -20863911.90448  20384272.782    20384276.594
  24159802.807    -4846396.46249  -3752629.02745  24159802.387    24159809.983
  20555525.691   -29454996.57249 -22673824.58648  20555525.036    20555528.431
  21961688.147   -20487013.36049 -15949117.18147  21961687.850    21961691.608
  21884267.324   -19135175.33949 -14686994.51247  21884267.047    21884272.746
  22197173.180   -14544833.23249 -11312480.49446  22197173.187    22197178.304
  23142328.451   -11484398.57649  -8937425.14146  23142327.939    23142333.865
  22056891.042   -20842621.67349 -16212139.41947  22056890.243    22056896.341
 04  2 25  0 12 30.0000000  0  9G29G18G 3G21G22G 6G26G16G15
  23757993.652   -11133348.18049  -8662751.40345  23757993.383    23757998.939
  20381655.562   -26807618.88549 -20874631.03648  20381655.034    20381658.850
  24141154.427    -4944394.27749  -3828990.85545  24141153.937    24141161.536
  20555599.291   -29454609.65049 -22673523.07848  20555598.635    20555602.028
  21948265.959   -20557547.60449 -16004078.84147  21948265.642    21948269.315
  21900073.545   -19052113.07049 -14622270.69347  21900073.295    21900078.981
  22205166.544   -14502828.03549 -11279749.16746  22205166.513    22205171.629
  23146920.596   -11460267.55449  -8918621.76446  23146920.061    23146925.821
  22044681.107   -20906784.91849 -16262136.69447  22044680.315    22044686.421
 04  2 25  0 13  0.0000000  0  9G29G18G 3G21G22G 6G26G16G15
  23770262.697   -11068874.05849  -8612511.83345  23770262.410    23770268.049
  20379121.733   -26820934.25449 -20885006.62248  20379121.178    20379124.982
  24122537.569    -5042226.26349  -3905223.46145  24122537.056    24122544.441
  20555716.142   -29453995.46649 -22673044.48348  20555715.494    20555718.909
  21934909.382   -20627737.36049 -16058772.07147  21934908.979    21934912.587
  21915946.221   -18968701.82349 -14557274.94847  21915945.946    21915951.625
  22213278.386   -14460200.01649 -11246532.52846  22213278.387    22213283.518
  23151605.946   -11435645.92949  -8899436.10446  23151605.417    23151611.089
  22032491.976   -20970838.96249 -16312048.88347  22032491.194    22032497.326
 04  2 25  0 13 30.0000000  0  9G29G18G 3G21G22G 6G26G16G15
  23782614.199   -11003966.78649  -8561934.75945  23782613.899    23782619.537
  20376671.748   -26833808.76649 -20895038.68548  20376671.224    20376674.996
  24103952.811    -5139889.47849  -3981324.56145  24103952.311    24103959.576
  20555876.479   -29453152.78249 -22672387.83248  20555875.833    20555879.237
  21921618.495   -20697580.71049 -16113195.37547  21921618.140    21921621.762
  21931885.147   -18884942.35649 -14492007.85047  21931884.892    21931890.538
  22221508.738   -14416949.59849 -11212830.90046  22221508.690    22221513.865
  23156384.462   -11410534.25549  -8879868.56746  23156383.999    23156389.619
  22020323.905   -21034782.30849 -16361874.80447  22020323.128    22020329.290
 04  2 25  0 14  0.0000000  0  9G29G18G 3G21G22G 6G26G16G15
  23795047.131   -10938630.84249  -8511023.67445  23795046.881    23795052.695
  20374305.146   -26846245.29449 -20904729.46248  20374304.632    20374308.426
  24085400.162    -5237383.52649  -4057293.81545  24085399.695    24085406.996
  20556079.954   -29452083.53549 -22671554.64148  20556079.312    20556082.711
  21908393.272   -20767079.12349 -16167349.90247  21908392.955    21908396.577
  21947889.538   -18800838.97049 -14426472.77747  21947889.242    21947894.860
  22229856.640   -14373080.63949 -11178647.29846  22229856.591    22229861.820
  23161255.626   -11384936.64649  -8859922.39946  23161255.157    23161260.682
  22008176.555   -21098616.80349 -16411615.91747  22008175.757    22008181.925
 04  2 25  0 14 30.0000000  0  9G29G18G 3G21G22G 6G26G16G15
  23807561.819   -10872866.02249  -8459778.37845  23807561.498    23807567.367
  20372022.328   -26858241.62249 -20914077.22448  20372021.803    20372025.581
  24066880.552    -5334703.74149  -4133127.60945  24066880.166    24066887.540
  20556327.043   -29450785.05049 -22670542.81948  20556326.401    20556329.791
  21895234.256   -20836229.73549 -16221233.40647  21895233.995    21895237.571
  21963959.430   -18716391.31049 -14360669.43047  21963959.117    21963964.743
  22238322.469   -14328592.31149 -11143981.07246  22238322.490    22238327.702
  23166219.347   -11358852.51749  -8839597.12446  23166218.800    23166224.297
  21996050.403   -21162339.81749 -16461270.16047  21996049.612    21996055.744
 04  2 25  0 15  0.0000000  0  9G29G18G 3G21G22G 6G26G16G15
  23820157.675   -10806674.55649  -8408200.63045  23820157.358    23820163.250
  20369822.956   -26869799.17549 -20923083.07648  20369822.425    20369826.187
  24048394.471    -5431848.21349  -4208824.47745  24048394.093    24048401.365
  20556617.795   -29449257.12349 -22669352.20848  20556617.140    20556620.520
  21882141.625   -20905032.28049 -16274845.67947  21882141.299    21882144.781
  21980094.521   -18631600.95049 -14294599.04247  21980094.227    21980099.866
  22246905.866   -14283486.53749 -11108833.69946  22246905.867    22246911.047
  23171275.156   -11332284.11849  -8818894.49546  23171274.640    23171280.086
  21983945.505   -21225951.38149 -16510837.55947  21983944.702    21983950.774
 04  2 25  0 15 30.0000000  0  9G29G18G 3G21G22G 6G26G16G15
  23832834.091   -10740059.65949  -8356292.93345  23832833.792    23832839.654
  20367706.769   -26880919.67749 -20931748.37548  20367706.260    20367709.981
  24029942.162    -5528815.50849  -4284383.31045  24029941.748    24029948.985
  20556952.110   -29447500.26349 -22667983.21348  20556951.469    20556954.847
  21869115.170   -20973486.78949 -16328186.76747  21869114.807    21869118.275
  21996294.235   -18546470.99349 -14228264.04047  21996293.942    21996299.574
  22255606.245   -14237765.87749 -11073207.21946  22255606.225    22255611.420
  23176422.717   -11305233.90349  -8797816.42946  23176422.147    23176427.697
  21971861.745   -21289451.92749 -16560318.44647  21971860.937    21971866.937
 04  2 25  0 16  0.0000000  0  9G29G18G 3G21G22G 6G26G16G15
  23845590.825   -10673022.46649  -8304056.18245  23845590.531    23845596.354
  20365673.707   -26891603.53149 -20940073.42348  20365673.178    20365676.901
  24011524.187    -5625602.46849  -4359801.63345  24011523.678    24011530.857
  20557330.172   -29445513.42449 -22666435.01148  20557329.527    20557332.907
  21856154.997   -21041592.11649 -16381255.75947  21856154.699    21856158.217
  22012558.415   -18461002.23349 -14161665.02747  22012558.123    22012563.774
  22264423.357   -14191431.25249 -11037102.31446  22264423.360    22264428.598
  23181661.528   -11277703.27449  -8776364.01246  23181661.010    23181666.572
  21959799.330   -21352840.11049 -16609711.77447  21959798.518    21959804.497
 04  2 25  0 16 30.0000000  0  9G29G18G 3G21G22G 6G26G16G15
  23858427.610   -10605564.37549  -8251491.44645  23858427.364    23858433.187
  20363723.685   -26901850.75349 -20948058.24148  20363723.158    20363726.903
  23993141.029    -5722206.20849  -4435077.20345  23993140.525    23993147.535
  20557752.195   -29443295.53149 -22664706.76448  20557751.555    20557754.942
  21843261.608   -21109346.68349 -16434051.43547  21843261.335    21843264.825
  22028886.787   -18375195.74549 -14094802.84747  22028886.549    22028892.218
  22273357.224   -14144483.42849 -11000519.59146  22273357.216    22273362.488
  23186991.673   -11249693.04749  -8754537.87346  23186991.160    23186996.768
  21947758.536   -21416114.55749 -16659016.47647  21947757.734    21947763.704
 04  2 25  0 17  0.0000000  0  9G29G18G 3G21G22G 6G26G16G15
  23871343.548   -10537690.91849  -8198603.05145  23871343.273    23871349.105
  20361856.151   -26911664.44249 -20955705.24248  20361855.641    20361859.377
  23974792.496    -5818627.60049  -4510210.64745  23974792.127    23974799.052
  20558217.800   -29440848.72949 -22662800.14848  20558217.172    20558220.547
  21830434.600   -21176752.90949 -16486575.67947  21830434.335    21830437.655
  22045278.409   -18289057.26649 -14027681.99147  22045278.171    22045283.847
  22282406.890   -14096927.45849 -10963462.99346  22282406.881    22282412.091
  23192412.251   -11221208.31049  -8732342.00246  23192411.727    23192417.406
  21935738.872   -21479278.15049 -16708234.79947  21935738.075    21935744.040
 04  2 25  0 17 30.0000000  0  9G29G18G 3G21G22G 6G26G16G15
  23884338.877   -10469399.99149  -8145389.34145  23884338.637    23884344.418
  20360071.678   -26921041.73649 -20963012.19248  20360071.186    20360074.917
  23956479.881    -5914859.90449  -4585196.77145  23956479.565    23956486.528
  20558727.803   -29438168.41949 -22660711.57348  20558727.159    20558730.570
  21817674.848   -21243806.00849 -16538824.74647  21817674.538    21817677.770
  22061734.036   -18202583.15249 -13960299.58847  22061733.710    22061739.328
  22291572.759   -14048760.78049 -10925930.51446  22291572.755    22291577.942
  23197923.409   -11192246.69149  -8709774.51746  23197922.882    23197928.635
  21923741.209   -21542326.10849 -16757363.00747  21923740.401    21923746.320
 04  2 25  0 18  0.0000000  0  9G29G18G 3G21G22G 6G26G16G15
  23897412.920   -10400695.85349  -8091853.68345  23897412.636    23897418.371
  20358369.629   -26929985.96449 -20969981.69648  20358369.124    20358372.896
  23938203.389    -6010903.04649  -4660035.47545  23938203.067    23938210.098
  20559281.886   -29435256.56749 -22658442.57948  20559281.256    20559284.657
  21804981.752   -21310507.64449 -16590799.96547  21804981.476    21804984.824
  22078252.412   -18115778.22449 -13892659.40847  22078252.134    22078257.815
  22300854.034   -13999987.07549 -10887925.03746  22300854.030    22300859.280
  23203524.617   -11162812.11549  -8686838.50846  23203524.154    23203529.740
  21911765.216   -21605260.11449 -16806402.42647  21911764.401    21911770.286
 04  2 25  0 18 30.0000000  0  9G29G18G 3G21G22G 6G26G16G15
  23910565.088   -10331580.79849  -8037997.80445  23910564.811    23910570.570
  20356749.842   -26938497.87849 -20976614.33748  20356749.326    20356753.086
  23919963.414    -6106754.77849  -4734725.04845  23919962.915    23919970.010
  20559880.044   -29432113.06749 -22655993.08248  20559879.422    20559882.808
  21792355.665   -21376857.33849 -16642500.94747  21792355.446    21792358.873
  22094833.372   -18028644.63149 -13824763.12347  22094833.095    22094838.777
  22310250.467   -13950608.35349 -10849448.11346  22310250.475    22310255.759
  23209215.558   -11132906.73549  -8663535.63346  23209215.015    23209220.648
  21899810.929   -21668080.02349 -16855352.94247  21899810.097    21899816.038
 04  2 25  0 19  0.0000000  0  9G29G18G 3G21G22G 6G26G16G15
  23923795.263   -10262055.75849  -7983822.48545  23923794.981    23923800.801
  20355212.469   -26946576.69549 -20982909.49748  20355211.990    20355215.704
  23901760.461    -6202411.39249  -4809262.59945  23901759.917    23901767.052
  20560522.651   -29428736.17349 -22653361.72048  20560522.017    20560525.415
  21779796.986   -21442853.40049 -16693926.36347  21779796.750    21779800.100
  22111476.810   -17941182.95649 -13756611.18447  22111476.533    22111482.209
  22319761.904   -13900625.38849 -10810500.33346  22319761.950    22319767.106
  23214995.595   -11102531.23349  -8639866.42146  23214995.124    23215000.980
  21887878.642   -21730784.06849 -16904213.17047  21887877.808    21887883.803
 04  2 25  0 19 30.0000000  0  9G29G18G 3G21G22G 6G26G16G15
  23937103.054   -10192123.01549  -7929329.48145  23937102.779    23937108.687
  20353757.234   -26954223.90149 -20988868.33848  20353756.737    20353760.440
  23883595.034    -6297870.77249  -4883646.44845  23883594.461    23883601.569
  20561209.757   -29425125.24349 -22650547.99048  20561209.121    20561212.533
  21767305.854   -21508495.25849 -16745075.77347  21767305.498    21767308.729
  22128182.270   -17853395.19549 -13688205.16747  22128181.958    22128187.695
  22329388.087   -13850039.78949 -10771082.96346  22329388.086    22329393.146
  23220864.960   -11071687.67349  -8615832.51346  23220864.539    23220870.141
  21875968.504   -21793371.62749 -16952982.63147  21875967.693    21875973.726
 04  2 25  0 20  0.0000000  0  9G29G18G 3G21G22G 6G26G16G15
  23950487.883   -10121785.33249  -7874520.91645  23950487.622    23950493.495
  20352383.943   -26961440.80649 -20994491.88348  20352383.408    20352387.120
  23865467.570    -6393130.93349  -4957875.05945  23865467.041    23865474.166
  20561941.300   -29421280.92249 -22647552.39948  20561940.665    20561944.069
  21754881.852   -21573782.85949 -16795949.15447  21754881.529    21754884.809
  22144949.313   -17765283.82049 -13619546.96347  22144949.031    22144954.779
  22339128.391   -13798853.96949 -10731197.90246  22339128.353    22339133.536
  23226822.926   -11040378.65849  -8591435.89746  23226822.475    23226828.126
  21864080.563   -21855842.83549 -17001661.43447  21864079.773    21864085.819
 04  2 25  0 20 30.0000000  0  9G29G18G 3G21G22G 6G26G16G15
  23963949.047   -10051046.09149  -7819399.47045  23963948.794    23963954.697
  20351092.087   -26968229.29549 -20999781.59348  20351091.573    20351095.273
  23847378.338    -6488190.53149  -5031947.36545  23847377.864    23847384.839
  20562717.267   -29417203.12749 -22644374.88148  20562716.657    20562720.054
  21742525.167   -21638716.79249 -16846546.95247  21742524.903    21742528.282
  22161777.481   -17676851.50349 -13550638.70047  22161777.151    22161782.919
  22348982.311   -13747070.97649 -10690847.52846  22348982.242    22348987.525
  23232868.840   -11008607.04749  -8566678.81146  23232868.400    23232874.298
  21852214.678   -21918198.34249 -17050250.08247  21852213.857    21852219.927
 04  2 25  0 21  0.0000000  0  9G29G18G 3G21G22G 6G26G16G15
  23977486.734    -9979905.24249  -7763965.04945  23977486.521    23977492.288
  20349882.112   -26974587.71849 -21004736.18748  20349881.600    20349885.268
  23829328.054    -6583044.92249  -5105859.78045  23829327.570    23829334.560
  20563538.108   -29412889.57949 -22641013.65848  20563537.479    20563540.840
  21730236.368   -21703294.47049 -16896867.14547  21730236.111    21730239.493
  22178666.598   -17588098.36349 -13481480.43546  22178666.309    22178672.097
  22358950.012   -13694690.45649 -10650031.54346  22358949.941    22358955.195
  23239002.926   -10976372.77349  -8541561.22746  23239002.444    23239008.252
  21840371.268   -21980435.32849 -17098746.37847  21840370.466    21840376.595
 04  2 25  0 21 30.0000000  0  9G29G18G 3G21G22G 6G26G16G15
  23991100.329    -9908365.60749  -7708219.87745  23991100.167    23991105.820
  20348753.582   -26980518.17849 -21009357.29748  20348753.051    20348756.737
  23811317.060    -6677692.55449  -5179611.07445  23811316.628    23811323.635
  20564403.869   -29408340.01249 -22637468.52148  20564403.230    20564406.618
  21718015.491   -21767515.62749 -16946909.52847  21718015.191    21718018.521
  22195616.313   -17499026.81149 -13412074.05946  22195616.045    22195621.896
  22369031.003   -13641714.89449 -10608751.87346  22369030.912    22369036.110
  23245224.321   -10943678.53849  -8516085.22446  23245223.886    23245229.645
  21828550.369   -22042554.05249 -17147150.52047  21828549.600    21828555.746
 04  2 25  0 22  0.0000000  0  9G29G18G 3G21G22G 6G26G16G15
  24004789.411    -9836429.62949  -7652165.86945  24004789.210    24004794.889
  20347706.295   -26986021.48549 -21013645.56248  20347705.776    20347709.470
  23793345.926    -6772131.44749  -5253199.73345  23793345.539    23793352.451
  20565314.427   -29403554.66749 -22633739.67448  20565313.800    20565317.201
  21705862.459   -21831380.20849 -16996674.05847  21705862.135    21705865.411
  22212626.262   -17409638.67749 -13342421.00346  22212626.009    22212631.869
  22379224.738   -13588146.50049 -10567010.25746  22379224.665    22379229.804
  23251532.956   -10910526.53149  -8490252.51546  23251532.529    23251538.405
  21816752.134   -22104554.03949 -17195462.14347  21816751.377    21816757.510
 04  2 25  0 22 30.0000000  0  9G29G18G 3G21G22G 6G26G16G15
  24018553.290    -9764100.15949  -7595805.25745  24018553.072    24018558.729
  20346740.020   -26991099.22649 -21017602.21448  20346739.495    20346743.177
  23775414.881    -6866359.59249  -5326624.15845  23775414.453    23775421.269
  20566269.951   -29398533.36149 -22629826.94748  20566269.308    20566272.697
  21693777.121   -21894888.05349 -17046160.62447  21693776.841    21693780.201
  22229696.052   -17319936.63049 -13272523.34646  22229695.762    22229701.632
  22389530.750   -13533987.65749 -10524808.55246  22389530.731    22389535.827
  23257928.438   -10876919.12049  -8464064.94646  23257927.981    23257933.815
  21804976.451   -22166435.49849 -17243681.40947  21804975.690    21804981.783
 04  2 25  0 23  0.0000000  0  9G29G18G 3G21G22G 6G26G16G15
  24032391.829    -9691377.69449  -7539138.44445  24032391.572    24032397.392
  20345854.843   -26995750.62849 -21021226.65848  20345854.348    20345858.020
  23757524.821    -6960372.52749  -5399880.89246  23757524.418    23757531.142
  20567270.761   -29393274.03749 -22625728.75448  20567270.125    20567273.505
  21681760.247   -21958036.88349 -17095367.43747  21681759.980    21681763.339
  22246825.455   -17229921.00149 -13202381.31646  22246825.203    22246831.009
  22399949.056   -13479238.47749 -10482146.86046  22399949.038    22399954.228
  23264410.378   -10842856.48449  -8437522.65046  23264409.855    23264415.615
  21793223.841   -22228195.87249 -17291806.32147  21793223.066    21793229.117
 04  2 25  0 23 30.0000000  0  9G29G18G 3G21G22G 6G26G16G15
  24046304.151    -9618267.70549  -7482169.65645  24046303.940    24046309.820
  20345050.027   -26999979.90549 -21024522.17248  20345049.535    20345053.179
  23739675.382    -7054171.46949  -5472970.85246  23739674.995    23739681.770
  20568316.349   -29387779.24749 -22621447.09148  20568315.721    20568319.107
  21669811.158   -22020829.80549 -17144296.91847  21669810.882    21669814.176
  22264013.671   -17139596.79849 -13131998.84346  22264013.384    22264019.168
  22410478.745   -13423904.39449 -10439029.39146  22410478.788    22410483.974
  23270977.645   -10808344.27849  -8410630.03346  23270977.148    23270983.000
  21781493.727   -22289837.92249 -17339839.03347  21781492.936    21781498.952
 04  2 25  0 24  0.0000000  0  9G29G18G 3G21G22G 6G26G16G15
  24060290.482    -9544768.99949  -7424897.95545  24060290.287    24060296.162
  20344326.103   -27003784.36249 -21027486.65648  20344325.577    20344329.210
  23721867.872    -7147750.39449  -5545889.35846  23721867.443    23721874.225
  20569407.513   -29382045.01849 -22616978.85148  20569406.906    20569410.264
  21657930.566   -22083262.74149 -17192945.88647  21657930.247    21657933.483
  22281260.810   -17048962.42949 -13061374.68446  22281260.544    22281266.384
  22421120.152   -13367983.83149 -10395454.92746  22421120.152    22421125.334
  23277631.196   -10773381.11249  -8383386.02946  23277630.681    23277636.339
  21769786.900   -22351357.68049 -17387776.45347  21769786.111    21769792.031
 04  2 25  0 24 30.0000000  0  9G29G18G 3G21G22G 6G26G16G15
  24074349.935    -9470886.06449  -7367326.86345  24074349.634    24074355.609
  20343682.377   -27007166.97349 -21030122.44048  20343681.872    20343685.490
  23704102.243    -7241109.07749  -5618636.29146  23704101.891    23704108.493
  20570543.938   -29376073.12249 -22612325.42148  20570543.339    20570546.663
  21646118.027   -22145337.45249 -17241315.72947  21646117.725    21646121.003
  22298566.108   -16958022.59249 -12990512.50346  22298565.824    22298571.700
  22431872.303   -13311481.16549 -10351426.86846  22431872.298    22431877.440
  23284369.578   -10737971.46449  -8355794.10346  23284368.917    23284374.768
  21758103.022   -22412756.82649 -17435619.89247  21758102.229    21758108.052
 04  2 25  0 25  0.0000000  0  9G29G18G 3G21G22G 6G26G16G15
  24088482.420    -9396619.35049  -7309456.72045  24088482.201    24088487.995
  20343118.984   -27010127.51049 -21032429.32948  20343118.462    20343122.062
  23686379.341    -7334243.15449  -5691208.19845  23686378.991    23686385.518
  20571725.972   -29369861.56349 -22607485.23548  20571725.351    20571728.644
  21634374.133   -22207051.37949 -17289404.43747  21634373.865    21634377.140
  22315929.550   -16866776.97849 -12919412.05046  22315929.353    22315935.204
  22442735.125   -13254396.36249 -10306945.19646  22442735.168    22442740.294
  23291192.387   -10702115.23949  -8327854.17246  23291191.903    23291197.967
  21746442.589   -22474032.62749 -17483367.21447  21746441.822    21746447.612
 04  2 25  0 25 30.0000000  0  9G29G18G 3G21G22G 6G26G16G15
  24102687.472    -9321971.59049  -7251289.63845  24102687.296    24102693.014
  20342635.781   -27012666.61049 -21034407.82448  20342635.257    20342638.868
  23668699.530    -7427150.61749  -5763603.52045  23668699.130    23668705.721
  20572953.624   -29363410.00749 -22602458.03248  20572953.011    20572956.309
  21622699.049   -22268404.72349 -17337212.16447  21622698.757    21622701.965
  22333350.893   -16775228.08349 -12848075.26546  22333350.573    22333356.354
  22453708.292   -13196732.02149 -10262011.94946  22453708.251    22453713.474
  23298100.232   -10665815.21849  -8299568.46446  23298099.750    23298105.585
  21734805.637   -22535185.21649 -17531018.52947  21734804.868    21734810.604
 04  2 25  0 26  0.0000000  0  9G29G18G 3G21G22G 6G26G16G15
  24116964.163    -9246946.35549  -7192828.40745  24116963.984    24116969.715
  20342232.217   -27014787.30149 -21036060.29248  20342231.696    20342235.331
  23651063.137    -7519830.43649  -5835821.44945  23651062.680    23651069.279
  20574226.884   -29356718.97049 -22597244.22448  20574226.289    20574229.564
  21611092.287   -22329398.59149 -17384739.78447  21611091.982    21611095.100
  22350829.098   -16683379.42149 -12776504.91446  22350828.853    22350834.591
  22464791.075   -13138491.60049 -10216629.81146  22464791.019    22464796.357
  23305091.930   -10629074.75949  -8270939.54946  23305091.302    23305097.067
  21723191.997   -22596215.15749 -17578574.27147  21723191.218    21723196.935
 04  2 25  0 26 30.0000000  0  9G29G18G 3G21G22G 6G26G16G15
  24131312.471    -9171545.95349  -7134074.84645  24131312.280    24131318.015
  20341908.153   -27016490.17749 -21037387.18748  20341907.630    20341911.245
  23633470.480    -7612279.97049  -5907859.92946  23633470.039    23633476.637
  20575545.886   -29349787.67249 -22591843.20048  20575545.266    20575548.512
  21599554.060   -22390031.86549 -17431986.41947  21599553.770    21599556.840
  22368364.102   -16591232.76349 -12704702.36546  22368363.804    22368369.571
  22475983.109   -13079676.98749 -10170800.25146  22475983.080    22475988.425
  23312166.444   -10591895.86249  -8241968.95246  23312165.933    23312172.082
  21711601.789   -22657121.62349 -17626033.80247  21711601.021    21711606.744
 04  2 25  0 27  0.0000000  0  9G29G18G 3G21G22G 6G26G16G15
  24145732.145    -9095770.41149  -7075028.98845  24145731.967    24145737.719
  20341663.817   -27017773.97949 -21038387.53248  20341663.290    20341666.914
  23615922.491    -7704495.00849  -5979715.70846  23615922.048    23615928.577
  20576911.019   -29342613.88949 -22586253.22348  20576910.391    20576913.606
  21588084.887   -22450302.37349 -17478950.38047  21588084.640    21588087.680
  22385955.786   -16498787.78149 -12632667.32446  22385955.525    22385961.328
  22487284.492   -13020288.21849 -10124523.30546  22487284.407    22487289.752
  23319324.744   -10554278.71349  -8212656.89546  23319324.317    23319330.311
  21700035.726   -22717901.80949 -17673394.93847  21700034.968    21700040.652
 04  2 25  0 27 30.0000000  0  9G29G18G 3G21G22G 6G26G16G15
  24160222.640    -9019622.81649  -7015693.20945  24160222.427    24160228.187
  20341498.911   -27018640.41349 -21039062.65848  20341498.404    20341502.049
  23598419.452    -7796473.68849  -6051387.32445  23598419.005    23598425.399
  20578322.240   -29335197.96849 -22580474.57248  20578321.604    20578324.832
  21576684.817   -22510210.29849 -17525631.80947  21576684.552    21576687.543
  22403603.661   -16406047.59449 -12560402.28246  22403603.368    22403609.253
  22498694.487   -12960328.17149 -10077801.18146  22498694.448    22498699.762
  23326566.223   -10516225.98649  -8183005.42846  23326565.635    23326571.406
  21688493.560   -22778556.14049 -17720657.99947  21688492.779    21688498.421
 04  2 25  0 28  0.0000000  0  9G29G18G 3G21G22G 6G26G16G15
  24174782.921    -8943107.98449  -6956071.26445  24174782.786    24174788.447
  20341412.772   -27019093.15349 -21039415.42248  20341412.253    20341415.885
  23580961.418    -7888215.96049  -6122874.74345  23580960.980    23580967.227
  20579779.169   -29327541.50449 -22574508.47748  20579778.546    20579781.784
  21565353.294   -22569757.89749 -17572032.46147  21565352.977    21565355.964
  22421306.853   -16313016.69249 -12487910.68446  22421306.602    22421312.501
  22510212.278   -12899801.40049 -10030637.47546  22510212.265    22510217.589
  23333889.233   -10477742.71849  -8153018.45746  23333888.666    23333894.516
  21676974.963   -22839086.44049 -17767824.41847  21676974.193    21676979.876
 04  2 25  0 28 30.0000000  0  9G29G18G 3G21G22G 6G26G16G15
  24189413.038    -8866225.86549  -6896163.13645  24189413.008    24189418.716
  20341405.601   -27019130.80849 -21039444.74248  20341405.068    20341408.686
  23563549.316    -7979716.94349  -6194174.12646  23563548.905    23563555.114
  20581282.523   -29319641.48149 -22568352.59948  20581281.885    20581285.122
  21554090.814   -22628942.25049 -17618150.06347  21554090.524    21554093.500
  22439065.567   -16219694.45049 -12415192.07946  22439065.258    22439071.141
  22521837.984   -12838707.65949  -9983031.97346  22521837.976    22521843.366
  23341294.310   -10438828.47849  -8122695.66446  23341293.838    23341299.785
  21665480.631   -22899489.27549 -17814891.51247  21665479.880    21665485.572
 04  2 25  0 29  0.0000000  0  9G29G18G 3G21G22G 6G26G16G15
  24204113.088    -8788976.65949  -6835968.96845  24204113.061    24204118.800
  20341477.588   -27018752.30349 -21039149.78148  20341477.079    20341480.671
  23546184.010    -8070971.99549  -6265281.87446  23546183.507    23546189.770
  20582832.618   -29311495.36949 -22562004.96648  20582831.982    20582835.248
  21542897.940   -22687760.72849 -17663982.57647  21542897.662    21542900.595
  22456879.759   -16126080.56449 -12342246.22546  22456879.446    22456885.283
  22533571.602   -12777047.17849  -9934984.84246  22533571.623    22533576.999
  23348781.432   -10399483.39949  -8092037.16746  23348780.915    23348786.815
  21654011.112   -22959762.03749 -17861857.25347  21654010.361    21654016.044
 04  2 25  0 29 30.0000000  0  9G29G18G 3G21G22G 6G26G16G15
  24218881.556    -8711368.01949  -6775494.71245  24218881.527    24218887.258
  20341627.553   -27017964.00149 -21038535.49948  20341627.055    20341630.643
  23528864.761    -8161984.30649  -6336200.46045  23528864.307    23528870.610
  20584428.664   -29303108.07849 -22555469.40248  20584428.037    20584431.284
  21531773.760   -22746218.57549 -17709534.08247  21531773.474    21531776.329
  22474747.935   -16032182.86549 -12269079.21046  22474747.596    22474753.467
  22545411.729   -12714827.33349  -9886501.83246  22545411.716    22545416.978
  23356348.995   -10359715.17649  -8061048.94846  23356348.576    23356354.351
  21642565.404   -23019909.49149 -17908725.35147  21642564.644    21642570.328
 04  2 25  0 30  0.0000000  0  9G29G18G 3G21G22G 6G26G16G15
  24233718.786    -8633397.77149  -6714738.69145  24233718.736    24233724.460
  20341856.207   -27016762.54849 -21037599.28148  20341855.676    20341859.256
  23511593.108    -8252746.77149  -6406924.38045  23511592.703    23511598.988
  20586071.567   -29294474.44949 -22548741.88848  20586070.950    20586074.204
  21520719.167   -22804310.87949 -17754800.74847  21520718.867    21520721.729
  22492670.500   -15937998.75849 -12195689.02546  22492670.268    22492676.101
  22557358.651   -12652045.97449  -9837581.29446  22557358.586    22557363.890
  23363997.738   -10319521.55049  -8029729.24946  23363997.281    23364003.012
  21631144.530   -23079926.35549 -17955491.69147  21631143.771    21631149.433
 04  2 25  0 30 30.0000000  0  9G29G18G 3G21G22G 6G26G16G15
  24248623.836    -8555070.99949  -6653704.84545  24248623.717    24248629.546
  20342162.746   -27015151.64849 -21036344.01248  20342162.214    20342165.786
  23494369.100    -8343259.47649  -6477453.70045  23494368.717    23494374.895
  20587760.913   -29285596.71749 -22541824.16148  20587760.310    20587763.541
  21509733.545   -22862040.00949 -17799784.42547  21509733.252    21509736.185
  22510646.733   -15843532.70649 -12122079.14146  22510646.534    22510652.365
  22569411.437   -12588707.87849  -9788226.95046  22569411.381    22569416.787
  23371726.246   -10278907.41949  -7998081.87646  23371725.771    23371731.707
  21619748.156   -23139814.56149 -18002157.77647  21619747.400    21619753.043
 04  2 25  0 31  0.0000000  0  9G29G18G 3G21G22G 6G26G16G15
  24263596.359    -8476389.93749  -6592394.93745  24263596.252    24263602.146
  20342547.023   -27013132.04049 -21034770.27348  20342546.518    20342550.074
  23477193.006    -8433519.91749  -6547786.43245  23477192.608    23477198.814
  20589496.886   -29276474.01549 -22534715.53848  20589496.278    20589499.497
  21498817.192   -22919405.53349 -17844484.77747  21498816.899    21498819.792
  22528676.270   -15748786.72949 -12048251.13346  22528676.082    22528681.934
  22581569.799   -12524815.32449  -9738440.54646  22581569.774    22581575.097
  23379534.367   -10237874.98749  -7966108.56546  23379533.955    23379539.845
  21608376.393   -23199573.49049 -18048723.12647  21608375.633    21608381.264
 04  2 25  0 31 30.0000000  0  9G29G18G 3G21G22G 6G26G16G15
  24278636.292    -8397354.61249  -6530808.97745  24278636.160    24278642.152
  20343009.305   -27010702.85749 -21032877.38648  20343008.768    20343012.316
  23460065.853    -8523523.14249  -6617918.71945  23460065.485    23460071.743
  20591280.050   -29267103.45449 -22527413.78648  20591279.434    20591282.652
  21487970.542   -22976404.66449 -17888899.62947  21487970.268    21487973.073
  22546759.103   -15653761.05749 -11974205.19846  22546758.884    22546764.701
  22593833.688   -12460368.32549  -9688222.09546  22593833.664    22593838.828
  23387422.375   -10196424.25949  -7933809.32246  23387421.935    23387427.601
  21597029.813   -23259200.02249 -18095185.31047  21597029.028    21597034.670
 04  2 25  0 32  0.0000000  0  9G29G18G 3G21G22G 6G26G16G15
  24293742.931    -8317968.63549  -6468949.78545  24293742.742    24293748.822
  20343549.058   -27007866.15249 -21030666.95748  20343548.524    20343552.125
  23442987.889    -8613268.14949  -6687849.82745  23442987.497    23442993.710
  20593110.212   -29257485.80249 -22519919.50148  20593109.597    20593112.824
  21477193.508   -23033038.33149 -17933029.70747  21477193.229    21477196.005
  22564894.708   -15558458.64349 -11899943.61746  22564894.419    22564900.194
  22606202.400   -12395370.38349  -9637574.34946  22606202.401    22606207.503
  23395389.014   -10154558.85949  -7901186.95246  23395388.540    23395394.393
  21585708.310   -23318694.74549 -18141544.79447  21585707.526    21585713.071
 04  2 25  0 32 30.0000000  0  9G29G18G 3G21G22G 6G26G16G15
  24308915.721    -8238235.46349  -6406820.04645  24308915.487    24308921.565
  20344165.981   -27004624.18549 -21028140.73248  20344165.457    20344169.045
  23425959.430    -8702753.43949  -6757578.56645  23425958.926    23425965.127
  20594987.289   -29247621.71749 -22512233.19048  20594986.657    20594989.874
  21466485.738   -23089307.37849 -17976875.66847  21466485.462    21466488.323
  22583082.385   -15462882.07249 -11825468.40346  22583082.127    22583087.847
  22618675.396   -12329824.82449  -9586499.89046  22618675.367    22618680.470
  23403433.863   -10112281.99149  -7868243.96546  23403433.520    23403439.446
  21574411.874   -23378057.95249 -18187801.79147  21574411.086    21574416.562
 04  2 25  0 33  0.0000000  0  9G29G18G 3G21G22G 6G26G16G15
  24324154.063    -8158158.13049  -6344422.12745  24324153.799    24324159.801
  20344859.655   -27000978.85049 -21025300.18848  20344859.117    20344862.668
  23408980.584    -8791977.33649  -6827103.61445  23408980.121    23408986.283
  20596911.222   -29237511.33049 -22504354.94748  20596910.605    20596913.808
  21455847.334   -23145212.05449 -18020437.70347  21455847.056    21455849.979
  22601321.486   -15367035.16149 -11750782.53746  22601321.221    22601326.965
  22631251.933   -12263734.65449  -9535001.06646  22631251.930    22631257.062
  23411556.898   -10069596.53949  -7834982.61246  23411556.437    23411562.197
  21563140.363   -23437289.65449 -18233956.30947  21563139.599    21563145.042
 04  2 25  0 33 30.0000000  0  9G29G18G 3G21G22G 6G26G16G15
  24339457.812    -8077736.68249  -6281756.08045  24339457.484    24339463.451
  20345630.399   -26996928.60049 -21022144.12748  20345629.834    20345633.387
  23392052.481    -8880934.64549  -6896420.92346  23392052.049    23392058.233
  20598882.711   -29227151.25449 -22496282.14748  20598882.101    20598885.257
  21445278.841   -23200749.65849 -18063713.70647  21445278.573    21445281.486
  22619612.153   -15270916.60449 -11675884.99146  22619611.909    22619617.758
  22643932.112   -12197099.75149  -9483077.75946  22643932.082    22643937.261
  23419757.285   -10026502.71749  -7801403.03046  23419756.869    23419762.756
  21551894.616   -23496386.34049 -18280005.62947  21551893.854    21551899.238
 04  2 25  0 34  0.0000000  0  9G29G18G 3G21G22G 6G26G16G15
  24354826.559    -7996972.91549  -6218823.30145  24354826.254    24354832.381
  20346477.953   -26992474.31949 -21018673.24648  20346477.447    20346481.040
  23375175.678    -8969622.70149  -6965528.42546  23375175.253    23375181.485
  20600901.812   -29216540.95649 -22488014.37848  20600901.193    20600904.311
  21434780.333   -23255919.74849 -18106703.33747  21434780.060    21434782.901
  22637954.072   -15174528.90649 -11600777.72646  22637953.861    22637959.799
  22656715.552   -12129922.13949  -9430731.58646  22656715.532    22656720.763
  23428035.029    -9983002.49849  -7767506.76946  23428034.609    23428040.822
  21540674.665   -23555347.16949 -18325949.08247  21540673.882    21540679.269
 04  2 25  0 34 30.0000000  0  9G29G18G 3G21G22G 6G26G16G15
  24370259.679    -7915871.69649  -6155627.56445  24370259.420    24370265.446
  20347401.768   -26987619.52449 -21014890.27548  20347401.287    20347404.866
  23358350.166    -9058041.38749  -7034426.05646  23358349.711    23358355.910
  20602968.193   -29205681.92749 -22479552.79048  20602967.582    20602970.692
  21424351.340   -23310724.30849 -18149408.13847  21424351.051    21424353.878
  22656346.586   -15077876.28849 -11525464.03546  22656346.307    22656352.227
  22669601.447   -12062206.63149  -9377966.23746  22669601.432    22669606.663
  23436389.447    -9939100.47749  -7733297.44246  23436389.035    23436395.113
  21529480.263   -23614173.81749 -18371787.97847  21529479.501    21529484.901
 04  2 25  0 35  0.0000000  0  9G29G18G 3G21G22G 6G26G16G15
  24385756.712    -7834434.45649  -6092169.97145  24385756.472    24385762.413
  20348401.847   -26982364.13149 -21010795.14848  20348401.335    20348404.883
  23341576.449    -9146187.27049  -7103111.09046  23341575.944    23341582.139
  20605082.245   -29194572.46849 -22470896.05948  20605081.609    20605084.716
  21413992.117   -23365162.05949 -18191827.12147  21413991.832    21413994.704
  22674789.463   -14980959.32349 -11449944.35346  22674789.100    22674794.918
  22682589.420   -11993954.44649  -9324782.71446  22682589.400    22682594.571
  23444820.101    -9894798.00849  -7698776.06446  23444819.550    23444825.450
  21518311.728   -23672864.42149 -18417520.87347  21518310.963    21518316.396
 04  2 25  0 35 30.0000000  0  9G29G18G 3G21G22G 6G26G16G15
  24401317.131    -7752663.49649  -6028452.35845  24401316.909    24401322.831
  20349477.909   -26976709.55749 -21006388.96948  20349477.380    20349480.892
  23324855.146    -9234057.73149  -7171581.49446  23324854.709    23324860.922
  20607244.048   -29183211.98149 -22462043.71648  20607243.432    20607246.530
  21403702.710   -23419232.90949 -18233960.20347  21403702.425    21403705.305
  22693281.949   -14883780.58449 -11374220.70046  22693281.628    22693287.465
  22695678.930   -11925168.20449  -9271183.03346  22695678.928    22695684.157
  23453326.010    -9850097.59249  -7663944.59746  23453325.620    23453331.597
  21507169.250   -23731418.23349 -18463147.17147  21507168.497    21507173.955
 04  2 25  0 36  0.0000000  0  9G29G18G 3G21G22G 6G26G16G15
  24416940.637    -7670561.79449  -5964477.00345  24416940.364    24416946.207
  20350629.551   -26970657.48849 -21001673.05748  20350629.023    20350632.555
  23308186.594    -9321650.68249  -7239835.66446  23308186.199    23308192.496
  20609453.586   -29171600.71149 -22452995.95648  20609452.973    20609456.066
  21393483.206   -23472936.85449 -18275807.38247  21393482.900    21393485.702
  22711823.763   -14786342.10949 -11298294.65546  22711823.482    22711829.432
  22708869.695   -11855850.63449  -9217169.31946  22708869.627    22708874.804
  23461907.611    -9805002.12349  -7628805.29046  23461907.159    23461913.145
  21496052.925   -23789834.84949 -18508666.57047  21496052.163    21496057.599
 04  2 25  0 36 30.0000000  0  9G29G18G 3G21G22G 6G26G16G15
  24432626.447    -7588132.32849  -5900246.24845  24432626.205    24432631.973
  20351856.544   -26964209.41249 -20996648.56748  20351856.023    20351859.576
  23291571.287    -9408964.62049  -7307872.42346  23291570.861    23291577.145
  20611710.847   -29159738.71649 -22443752.82348  20611710.230    20611713.336
  21383333.395   -23526274.45849 -18317369.10047  21383333.067    21383335.825
  22730414.459   -14688647.21649 -11222168.79546  22730414.172    22730420.232
  22722160.840   -11786004.86449  -9162744.03846  22722160.786    22722166.037
  23470563.658    -9759514.62849  -7593360.49346  23470563.097    23470569.248
  21484962.675   -23848114.33049 -18554079.10647  21484961.930    21484967.377
 04  2 25  0 37  0.0000000  0  9G29G18G 3G21G22G 6G26G16G15
  24448374.869    -7505373.79349  -5835759.08645  24448374.642    24448380.373
  20353159.399   -26957362.71549 -20991313.45948  20353158.891    20353162.418
  23275010.307    -9495993.04349  -7375686.69946  23275009.866    23275016.102
  20614016.656   -29147621.60749 -22434310.90748  20614016.044    20614019.128
  21373253.929   -23579241.71349 -18358642.24347  21373253.654    21373256.468
  22749054.241   -14590694.64349 -11145842.16346  22749053.957    22749060.021
  22735552.788   -11715629.72949  -9107906.27946  22735552.744    22735557.994
  23479294.329    -9713633.77649  -7557609.20646  23479293.893    23479299.890
  21473899.388   -23906252.12049 -18599381.23347  21473898.629    21473904.122
 04  2 25  0 37 30.0000000  0  9G29G18G 3G21G22G 6G26G16G15
  24464184.582    -7422293.14149  -5771020.90345  24464184.407    24464190.195
  20354537.040   -26950123.34149 -20985672.37048  20354536.518    20354540.016
  23258503.256    -9582737.90949  -7443280.01746  23258502.814    23258509.089
  20616370.335   -29135253.09149 -22424673.08848  20616369.714    20616372.838
  21363244.180   -23631843.10449 -18399630.29747  21363243.924    21363246.737
  22767741.788   -14492490.69049 -11069319.64146  22767741.550    22767747.654
  22749044.221   -11644732.03249  -9052661.31446  22749044.155    22749049.339
  23488098.871    -9667366.62749  -7521556.90746  23488098.348    23488104.101
  21462862.425   -23964251.66649 -18644575.64247  21462861.660    21462867.112
 04  2 25  0 38  0.0000000  0  9G29G18G 3G21G22G 6G26G16G15
  24480055.399    -7338891.15249  -5706032.34345  24480055.221    24480060.996
  20355989.458   -26942490.84349 -20979724.95148  20355988.932    20355992.427
  23242050.812    -9669195.07549  -7510649.13546  23242050.443    23242056.835
  20618772.240   -29122630.97249 -22414837.65648  20618771.621    20618774.724
  21353304.481   -23684076.69749 -18440331.74747  21353304.185    21353306.974
  22786477.236   -14394035.53049 -10992601.37546  22786476.980    22786483.022
  22762634.814   -11573312.72849  -8997009.89946  22762634.765    22762639.944
  23496976.647    -9620713.87649  -7485204.11446  23496976.092    23496982.080
  21451852.256   -24022110.47249 -18689660.38047  21451851.512    21451856.920
 04  2 25  0 38 30.0000000  0  9G29G18G 3G21G22G 6G26G16G15
  24495987.171    -7255169.24049  -5640794.47545  24495986.941    24495992.736
  20357516.623   -26934465.36749 -20973471.32048  20357516.105    20357519.613
  23225653.919    -9755361.12349  -7577791.42346  23225653.515    23225659.882
  20621222.717   -29109753.46849 -22404803.23348  20621222.095    20621225.214
  21343434.970   -23735941.23349 -18480745.62647  21343434.668    21343437.444
  22805260.351   -14295330.09649 -10915688.09546  22805260.067    22805266.088
  22776324.346   -11501373.32949  -8940953.23346  22776324.349    22776329.555
  23505927.381    -9573677.14449  -7448552.13046  23505926.935    23505933.063
  21440869.215   -24079826.59949 -18734633.93947  21440868.466    21440873.849
 04  2 25  0 39  0.0000000  0  9G29G18G 3G21G22G 6G26G16G15
  24511979.058    -7171131.21149  -5575310.29845  24511978.870    24511984.604
  20359118.098   -26926049.35449 -20966913.37448  20359117.586    20359121.091
  23209312.587    -9841235.31049  -7644706.29846  23209312.137    23209318.446
  20623721.616   -29096621.72049 -22394570.69548  20623720.995    20623724.096
  21333635.352   -23787438.04349 -18520872.95947  21333635.082    21333637.818
  22824090.216   -14196378.52449 -10838583.01846  22824089.952    22824095.984
  22790112.167   -11428917.66649  -8884494.26646  22790112.184    22790117.410
  23514950.763    -9526260.14649  -7411603.84046  23514950.199    23514956.278
  21429913.114   -24137400.98349 -18779497.04947  21429912.371    21429917.731
 04  2 25  0 39 30.0000000  0  9G29G18G 3G21G22G 6G26G16G15
  24528030.555    -7086779.94049  -5509582.03645  24528030.488    24528036.285
  20360793.557   -26917244.55349 -20960052.47948  20360793.066    20360796.565
  23193027.112    -9926815.45149  -7711392.03646  23193026.672    23193033.024
  20626268.894   -29083235.56849 -22384139.91548  20626268.262    20626271.366
  21323905.796   -23838567.37349 -18560713.94347  21323905.497    21323908.186
  22842966.444   -14097183.34149 -10761288.10546  22842966.194    22842972.282
  22803997.693   -11355948.90449  -8827635.47946  22803997.711    22804002.854
  23524045.373    -9478466.08149  -7374361.72245  23524044.833    23524050.940
  21418984.104   -24194833.24949 -18824249.42147  21418983.337    21418988.693
 04  2 25  0 40  0.0000000  0  9G29G18G 3G21G22G 6G26G16G15
  24544141.601    -7002115.79949  -5443610.01645  24544141.484    24544147.381
  20362543.295   -26908049.70049 -20952887.64348  20362542.775    20362546.288
  23176798.501   -10012096.82949  -7777844.96046  23176798.116    23176804.531
  20628865.129   -29069592.10749 -22373508.63848  20628864.504    20628867.645
  21314246.486   -23889327.16949 -18600266.97947  21314246.185    21314248.877
  22861888.928   -13997744.52149 -10683803.34046  22861888.753    22861894.841
  22817980.759   -11282467.36049  -8770377.11846  22817980.740    22817985.907
  23533211.860    -9430295.05149  -7336825.87946  23533211.516    23533217.451
  21408082.661   -24252120.42549 -18868888.73447  21408081.903    21408087.252
 04  2 25  0 40 30.0000000  0  9G29G18G 3G21G22G 6G26G16G15
  24560311.449    -6917142.35349  -5377396.95045  24560311.440    24560317.209
  20364366.671   -26898467.68749 -20945421.12848  20364366.153    20364369.651
  23160627.052   -10097078.24049  -7844064.17546  23160626.662    23160632.998
  20631510.248   -29055691.87449 -22362677.28148  20631509.633    20631512.786
  21304657.269   -23939718.30049 -18639532.74147  21304657.013    21304659.741
  22880857.235   -13898065.77349 -10606131.63446  22880857.082    22880863.064
  22832060.632   -11208476.88549  -8712722.20146  22832060.623    22832065.897
  23542449.937    -9381750.87449  -7298999.26246  23542449.421    23542455.308
  21397208.809   -24309262.75449 -18913415.18247  21397208.041    21397213.375
 04  2 25  0 41  0.0000000  0  9G29G18G 3G21G22G 6G26G16G15
  24576539.860    -6831861.99349  -5310944.73445  24576539.786    24576545.512
  20366263.522   -26888499.77549 -20937653.90748  20366263.000    20366266.461
  23144513.104   -10181757.01849  -7910047.57046  23144512.727    23144518.989
  20634204.309   -29041534.37749 -22351645.46448  20634203.678    20634206.850
  21295138.296   -23989740.59249 -18678511.09847  21295138.043    21295140.774
  22899871.081   -13798148.19149 -10528273.80546  22899870.779    22899876.711
  22846236.923   -11133979.93349  -8654672.64146  22846236.929    22846242.102
  23551757.904    -9332836.07149  -7260883.83346  23551757.418    23551763.561
  21386362.638   -24366259.29949 -18957828.03147  21386361.880    21386367.224
 04  2 25  0 41 30.0000000  0  9G29G18G 3G21G22G 6G26G16G15
  24592825.934    -6746278.38449  -5244256.20245  24592825.752    24592831.567
  20368233.340   -26878148.05949 -20929587.61848  20368232.856    20368236.292
  23128457.107   -10266131.70049  -7975794.01746  23128456.723    23128462.885
  20636947.310   -29027119.86049 -22340413.36948  20636946.669    20636949.837
  21285689.367   -24039394.98449 -18717202.77847  21285689.104    21285691.789
  22918929.383   -13697995.91549 -10450233.09946  22918929.136    22918935.104
  22860508.918   -11058980.21049  -8596231.29046  22860508.959    22860514.057
  23561135.626    -9283554.36549  -7222482.52046  23561135.225    23561141.459
  21375544.198   -24423110.45049 -19002127.58747  21375543.429    21375548.772
 04  2 25  0 42  0.0000000  0  9G29G18G 3G21G22G 6G26G16G15
  24609169.149    -6660393.57949  -5177332.96245  24609169.017    24609174.994
  20370276.010   -26867413.60049 -20921223.08948  20370275.522    20370278.997
  23112459.441   -10350199.59249  -8041301.38146  23112459.088    23112465.242
  20639739.276   -29012447.66749 -22328980.47848  20639738.666    20639741.846
  21276310.423   -24088681.39449 -18755607.71547  21276310.147    21276312.809
  22938032.072   -13597610.93549 -10372011.07646  22938031.811    22938037.820
  22874876.049   -10983480.11949  -8537400.06746  22874876.053    22874881.285
  23570583.412    -9233907.92949  -7183797.00246  23570582.875    23570588.796
  21364753.633   -24479815.11549 -19046312.98847  21364752.879    21364758.184
 04  2 25  0 42 30.0000000  0  9G29G18G 3G21G22G 6G26G16G15
  24625569.476    -6574209.57549  -5110176.57745  24625569.133    24625575.196
  20372391.470   -26856296.80749 -20912560.63948  20372390.977    20372394.456
  23096520.849   -10433957.40549  -8106567.12346  23096520.502    23096526.623
  20642580.569   -28997516.48149 -22317345.77948  20642579.949    20642583.150
  21267001.667   -24137598.87949 -18793725.19047  21267001.411    21267004.118
  22957178.916   -13496994.41849 -10293608.62446  22957178.547    22957184.514
  22889338.061   -10907481.47449  -8478180.36946  22889338.061    22889343.406
  23580099.908    -9183898.65949  -7144828.74346  23580099.268    23580105.373
  21353991.339   -24536371.57649 -19090382.91747  21353990.560    21353995.802
 04  2 25  0 43  0.0000000  0  9G29G18G 3G21G22G 6G26G16G15
  24642026.474    -6487727.10449  -5042787.65945  24642026.270    24642032.221
  20374579.654   -26844797.79949 -20903600.35348  20374579.142    20374582.629
  23080642.033   -10517401.33549  -8171588.29046  23080641.624    23080647.739
  20645471.555   -28982324.16549 -22305507.60748  20645470.948    20645474.123
  21257763.452   -24186145.91049 -18831553.99847  21257763.207    21257765.925
  22976369.640   -13396146.43149 -10215025.81846  22976369.350    22976375.341
  22903894.895   -10830985.45949  -8418573.07146  22903894.863    22903900.110
  23589684.890    -9133527.51049  -7105578.50145  23589684.412    23589690.739
  21343257.618   -24592777.26449 -19134335.35347  21343256.841    21343262.111
 04  2 25  0 43 30.0000000  0  9G29G18G 3G21G22G 6G26G16G15
  24658539.084    -6400951.91949  -4975170.65745  24658538.859    24658544.896
  20376839.736   -26832920.76449 -20894345.50648  20376839.248    20376842.739
  23064822.691   -10600532.27149  -8236365.55846  23064822.306    23064828.375
  20648411.801   -28966873.34949 -22293468.00948  20648411.172    20648414.325
  21248595.130   -24234325.58349 -18869096.55247  21248594.894    21248597.569
  22995603.354   -13295072.91149 -10136267.28046  22995603.075    22995608.995
  22918545.191   -10753997.90949  -8358582.77546  22918545.131    22918550.299
  23599338.098    -9082800.56649  -7066051.05045  23599337.637    23599343.664
  21332552.207   -24649034.45249 -19178172.08047  21332551.422    21332556.689
 04  2 25  0 44  0.0000000  0  9G29G18G 3G21G22G 6G26G16G15
  24675107.475    -6313884.29449  -4907325.77245  24675107.328    24675113.472
  20379172.024   -26820664.52849 -20884795.17148  20379171.523    20379175.039
  23049063.857   -10683345.21849  -8300895.05146  23049063.475    23049069.466
  20651401.700   -28951161.31949 -22281224.85648  20651401.043    20651404.225
  21239497.205   -24282135.65549 -18906351.10047  21239496.952    21239499.554
  23014880.018   -13193773.97049 -10057333.09146  23014879.680    23014885.516
  22933288.822   -10676519.35749  -8298209.89046  22933288.785    22933293.970
  23609058.957    -9031718.03749  -7026246.48645  23609058.449    23609064.313
  21321875.566   -24705140.19449 -19221890.79147  21321874.783    21321880.111
 04  2 25  0 44 30.0000000  0  9G29G18G 3G21G22G 6G26G16G15
  24691730.912    -6226528.30349  -4839256.16345  24691730.790    24691736.764
  20381575.941   -26808032.03649 -20874951.65448  20381575.419    20381578.893
  23033365.667   -10765839.63149  -8365176.34946  23033365.304    23033371.155
  20654441.135   -28935188.87749 -22268778.78548  20654440.488    20654443.685
  21230469.288   -24329577.56749 -18943318.77747  21230469.022    21230471.584
  23034198.701   -13092253.46549  -9978226.25546  23034198.396    23034204.250
  22948125.149   -10598553.99949  -8237457.68946  22948125.084    22948130.360
  23618846.329    -8980283.99849  -6986168.01745  23618845.933    23618852.004
  21311227.610   -24761095.24249 -19265492.08747  21311226.855    21311232.194
 04  2 25  0 45  0.0000000  0  9G29G18G 3G21G22G 6G26G16G15
  24708409.150    -6138883.72349  -4770961.69945  24708409.064    24708415.024
  20384051.625   -26795022.11349 -20864814.03148  20384051.095    20384054.577
  23017729.111   -10848010.32649  -8429205.37546  23017728.658    23017734.491
  20657530.756   -28918952.71549 -22256127.20948  20657530.129    20657533.313
  21221511.893   -24376648.81749 -18979997.62247  21221511.633    21221514.181
  23053559.573   -12990511.08049  -9898946.51346  23053559.263    23053565.201
  22963054.013   -10520101.89549  -8176326.21446  22963054.019    22963059.247
  23628700.873    -8928498.56549  -6945815.73645  23628700.491    23628706.504
  21300609.029   -24816896.15649 -19308973.27347  21300608.256    21300613.613
 04  2 25  0 45 30.0000000  0  9G29G18G 3G21G22G 6G26G16G15
  24725141.263    -6050956.36849  -4702446.87645  24725141.111    24725146.970
  20386598.219   -26781639.56849 -20854386.05648  20386597.712    20386601.159
  23002154.018   -10929858.01749  -8492982.71246  23002153.520    23002159.370
  20660670.054   -28902455.55549 -22243272.26848  20660669.416    20660672.617
  21212624.397   -24423352.80649 -19016390.29147  21212624.116    21212626.664
  23072961.697   -12888551.96249  -9819497.89846  23072961.431    23072967.478
  22978074.412   -10441169.17049  -8114820.18846  22978074.400    22978079.587
  23638621.213    -8876367.99249  -6905194.54245  23638620.714    23638626.476
  21290019.277   -24872545.22549 -19352336.14247  21290018.517    21290023.889
 04  2 25  0 46  0.0000000  0  9G29G18G 3G21G22G 6G26G16G15
  24741927.033    -5962746.36749  -4633711.82545  24741926.871    24741932.692
  20389215.985   -26767883.14849 -20843666.74848  20389215.480    20389218.909
  22986641.317   -11011377.73449  -8556504.49446  22986640.870    22986646.597
  20663859.540   -28885694.72849 -22230211.87148  20663858.898    20663862.099
  21203807.219   -24469687.13849 -19052494.92047  21203806.930    21203809.460
  23092405.128   -12786376.39249  -9739880.62246  23092404.841    23092410.944
  22993186.317   -10361756.09549  -8052939.86946  22993186.268    22993191.493
  23648606.728    -8823892.16149  -6864304.27145  23648606.272    23648612.187
  21279459.178   -24928038.89349 -19395577.92247  21279458.398    21279463.776
 04  2 25  0 46 30.0000000  0  9G29G18G 3G21G22G 6G26G16G15
  24758765.966    -5874257.06449  -4564759.14045  24758765.734    24758771.625
  20391904.405   -26753755.04149 -20832657.82548  20391903.909    20391907.357
  22971191.196   -11092568.24949  -8619769.76746  22971190.746    22971196.448
  20667099.142   -28868670.23349 -22216946.01548  20667098.516    20667101.755
  21195060.247   -24515652.55149 -19088312.07947  21195059.965    21195062.446
  23111889.204   -12683987.16749  -9660096.85846  23111888.862    23111895.098
  23008388.948   -10281866.24249  -7990688.06046  23008388.904    23008394.138
  23658657.669    -8771074.71549  -6823147.82145  23658657.222    23658663.216
  21268928.549   -24983377.48649 -19438698.86747  21268927.778    21268933.099
 04  2 25  0 47  0.0000000  0  9G29G18G 3G21G22G 6G26G16G15
  24775657.118    -5785493.10349  -4495592.40845  24775656.770    24775662.818
  20394662.961   -26739258.53949 -20821361.83348  20394662.489    20394665.922
  22955803.882   -11173428.98949  -8682778.04146  22955803.448    22955809.107
  20670388.643   -28851383.65349 -22203475.92848  20670388.038    20670391.254
  21186383.069   -24561251.14449 -19123843.39847  21186382.792    21186385.276
  23131413.104   -12581388.14549  -9580149.61546  23131412.836    23131419.114
  23023681.218   -10201504.45549  -7928068.49246  23023681.257    23023686.467
  23668773.182    -8717920.32349  -6781728.83545  23668772.510    23668778.347
  21258427.277   -25038561.94249 -19481699.69847  21258426.498    21258431.804
 04  2 25  0 47 30.0000000  0  9G29G18G 3G21G22G 6G26G16G15
  24792601.058    -5696452.43549  -4426210.07845  24792600.719    24792606.799
  20397492.294   -26724390.53749 -20809776.36248  20397491.810    20397495.207
  22940480.583   -11253953.09449  -8745524.03646  22940480.176    22940485.715
  20673729.083   -28833829.80249 -22189797.58448  20673728.446    20673731.628
  21177776.557   -24606478.58549 -19159085.51747  21177776.271    21177778.806
  23150977.223   -12478577.72549  -9500037.65046  23150977.042    23150983.344
  23039063.729   -10120669.05449  -7865079.86446  23039063.718    23039068.863
  23678952.394    -8664427.26349  -6740045.92045  23678951.714    23678957.633
  21247956.410   -25093586.77749 -19524576.16147  21247955.636    21247960.873
 04  2 25  0 48  0.0000000  0  9G29G18G 3G21G22G 6G26G16G15
  24809596.580    -5607140.64549  -4356616.43545  24809596.164    24809602.126
  20400391.474   -26709155.40849 -20797904.81848  20400390.943    20400394.339
  22925221.285   -11334141.11349  -8808008.14346  22925220.880    22925226.325
  20677119.815   -28816011.24949 -22175912.97848  20677119.198    20677122.319
  21169240.057   -24651338.00249 -19194040.86147  21169239.780    21169242.300
  23170580.725   -12375560.95049  -9419764.90846  23170580.492    23170586.820
  23054535.197   -10039365.92849  -7801726.78646  23054535.187    23054540.360
  23689194.608    -8610601.51449  -6698103.78845  23689194.083    23689199.923
  21237515.436   -25148454.22249 -19567329.97447  21237514.665    21237519.919
 04  2 25  0 48 30.0000000  0  9G29G18G 3G21G22G 6G26G16G15
  24826643.199    -5517559.97249  -4286813.31045  24826642.933    24826648.834
  20403360.273   -26693554.11449 -20785747.94448  20403359.738    20403363.135
  22910026.376   -11413990.44949  -8870228.33146  22910026.029    22910031.440
  20680561.126   -28797926.97849 -22161821.32048  20680560.496    20680563.628
  21160773.574   -24695829.14549 -19228709.24147  21160773.312    21160775.847
  23190223.095   -12272340.18149  -9339333.17846  23190222.783    23190229.139
  23070095.224    -9957597.46649  -7738011.11346  23070095.185    23070100.411
  23699500.580    -8556445.10549  -6655904.01045  23699500.046    23699505.505
  21227104.681   -25203163.20249 -19609960.31147  21227103.902    21227109.107
 04  2 25  0 49  0.0000000  0  9G29G18G 3G21G22G 6G26G16G15
  24843740.559    -5427713.33049  -4216802.92945  24843740.366    24843746.087
  20406398.377   -26677588.71949 -20773307.35448  20406397.845    20406401.236
  22894896.355   -11493499.10049  -8932183.05346  22894895.983    22894901.381
  20684053.044   -28779576.70649 -22147522.39148  20684052.429    20684055.568
  21152377.104   -24739952.63349 -19263091.13347  21152376.844    21152379.380
  23209903.643   -12168917.92449  -9258744.45546  23209903.368    23209909.798
  23085743.142    -9875366.98849  -7673935.41446  23085743.132    23085748.402
  23709868.977    -8501961.24249  -6613449.06245  23709868.200    23709873.710
  21216724.150   -25257713.03649 -19652466.63347  21216723.368    21216728.563
 04  2 25  0 49 30.0000000  0  8G18G 3G21G22G 6G26G16G15
  20409506.001   -26661258.02649 -20760582.12248  20409505.453    20409508.826
  22879832.024   -11572662.28349  -8993868.58546  22879831.623    22879837.004
  20687596.138   -28760957.50749 -22133013.90948  20687595.516    20687598.661
  21144051.063   -24783706.18449 -19297184.76547  21144050.788    21144053.299
  23229622.474   -12065293.91049  -9177998.52346  23229622.337    23229628.788
  23101478.981    -9792674.84449  -7609499.96146  23101478.969    23101484.122
  23720298.654    -8447150.67649  -6570739.50845  23720298.000    23720303.986
  21206374.552   -25312100.42549 -19694846.38147  21206373.783    21206378.951
 04  2 25  0 50  0.0000000  0  9G14G18G 3G21G22G 6G26G16G15
  24658058.433    -4103360.24749  -3177830.90345  24658057.462    24658064.231
  20412681.331   -26644571.26249 -20747579.42948  20412680.795    20412684.189
  22864832.362   -11651485.59349  -9055289.27946  22864831.986    22864837.321
  20691188.948   -28742077.15549 -22118301.93548  20691188.318    20691191.465
  21135793.890   -24827097.82649 -19330996.38847  21135793.605    21135796.117
  23249378.224   -11961478.30149  -9097103.28446  23249377.920    23249384.221
  23117300.478    -9709531.89649  -7544713.25146  23117300.476    23117305.596
  23730788.564    -8392023.74349  -6527783.45845  23730788.157    23730794.053
  21196054.583   -25366332.20749 -19737104.87247  21196053.777    21196058.954
 04  2 25  0 50 30.0000000  0  9G14G18G 3G21G22G 6G26G16G15
  24636438.950    -4216971.21349  -3266358.69345  24636437.810    24636444.607
  20415925.545   -26627522.74549 -20734294.85248  20415925.029    20415928.426
  22849899.293   -11729959.06649  -9116437.37146  22849898.924    22849904.279
  20694832.977   -28722927.48749 -22103380.10748  20694832.366    20694835.486
  21127606.910   -24870120.31049 -19364520.35347  21127606.622    21127609.147
  23269171.248   -11857466.15249  -9016054.89946  23269170.808    23269177.157
  23133208.724    -9625933.48749  -7479571.64546  23133208.713    23133213.887
  23741340.091    -8336575.90249  -6484577.37645  23741339.622    23741345.256
  21185765.760   -25420400.07549 -19779235.63647  21185764.960    21185770.160
 04  2 25  0 51  0.0000000  0  9G14G18G 3G21G22G 6G26G16G15
  24614818.985    -4330583.73249  -3354887.73345  24614817.827    24614824.670
  20419238.652   -26610112.21749 -20720728.18548  20419238.126    20419241.515
  22835033.484   -11808079.03449  -9177309.99346  22835033.106    22835038.546
  20698528.728   -28703506.28149 -22088246.69148  20698528.097    20698531.224
  21119490.469   -24912772.10949 -19397755.47347  21119490.211    21119492.694
  23289001.268   -11753258.18449  -8934853.94846  23289000.920    23289007.375
  23149203.357    -9541881.05349  -7414076.23146  23149203.360    23149208.563
  23751952.519    -8280808.40549  -6441122.18445  23751951.976    23751957.493
  21175508.628   -25474301.57649 -19821236.76847  21175507.861    21175513.033
 04  2 25  0 51 30.0000000  0  9G14G18G 3G21G22G 6G26G16G15
  24593198.907    -4444195.81049  -3443416.43745  24593198.004    24593204.851
  20422620.312   -26592341.33149 -20706880.72048  20422619.795    20422623.179
  22820235.487   -11885843.19249  -9237905.37546  22820235.060    22820240.489
  20702276.142   -28683813.36849 -22072901.55948  20702275.513    20702278.633
  21111444.542   -24955053.86349 -19430702.24347  21111444.271    21111446.708
  23308868.187   -11648856.53249  -8853502.03746  23308867.976    23308874.389
  23165283.702    -9457377.78449  -7348229.53145  23165283.738    23165288.938
  23762624.902    -8224724.37549  -6397420.34145  23762624.327    23762630.010
  21165283.223   -25528036.13449 -19863107.81147  21165282.440    21165287.626
 04  2 25  0 52  0.0000000  0  9G14G18G 3G21G22G 6G26G16G15
  24571578.723    -4557808.62249  -3531945.69945  24571578.001    24571584.959
  20426069.596   -26574215.24749 -20692756.48148  20426069.087    20426072.441
  22805504.849   -11963252.93549  -9298224.58946  22805504.388    22805509.864
  20706074.664   -28663851.96449 -22057347.21148  20706074.033    20706077.158
  21103468.195   -24996969.56149 -19463363.77747  21103467.913    21103470.383
  23328770.799   -11544267.88549  -8772004.44545  23328770.518    23328776.999
  23181448.668    -9372430.42249  -7282036.76745  23181448.717    23181453.893
  23773356.506    -8168330.42549  -6353477.01845  23773355.908    23773361.347
  21155089.086   -25581606.47749 -19904850.89947  21155088.317    21155093.509
 04  2 25  0 52 30.0000000  0  9G14G18G 3G21G22G 6G26G16G15
  24549959.458    -4671417.78349  -3620472.11545  24549958.597    24549965.813
  20429586.517   -26555733.48649 -20678355.09048  20429586.022    20429589.374
  22790842.320   -12040304.29549  -9358264.53546  22790841.969    22790847.416
  20709924.733   -28643619.66949 -22041581.78048  20709924.108    20709927.225
  21095561.840   -25038517.28849 -19495738.57747  21095561.617    21095564.047
  23348708.971   -11439492.84149  -8690361.60445  23348708.595    23348715.150
  23197697.932    -9287039.96949  -7215498.74446  23197697.978    23197703.135
  23784146.684    -8111627.34249  -6309292.80145  23784146.020    23784151.590
  21144926.734   -25635009.74049 -19946463.79447  21144925.953    21144931.201
 04  2 25  0 53  0.0000000  0  9G14G18G 3G21G22G 6G26G16G15
  24528341.814    -4785019.88949  -3708993.03745  24528340.983    24528347.971
  20433171.007   -26536896.59349 -20663676.97548  20433170.540    20433173.878
  22776248.790   -12116993.70849  -9418022.45446  22776248.412    22776253.804
  20713826.619   -28623115.15549 -22025604.22748  20713825.987    20713829.099
  21087725.712   -25079696.74549 -19527826.40347  21087725.422    21087727.769
  23368682.312   -11334532.73949  -8608574.54445  23368681.918    23368688.417
  23214031.159    -9201208.51649  -7148617.10346  23214031.210    23214036.281
  23794994.946    -8054617.34649  -6264869.42445  23794994.468    23795000.345
  21134796.491   -25688244.13849 -19987945.10847  21134795.735    21134800.927
 04  2 25  0 53 30.0000000  0  9G14G18G 3G21G22G 6G26G16G15
  24506725.795    -4898614.68149  -3797508.25045  24506724.638    24506731.481
  20436822.394   -26517708.34949 -20648725.08348  20436821.923    20436825.288
  22761724.049   -12193321.33049  -9477498.45446  22761723.627    22761729.050
  20717779.954   -28602340.21649 -22009415.96048  20717779.340    20717782.468
  21079959.034   -25120510.52949 -19559629.30047  21079958.748    21079961.101
  23388689.829   -11229392.09249  -8526646.80545  23388689.567    23388696.015
  23230447.281    -9114941.45649  -7081396.01945  23230447.296    23230452.430
  23805901.471    -7997305.50649  -6220210.87845  23805900.887    23805906.530
  21124698.161   -25741311.11949 -20029295.96647  21124697.386    21124702.641
 04  2 25  0 54  0.0000000  0  9G14G18G 3G21G22G 6G26G16G15
  24485111.890    -5012197.71149  -3886014.31845  24485110.620    24485117.297
  20440540.609   -26498168.73449 -20633499.39548  20440540.168    20440543.520
  22747268.923   -12269283.17549  -9536689.42346  22747268.514    22747274.003
  20721785.224   -28581292.37149 -21993015.03448  20721784.607    20721787.745
  21072262.239   -25160956.98149 -19591145.96347  21072261.977    21072264.370
  23408731.668   -11124071.55549  -8444578.89345  23408731.413    23408737.802
  23246946.109    -9028239.70349  -7013836.19545  23246946.163    23246951.213
  23816865.103    -7939692.82849  -6175317.90945  23816864.388    23816869.919
  21114632.203   -25794208.02949 -20070514.30447  21114631.435    21114636.627
 04  2 25  0 54 30.0000000  0  9G14G18G 3G21G22G 6G26G16G15
  24463500.641    -5125765.72349  -3974508.66045  24463499.163    24463505.838
  20444325.603   -26478278.39749 -20618000.42148  20444325.158    20444328.518
  22732884.057   -12344876.01049  -9595592.88146  22732883.632    22732889.061
  20725842.653   -28559970.41849 -21976400.52648  20725842.028    20725845.172
  21064635.622   -25201035.48049 -19622375.90247  21064635.336    21064637.665
  23428807.602   -11018572.82649  -8362372.12945  23428807.274    23428813.612
  23263527.194    -8941105.45549  -6945939.38645  23263527.225    23263532.326
  23827884.823    -7881781.57449  -6130192.26545  23827884.250    23827889.928
  21104599.002   -25846932.96949 -20111598.64447  21104598.241    21104603.386
 04  2 25  0 55  0.0000000  0  9G14G18G 3G21G22G 6G26G16G15
  24441891.722    -5239320.23649  -4062992.47745  24441890.172    24441896.799
  20448176.388   -26458042.54849 -20602232.22448  20448175.912    20448179.269
  22718568.997   -12420101.59849  -9654210.16046  22718568.573    22718574.027
  20729951.551   -28538377.68649 -21959575.01748  20729950.924    20729954.089
  21057078.048   -25240750.43849 -19653322.56847  21057077.739    21057080.051
  23448916.086   -10912902.16949  -8280031.40845  23448915.763    23448922.146
  23280189.135    -8853545.90249  -6877711.20045  23280189.250    23280194.423
  23838960.046    -7823578.34849  -6084839.10845  23838959.612    23838965.723
  21094597.966   -25899488.82549 -20152551.22047  21094597.184    21094602.322
 04  2 25  0 55 30.0000000  0  9G14G18G 3G21G22G 6G26G16G15
  24420286.925    -5352852.64949  -4151459.08145  24420285.429    24420292.193
  20452093.778   -26437456.70149 -20586191.29848  20452093.280    20452096.613
  22704325.382   -12494951.95749  -9712535.04746  22704324.983    22704330.432
  20734113.148   -28516508.21949 -21942533.87148  20734112.533    20734115.696
  21049590.682   -25280096.30449 -19683981.63347  21049590.422    21049592.719
  23469057.898   -10807055.71849  -8197553.70345  23469057.680    23469064.032
  23296932.661    -8765558.09449  -6809149.28645  23296932.719    23296937.994
  23850091.970    -7765080.40049  -6039256.31345  23850091.484    23850097.825
  21084630.332   -25951868.85549 -20193366.80047  21084629.565    21084634.659
 04  2 25  0 56  0.0000000  0  9G14G18G 3G21G22G 6G26G16G15
  24398685.960    -5466364.57649  -4239909.71445  24398684.633    24398691.355
  20456076.661   -26416526.58249 -20569882.09648  20456076.153    20456079.459
  22690152.864   -12569428.79349  -9770568.88446  22690152.474    22690157.928
  20738326.842   -28494365.14049 -21925279.52048  20738326.226    20738329.354
  21042172.818   -25319077.57049 -19714356.58948  21042172.537    21042174.807
  23489231.842   -10701040.46649  -8114944.44045  23489231.733    23489238.110
  23313756.328    -8677149.19549  -6740259.23845  23313756.382    23313761.610
  23861279.009    -7706294.64549  -5993449.24645  23861278.231    23861284.492
  21074695.556   -26004076.40149 -20234047.96547  21074694.763    21074699.905
 04  2 25  0 56 30.0000000  0  9G14G18G 3G21G22G 6G26G16G15
  24377089.924    -5579850.75449  -4328340.29445  24377088.783    24377095.340
  20460125.213   -26395251.22449 -20553303.88148  20460124.700    20460128.011
  22676052.369   -12643527.34849  -9828307.96246  22676051.956    22676057.396
  20742593.111   -28471945.65449 -21907809.78348  20742592.492    20742595.637
  21034824.674   -25357692.02049 -19744445.72848  21034824.394    21034826.697
  23509437.973   -10594856.21549  -8032203.51145  23509438.004    23509444.362
  23330660.031    -8588319.56349  -6671041.33345  23330660.001    23330665.149
  23872519.901    -7647221.62249  -5947418.30545  23872519.269    23872525.546
  21064794.243   -26056107.77049 -20274591.85947  21064793.487    21064798.600
 04  2 25  0 57  0.0000000  0  9G14G18G 3G21G22G 6G26G16G15
  24355498.739    -5693311.95949  -4416751.41645  24355497.640    24355504.113
  20464238.535   -26373635.38249 -20536460.35348  20464238.033    20464241.388
  22662023.636   -12717248.58349  -9885753.02746  22662023.228    22662028.652
  20746911.518   -28449252.16249 -21890126.53348  20746910.912    20746914.058
  21027545.611   -25395943.05549 -19774251.68148  21027545.363    21027547.681
  23529675.318   -10488508.60249  -7949335.30945  23529675.355    23529681.663
  23347642.657    -8499075.35949  -6601500.39845  23347642.643    23347647.803
  23883814.631    -7587867.43149  -5901168.30845  23883814.109    23883820.223
  21054926.118   -26107965.19649 -20315000.20647  21054925.289    21054930.418
 04  2 25  0 57 30.0000000  0  9G14G18G 3G21G22G 6G26G16G15
  24333913.152    -5806743.22649  -4505139.22145  24333912.144    24333918.574
  20468416.819   -26351678.03249 -20519350.71948  20468416.350    20468419.682
  22648067.581   -12790587.64949  -9942900.29846  22648067.190    22648072.656
  20751282.656   -28426281.87249 -21872227.60448  20751282.056    20751285.181
  21020336.265   -25433828.47549 -19803772.74348  21020336.004    21020338.278
  23549944.060   -10381997.10449  -7866339.38445  23549943.913    23549950.196
  23364704.061    -8409417.26749  -6531636.95045  23364704.041    23364709.309
  23895163.059    -7528232.07449  -5854699.21245  23895162.503    23895168.487
  21045091.649   -26159645.17849 -20355270.28847  21045090.887    21045096.004
 04  2 25  0 58  0.0000000  0  9G14G18G 3G21G22G 6G26G16G15
  24312333.774    -5920141.45149  -4593501.27145  24312332.873    24312339.376
  20472659.974   -26329380.23349 -20501975.79548  20472659.493    20472662.788
  22634184.747   -12863541.90649  -9999747.71746  22634184.340    22634189.825
  20755706.576   -28403033.94349 -21854112.33047  20755705.974    20755709.075
  21013196.483   -25471348.40449 -19833009.01448  21013196.217    21013198.505
  23570243.573   -10275323.90449  -7783217.45345  23570243.131    23570249.402
  23381843.703    -8319348.00649  -6461453.13146  23381843.686    23381848.951
  23906564.216    -7468318.54049  -5808013.33945  23906563.681    23906569.670
  21035291.334   -26211146.33449 -20395401.02247  21035290.521    21035295.618
 04  2 25  0 58 30.0000000  0  9G14G18G 3G21G22G 6G26G16G15
  24290760.881    -6033506.08549  -4681837.15745  24290760.147    24290766.587
  20476967.180   -26306745.59549 -20484338.39448  20476966.681    20476969.961
  22620375.216   -12936111.02049 -10056295.01946  22620374.791    22620380.347
  20760183.036   -28379510.06149 -21835782.02347  20760182.435    20760185.524
  21006125.687   -25508505.18149 -19861962.30848  21006125.442    21006127.740
  23590572.723   -10168493.68549  -7699973.17645  23590572.277    23590578.566
  23399060.629    -8228872.46049  -6390952.72845  23399060.618    23399065.891
  23918017.203    -7408131.66949  -5761114.47945  23918016.771    23918022.800
  21025524.757   -26262469.75149 -20435393.26047  21025523.963    21025529.043
 04  2 25  0 59  0.0000000  0  9G14G18G 3G21G22G 6G26G16G15
  24269195.592    -6146831.09049  -4770142.17345  24269195.006    24269201.390
  20481338.913   -26283771.88649 -20466436.79048  20481338.434    20481341.716
  22606640.099   -13008289.25049 -10112537.75046  22606639.709    22606645.211
  20764712.779   -28355705.86849 -21817233.29147  20764712.169    20764715.283
  20999124.726   -25545295.56149 -19890630.10148  20999124.478    20999126.700
  23610931.901   -10061505.15049  -7616605.54645  23610931.512    23610937.942
  23416354.959    -8137990.29249  -6320135.47445  23416354.925    23416360.216
  23929522.630    -7347670.95449  -5714002.25745  23929522.206    23929527.919
  21015792.893   -26313610.80449 -20475243.39547  21015792.110    21015797.161
 04  2 25  0 59 30.0000000  0  9G14G18G 3G21G22G 6G26G16G15
  24247637.847    -6260117.60449  -4858417.20245  24247637.150    24247643.455
  20485774.251   -26260464.36949 -20448275.07248  20485773.734    20485776.994
  22592979.164   -13080077.99949 -10168476.97646  22592978.716    22592984.210
  20769295.261   -28331624.63649 -21798468.68247  20769294.666    20769297.791
  20992192.720   -25581723.70449 -19919015.63248  20992192.448    20992194.616
  23631320.255    -9954363.98249  -7533118.97446  23631319.908    23631326.364
  23433725.395    -8046708.15549  -6249006.54845  23433725.349    23433730.599
  23941078.867    -7286942.98149  -5666681.78645  23941078.347    23941084.135
  21006095.258   -26364572.14549 -20514953.49547  21006094.483    21006099.530
 04  2 25  1  0  0.0000000  0  9G14G18G 3G21G22G 6G26G16G15
  24226088.125    -6373361.96949  -4946659.40345  24226087.408    24226093.627
  20490272.877   -26236823.87949 -20429853.89048  20490272.360    20490275.607
  22579392.807   -13151474.29449 -10224110.39846  22579392.402    22579397.845
  20773930.757   -28307264.81249 -21779486.98147  20773930.158    20773933.332
  20985329.665   -25617789.11549 -19947118.51348  20985329.369    20985331.592
  23651737.217    -9847072.17749  -7449515.02145  23651736.943    23651743.443
  23451171.512    -7955028.16449  -6177567.59945  23451171.512    23451176.645
  23952685.242    -7225949.79749  -5619154.63545  23952684.752    23952690.951
  20996432.228   -26415351.71849 -20554521.95647  20996431.443    20996436.477
 04  2 25  1  0 30.0000000  0  9G14G18G 3G21G22G 6G26G16G15
  24204547.019    -6486560.17849  -5034865.62245  24204546.212    24204552.507
  20494834.819   -26212850.49549 -20411173.31448  20494834.302    20494837.565
  22565881.898   -13222474.65549 -10279435.30046  22565881.525    22565886.884
  20778619.620   -28282624.47549 -21760286.70547  20778619.041    20778622.210
  20978535.772   -25653490.88049 -19974938.04048  20978535.512    20978537.696
  23672182.606    -9739630.51949  -7365794.31845  23672182.399    23672188.968
  23468693.046    -7862952.06349  -6105819.98245  23468693.013    23468698.111
  23964342.126    -7164692.70449  -5571421.86445  23964341.660    23964347.907
  20986804.156   -26465947.26649 -20593947.02247  20986803.378    20986808.422
 04  2 25  1  1  0.0000000  0  9G14G18G 3G21G22G 6G26G16G15
  24183014.840    -6599711.05349  -5123034.96945  24183013.988    24183020.404
  20499459.658   -26188546.66049 -20392235.24148  20499459.150    20499462.392
  22552446.482   -13293077.91949 -10334450.76946  22552446.107    22552451.471
  20783361.715   -28257704.75449 -21740868.73047  20783361.128    20783364.284
  20971810.913   -25688830.49049 -20002475.36548  20971810.628    20971812.740
  23692655.948    -9632042.86649  -7281959.82345  23692655.775    23692662.324
  23486289.045    -7770484.29949  -6033767.20245  23486288.981    23486294.218
  23976048.545    -7103176.11949  -5523486.89445  23976048.007    23976053.942
  20977211.142   -26516358.93949 -20633228.81047  20977210.350    20977215.406
 04  2 25  1  1 30.0000000  0  9G14G18G 3G21G22G 6G26G16G15
  24161492.639    -6712808.91449  -5211163.01745  24161492.077    24161498.535
  20504147.578   -26163911.46649 -20373038.96148  20504147.064    20504150.315
  22539087.563   -13363279.07149 -10389152.89346  22539087.204    22539092.538
  20788157.640   -28232502.11149 -21721230.29047  20788157.058    20788160.171
  20965155.346   -25723805.52849 -20029728.60448  20965155.055    20965157.224
  23713157.217    -9524308.67749  -7198011.16145  23713156.953    23713163.506
  23503959.563    -7677624.93749  -5961409.26345  23503959.548    23503964.746
  23987804.104    -7041400.30049  -5475349.91145  23987803.529    23987809.347
  20967653.815   -26566582.88749 -20672364.31447  20967653.006    20967658.057
 04  2 25  1  2  0.0000000  0  9G14G18G 3G21G22G 6G26G16G15
  24139980.798    -6825853.59849  -5299249.62345  24139980.190    24139986.725
  20508897.872   -26138948.51149 -20353587.29248  20508897.356    20508900.588
  22525805.254   -13433078.18349 -10443541.76946  22525804.850    22525810.119
  20793007.016   -28207018.62149 -21701373.01047  20793006.411    20793009.492
  20958568.496   -25758419.13649 -20056700.21348  20958568.255    20958570.430
  23733685.295    -9416432.65749  -7113951.99745  23733685.032    23733691.621
  23521703.723    -7584379.49149  -5888750.48145  23521703.683    23521708.757
  23999607.861    -6979370.56849  -5427015.07945  23999607.248    23999613.436
  20958131.945   -26616620.42249 -20711354.56447  20958131.148    20958136.220
 04  2 25  1  2 30.0000000  0  9G14G18G 3G21G22G 6G26G16G15
  24118479.527    -6938843.82349  -5387293.79945  24118478.804    24118485.206
  20513709.977   -26113660.58049 -20333882.39548  20513709.464    20513712.695
  22512599.470   -13502474.42249 -10497616.69146  22512599.102    22512604.421
  20797909.665   -28181254.93849 -21681297.39147  20797909.057    20797912.142
  20952050.274   -25792672.63449 -20083391.20948  20952050.028    20952052.141
  23754239.575    -9308418.70849  -7029785.33345  23754239.402    23754245.946
  23539520.413    -7490752.18349  -5815794.14545  23539520.319    23539525.472
  24011459.341    -6917090.91949  -5378485.49545  24011458.703    24011464.937
  20948645.553   -26666471.63449 -20750199.62747  20948644.765    20948649.802
 04  2 25  1  3  0.0000000  0  9G14G18G 3G21G22G 6G26G16G15
  24096989.395    -7051775.31749  -5475292.20145  24096988.503    24096994.843
  20518583.957   -26088047.88149 -20313924.43748  20518583.410    20518586.631
  22499471.185   -13571463.76849 -10551374.56446  22499470.811    22499476.116
  20802866.076   -28155208.56149 -21661001.49847  20802865.456    20802868.558
  20945600.773   -25826564.74849 -20109800.61148  20945600.513    20945602.650
  23774820.150    -9200267.50349  -6945511.70845  23774819.884    23774826.371
  23557409.455    -7396744.40449  -5742541.35345  23557409.345    23557414.534
  24023358.234    -6854562.78149  -5329762.30445  24023357.535    24023363.858
  20939195.128   -26716133.71549 -20788897.32147  20939194.357    20939199.392
 04  2 25  1  3 30.0000000  0  9G14G18G 3G21G22G 6G26G16G15
  24075510.884    -7164644.56049  -5563242.10845  24075510.031    24075516.302
  20523519.623   -26062110.71149 -20293713.64648  20523519.073    20523522.292
  22486420.899   -13640043.34849 -10604813.14646  22486420.525    22486425.815
  20807876.532   -28128878.31949 -21640484.41547  20807875.907    20807879.030
  20939220.050   -25860095.41349 -20135928.36448  20939219.820    20939221.949
  23795426.675    -9091980.28949  -6861132.10845  23795426.309    23795432.677
  23575370.427    -7302358.67449  -5668994.05645  23575370.381    23575375.590
  24035303.607    -6791788.38449  -5280847.20845  24035302.966    24035309.296
  20929781.056   -26765604.88349 -20827446.24947  20929780.275    20929785.309
 04  2 25  1  4  0.0000000  0  9G14G18G 3G21G22G 6G26G16G15
  24054044.379    -7277449.93249  -5651142.25045  24054043.862    24054049.977
  20528516.517   -26035851.60649 -20273251.99348  20528515.964    20528519.228
  22473448.822   -13708212.02949 -10657931.54146  22473448.465    22473453.689
  20812940.833   -28102265.02149 -21619746.75747  20812940.211    20812943.349
  20932907.871   -25893266.18149 -20161775.66548  20932907.620    20932909.709
  23816058.216    -8983560.94149  -6776649.57645  23816057.846    23816064.338
  23593402.579    -7207599.07449  -5595155.41045  23593402.498    23593407.758
  24047295.221    -6728771.70749  -5231743.33845  24047294.595    24047300.888
  20920403.315   -26814885.16349 -20865846.43447  20920402.527    20920407.548
 04  2 25  1  4 30.0000000  0  9G14G18G 3G21G22G 6G26G16G15
  24032590.555    -7390188.84949  -5738990.59545  24032590.314    24032596.253
  20533574.376   -26009272.23949 -20252540.79048  20533573.843    20533577.114
  22460555.404   -13775967.55649 -10710728.01246  22460555.011    22460560.168
  20818059.173   -28075367.95949 -21598787.99247  20818058.558    20818061.675
  20926664.100   -25926077.33849 -20187342.75748  20926663.842    20926665.909
  23836714.473    -8875011.71649  -6692065.81245  23836714.246    23836720.626
  23611505.357    -7112468.47149  -5521027.68245  23611505.285    23611510.603
  24059332.561    -6665515.62849  -5182452.89845  24059332.041    24059338.099
  20911062.080   -26863973.41449 -20904096.99047  20911061.313    20911066.307
 04  2 25  1  5  0.0000000  0  9G14G18G 3G21G22G 6G26G16G15
  24011150.518    -7502857.00449  -5826783.82645  24011150.246    24011156.040
  20538693.201   -25982372.53649 -20231579.96848  20538692.679    20538695.933
  22447741.245   -13843306.13949 -10763199.57646  22447740.853    22447746.050
  20823231.876   -28048185.14449 -21577606.56647  20823231.267    20823234.379
  20920488.927   -25958527.73149 -20212628.72948  20920488.677    20920490.761
  23857395.388    -8766333.37849  -6607381.42445  23857395.169    23857401.441
  23629678.463    -7016968.49849  -5446612.11945  23629678.384    23629683.557
  24071415.329    -6602021.56649  -5132977.05745  24071414.696    24071420.778
  20901757.970   -26912866.85149 -20942195.73947  20901757.195    20901762.131
 04  2 25  1  5 30.0000000  0  9G14G18G 3G21G22G 6G26G16G15
  23989724.197    -7615453.97149  -5914521.59245  23989723.680    23989729.484
  20543872.276   -25955156.13049 -20210372.36748  20543871.774    20543875.019
  22435006.419   -13910227.75549 -10815346.25046  22435006.078    22435011.248
  20828458.698   -28020717.92249 -21556203.52947  20828458.069    20828461.174
  20914382.011   -25990619.80849 -20237635.49848  20914381.765    20914383.820
  23878100.066    -8657530.31249  -6522599.86045  23878099.666    23878106.054
  23647920.834    -6921104.18849  -5371912.66645  23647920.806    23647925.989
  24083541.779    -6538294.65449  -5083319.72145  24083541.232    24083547.589
  20892490.763   -26961566.28749 -20980143.31947  20892489.960    20892494.883
 04  2 25  1  6  0.0000000  0  9G14G18G 3G21G22G 6G26G16G15
  23968312.123    -7727975.91049  -6002200.87545  23968311.294    23968317.166
  20549111.533   -25927623.51449 -20188918.36648  20549111.046    20549114.285
  22422351.617   -13976729.23949 -10867165.54246  22422351.220    22422356.377
  20833739.921   -27992964.83149 -21534577.73747  20833739.312    20833742.412
  20908343.324   -26022353.22949 -20262362.79048  20908343.055    20908345.068
  23898828.220    -8548603.61649  -6437721.95845  23898827.795    23898834.164
  23666232.059    -6824877.74149  -5296931.05945  23666232.018    23666237.273
  24095712.486    -6474336.75849  -5033482.43845  24095712.125    24095718.338
  20883260.880   -27010069.49949 -21017937.99947  20883260.090    20883264.965
 04  2 25  1  6 30.0000000  0  9G14G18G 3G21G22G 6G26G16G15
  23946914.646    -7840420.27249  -6089819.72645  23946913.727    23946919.685
  20554410.682   -25899776.35449 -20167219.26248  20554410.198    20554413.420
  22409776.970   -14042808.77949 -10918656.04246  22409776.595    22409781.790
  20839075.566   -27964925.63149 -21512729.00247  20839074.969    20839078.078
  20902372.752   -26053728.59449 -20286811.08448  20902372.499    20902374.531
  23919579.274    -8439556.11249  -6352749.92445  23919578.850    23919585.385
  23684611.598    -6728292.37849  -5221669.75045  23684611.715    23684616.907
  24107927.149    -6410151.01149  -4983467.62045  24107926.669    24107932.484
  20874068.474   -27058375.62649 -21055579.10447  20874067.704    20874072.545
 04  2 25  1  7  0.0000000  0  9G14G18G 3G21G22G 6G26G16G15
  23925531.861    -7952786.00549  -6177377.29445  23925531.130    23925537.223
  20559769.069   -25871617.83149 -20145277.53748  20559768.578    20559771.784
  22397282.901   -14108465.58349 -10969817.13446  22397282.544    22397287.694
  20844465.488   -27936601.38549 -21490658.15347  20844464.897    20844468.000
  20896469.929   -26084747.92749 -20310981.94848  20896469.685    20896471.717
  23940352.488    -8330391.61349  -6267686.72345  23940352.209    23940358.750
  23703058.668    -6631352.72849  -5146132.38345  23703058.684    23703063.942
  24120183.785    -6345741.87449  -4933278.72145  24120183.346    24120189.177
  20864913.540   -27106485.00649 -21093066.90047  20864912.762    20864917.584
 04  2 25  1  7 30.0000000  0  9G14G18G 3G21G22G 6G26G16G15
  23904165.369    -8065065.93449  -6264868.01845  23904164.931    23904171.029
  20565187.361   -25843144.29749 -20123090.35148  20565186.867    20565190.093
  22384870.511   -14173692.88249 -11020643.54946  22384870.117    22384875.253
  20849910.668   -27907986.71349 -21468360.99747  20849910.088    20849913.153
  20890635.725   -26115406.99849 -20334872.09248  20890635.424    20890637.420
  23961148.310    -8221108.05249  -6182530.74245  23961148.102    23961154.773
  23721573.467    -6534057.01049  -5070317.56345  23721573.397    23721578.722
  24132482.749    -6281107.74149  -4882914.46945  24132482.312    24132488.533
  20855797.150   -27154391.88549 -21130396.90347  20855796.373    20855801.196
 04  2 25  1  8  0.0000000  0  9G14G18G 3G21G22G 6G26G16G15
  23882814.696    -8177263.11749  -6352294.25345  23882814.432    23882820.420
  20570664.083   -25814363.69249 -20100663.89248  20570663.626    20570666.847
  22372539.200   -14238494.33749 -11071138.14846  22372538.814    22372543.955
  20855410.072   -27879087.10949 -21445841.81547  20855409.510    20855412.538
  20884868.708   -26145712.30049 -20358486.58148  20884868.427    20884870.438
  23981965.313    -8111713.76549  -6097288.49845  23981965.161    23981971.963
  23740154.182    -6436414.49149  -4994232.49945  23740154.203    23740159.407
  24144823.102    -6216257.57449  -4832381.90745  24144822.926    24144828.898
  20846718.417   -27202100.85749 -21167572.69847  20846717.648    20846722.456
 04  2 25  1  8 30.0000000  0  9G14G18G 3G21G22G 6G26G16G15
  23861481.205    -8289370.91049  -6439650.83645  23861480.920    23861486.824
  20576199.841   -25785273.23549 -20077995.98548  20576199.374    20576202.599
  22360290.011   -14302863.86849 -11121296.16546  22360289.614    22360294.778
  20860964.558   -27849898.29149 -21423097.27147  20860963.975    20860966.992
  20879169.728   -26175660.37949 -20381822.71348  20879169.452    20879171.478
  24002803.960    -8002206.51849  -6011958.22945  24002803.764    24002810.584
  23758801.114    -6338424.14249  -4917876.42745  23758801.144    23758806.322
  24157205.318    -6151190.31649  -4781680.20745  24157204.875    24157210.840
  20837678.359   -27249606.79549 -21204590.28047  20837677.566    20837682.401
 04  2 25  1  9  0.0000000  0  9G14G18G 3G21G22G 6G26G16G15
  23840165.425    -8401386.26349  -6526935.37345  23840165.027    23840170.762
  20581794.274   -25755874.21749 -20055087.64148  20581793.801    20581797.026
  22348123.471   -14366799.11249 -11171115.78546  22348123.136    22348128.245
  20866574.226   -27820419.20749 -21400126.55047  20866573.622    20866576.665
  20873538.725   -26205251.37049 -20404880.59648  20873538.450    20873540.454
  24023663.685    -7892588.98649  -5926542.02145  24023663.383    24023670.122
  23777513.780    -6240088.81649  -4841251.49845  23777513.759    23777518.916
  24169628.224    -6085908.66149  -4730811.44345  24169627.754    24169633.552
  20828677.179   -27296908.34349 -21241448.60347  20828676.397    20828681.193
 04  2 25  1  9 30.0000000  0  9G14G18G 3G21G22G 6G26G16G15
  23818867.075    -8513309.51349  -6614148.15645  23818866.662    23818872.337
  20587446.626   -25726171.01149 -20031942.26848  20587446.128    20587449.343
  22336039.554   -14430300.65749 -11220597.45947  22336039.162    22336044.276
  20872238.735   -27790652.15849 -21376931.44847  20872238.120    20872241.117
  20867974.996   -26234488.83149 -20427663.00848  20867974.732    20867976.721
  24044543.364    -7782866.14649  -5841043.75845  24044543.069    24044549.644
  23796290.997    -6141414.48149  -4764362.41345  23796290.850    23796296.100
  24182090.484    -6020418.38649  -4679780.07745  24182089.988    24182096.031
  20819714.512   -27344007.34749 -21278149.09347  20819713.732    20819718.524
 04  2 25  1 10  0.0000000  0  9G14G18G 3G21G22G 6G26G16G15
  23797586.966    -8625136.97249  -6701286.28545  23797586.504    23797592.066
  20593156.687   -25696164.37649 -20008560.45648  20593156.185    20593159.390
  22324038.589   -14493365.81049 -11269739.08446  22324038.210    22324043.341
  20877958.262   -27760595.99949 -21353511.04947  20877957.651    20877960.643
  20862478.619   -26263372.30749 -20450169.58648  20862478.347    20862480.356
  24065442.434    -7673040.56649  -5755465.44845  24065442.151    24065448.707
  23815132.214    -6042403.46049  -4687210.98145  23815132.088    23815137.291
  24194592.112    -5954721.71549  -4628587.90145  24194591.672    24194598.049
  20810790.828   -27390901.55249 -21314690.00447  20810790.030    20810794.830
 04  2 25  1 10 30.0000000  0  9G14G18G 3G21G22G 6G26G16G15
  23776326.190    -8736863.26649  -6788345.55645  23776325.642    23776331.140
  20598924.770   -25665853.03849 -19984941.21548  20598924.251    20598927.452
  22312121.555   -14555989.51949 -11318536.73146  22312121.220    22312126.295
  20883733.395   -27730247.44649 -21329862.80647  20883732.773    20883735.765
  20857050.019   -26291899.64449 -20472398.65248  20857049.745    20857051.738
  24086361.406    -7563110.51049  -5669805.71045  24086361.129    24086367.659
  23834037.355    -5943055.84249  -4609797.26345  23834037.329    23834042.573
  24207133.065    -5888818.64249  -4577234.90145  24207132.461    24207138.810
  20801906.843   -27437586.77749 -21351068.06747  20801906.080    20801910.900
 04  2 25  1 11  0.0000000  0  9G14G18G 3G21G22G 6G26G16G15
  23755084.202    -8848490.30249  -6875327.49145  23755083.589    23755089.058
  20604749.662   -25635242.97249 -19961089.19748  20604749.149    20604752.338
  22300288.186   -14618174.57349 -11366992.56547  22300287.812    22300292.847
  20889563.358   -27699610.60449 -21305989.93147  20889562.747    20889565.717
  20851688.182   -26320075.96549 -20494354.19848  20851687.927    20851689.910
  24107298.840    -7453083.34249  -5584070.31445  24107298.544    24107305.120
  23853005.133    -5843379.49949  -4532127.39445  23853005.068    23853010.307
  24219711.713    -5822717.14649  -4525727.26545  24219711.213    24219717.583
  20793062.001   -27484066.62749 -21387286.10147  20793061.223    20793066.061
 04  2 25  1 11 30.0000000  0  9G14G18G 3G21G22G 6G26G16G15
  23733862.101    -8960012.26549  -6962227.55145  23733861.530    23733866.959
  20610631.600   -25604332.87249 -19937003.39548  20610631.097    20610634.308
  22288539.217   -14679915.66149 -11415102.45247  22288538.826    22288543.829
  20895448.927   -27668681.82349 -21281889.56647  20895448.322    20895451.257
  20846393.655   -26347898.97249 -20516034.43148  20846393.392    20846395.337
  24128254.853    -7342958.54749  -5498258.83945  24128254.657    24128261.188
  23872035.425    -5743374.48049  -4454201.38845  23872035.374    23872040.669
  24232328.241    -5756416.99149  -4474064.85445  24232327.807    24232334.003
  20784257.083   -27530336.66549 -21423340.64947  20784256.299    20784261.144
 04  2 25  1 12  0.0000000  0  9G14G18G 3G21G22G 6G26G16G15
  23712660.418    -9071426.49649  -7049043.64845  23712659.848    23712665.340
  20616570.485   -25573123.76349 -19912684.58648  20616569.996    20616573.177
  22276875.112   -14741210.75349 -11462864.81346  22276874.711    22276879.652
  20901390.116   -27637460.73049 -21257561.44447  20901389.479    20901392.390
  20841166.333   -26375368.82249 -20537439.47548  20841166.051    20841167.980
  24149229.069    -7232738.33749  -5412372.99745  24149228.986    24149235.510
  23891127.648    -5643043.76949  -4376021.59745  23891127.756    23891132.753
  24244982.031    -5689921.06749  -4422249.86245  24244981.618    24244987.922
  20775492.315   -27576395.70549 -21459230.77547  20775491.556    20775496.361
 04  2 25  1 12 30.0000000  0  9G14G18G 3G21G22G 6G26G16G15
  23691479.748    -9182729.65249  -7135773.21145  23691479.341    23691484.917
  20622566.047   -25541616.96449 -19888133.82048  20622565.525    20622568.722
  22265296.413   -14802057.00949 -11510277.42447  22265296.046    22265300.933
  20907387.131   -27605946.02549 -21233004.52847  20907386.538    20907389.423
  20836006.054   -26402485.86349 -20558569.60448  20836005.793    20836007.766
  24170221.100    -7122424.78349  -5326414.44745  24170220.994    24170227.571
  23910281.440    -5542389.87149  -4297589.99145  23910281.527    23910286.668
  24257672.854    -5623231.80349  -4370284.23445  24257672.382    24257678.554
  20766768.067   -27622241.93549 -21494955.08047  20766767.286    20766772.062
 04  2 25  1 13  0.0000000  0  9G14G18G 3G21G22G 6G26G16G15
  23670320.374    -9293921.81449  -7222416.30245  23670320.029    23670325.513
  20628617.445   -25509816.43449 -19863354.17748  20628616.936    20628620.151
  22253802.948   -14862455.51549 -11557341.15147  22253802.563    22253807.421
  20913439.642   -27574140.11249 -21208220.69747  20913439.007    20913441.915
  20830912.435   -26429253.04049 -20579427.11548  20830912.190    20830914.114
  24191230.038    -7012022.34849  -5240386.62445  24191229.919    24191236.632
  23929495.622    -5441418.70749  -4218911.15345  23929495.695    23929500.913
  24270399.268    -5556354.90949  -4318172.41945  24270398.742    24270404.721
  20758084.045   -27667876.76249 -21530514.66247  20758083.248    20758088.019
 04  2 25  1 13 30.0000000  0  9G14G18G 3G21G22G 6G26G16G15
  23649183.363    -9404997.14949  -7308968.35645  23649182.932    23649188.448
  20634725.033   -25477720.59049 -19838344.42148  20634724.537    20634727.765
  22242395.672   -14922401.07549 -11604051.92347  22242395.280    22242400.164
  20919548.190   -27542039.59949 -21183207.30647  20919547.529    20919550.444
  20825885.846   -26455668.08849 -20600010.23048  20825885.550    20825887.434
  24212255.954    -6901530.61849  -5154289.24945  24212255.864    24212262.533
  23948770.211    -5340130.21449  -4139985.06945  23948770.202    23948775.579
  24283161.152    -5489290.35149  -4265914.34645  24283160.688    24283166.754
  20749441.031   -27713295.98149 -21565906.23547  20749440.232    20749445.007
 04  2 25  1 14  0.0000000  0  9G14G18G 3G21G22G 6G26G16G15
  23628068.343    -9515957.21949  -7395430.58845  23628067.799    23628073.355
  20640887.766   -25445335.13449 -19813108.99148  20640887.271    20640890.487
  22231074.194   -14981895.65749 -11650411.28547  22231073.818    22231078.676
  20925712.138   -27509647.64649 -21157966.80547  20925711.491    20925714.444
  20820925.267   -26481735.90449 -20620322.76948  20820924.974    20820926.876
  24233297.672    -6790956.27649  -5068127.46545  24233297.586    24233304.358
  23968103.779    -5238531.73149  -4060817.40245  23968103.667    23968109.116
  24295957.327    -5422045.31649  -4213515.64945  24295956.849    24295962.914
  20740838.449   -27758502.50449 -21601132.06347  20740837.667    20740842.452
 04  2 25  1 14 30.0000000  0  9G14G18G 3G21G22G 6G26G16G15
  23606976.679    -9626794.14849  -7481796.89045  23606976.210    23606981.613
  20647106.237   -25412656.78549 -19787645.33248  20647105.766    20647108.969
  22219839.844   -15040932.31149 -11696413.83447  22219839.455    22219844.316
  20931932.582   -27476958.95049 -21132495.09947  20931931.895    20931934.884
  20816031.638   -26507451.80549 -20640361.10048  20816031.351    20816033.256
  24254355.653    -6680296.44249  -4981899.07645  24254355.449    24254362.500
  23987496.758    -5136621.12849  -3981406.53845  23987496.661    23987502.085
  24308788.378    -5354617.69549  -4160974.70245  24308788.116    24308794.191
  20732277.570   -27803490.01449 -21636187.24147  20732276.794    20732281.583
 04  2 25  1 15  0.0000000  0  9G14G18G 3G21G22G 6G26G16G15
  23585908.200    -9737509.58649  -7568068.52445  23585907.756    23585912.994
  20653379.370   -25379691.22249 -19761957.87048  20653378.883    20653382.082
  22208692.346   -15099513.08949 -11742061.15047  22208691.933    22208696.731
  20938208.681   -27443977.58449 -21106795.32747  20938208.040    20938211.038
  20811204.085   -26532820.71149 -20660129.03748  20811203.794    20811205.681
  24275428.573    -6569558.08149  -4895609.50445  24275428.260    24275435.296
  24006947.642    -5034405.92649  -3901758.32845  24006947.586    24006953.004
  24321653.326    -5287014.65549  -4108297.04545  24321652.910    24321658.771
  20723757.840   -27848261.39649 -21671074.00047  20723757.052    20723761.835
 04  2 25  1 15 30.0000000  0  9G14G18G 3G21G22G 6G26G16G15
  23564863.894    -9848098.58249  -7654241.64545  23564863.364    23564868.478
  20659707.314   -25346437.44549 -19736045.82848  20659706.843    20659710.035
  22197632.173   -15157634.11649 -11787350.20847  22197631.750    22197636.662
  20944541.070   -27410700.67249 -21080865.26147  20944540.446    20944543.430
  20806442.790   -26557841.20449 -20679625.48948  20806442.500    20806444.404
  24296516.378    -6458741.04949  -4809258.60045  24296516.241    24296523.200
  24026456.380    -4931886.88849  -3821873.38245  24026456.299    24026461.700
  24334551.048    -5219237.21249  -4055483.49845  24334550.641    24334556.221
  20715279.891   -27892813.17149 -21705789.63947  20715279.111    20715283.862
 04  2 25  1 16  0.0000000  0  9G14G18G 3G21G22G 6G26G16G15
  23543844.037    -9958558.78249  -7740314.40545  23543843.426    23543848.430
  20666089.727   -25312897.62149 -19709910.89448  20666089.244    20666092.431
  22186659.840   -15215293.70749 -11832279.71847  22186659.455    22186664.330
  20950929.624   -27377128.37049 -21054705.01547  20950929.004    20950932.010
  20801747.601   -26582514.25249 -20698851.20148  20801747.330    20801749.254
  24317618.578    -6347848.22049  -4722848.65245  24317618.443    24317625.527
  24046022.225    -4829067.75649  -3741754.60345  24046022.196    24046027.616
  24347480.920    -5151288.67049  -4002536.62145  24347480.660    24347486.518
  20706843.956   -27937144.45149 -21740333.46647  20706843.161    20706847.883
 04  2 25  1 16 30.0000000  0  9G14G18G 3G21G22G 6G26G16G15
  23522849.187   -10068886.73149  -7826284.13145  23522848.572    23522853.642
  20672526.493   -25279072.08049 -19683553.31448  20672526.008    20672529.186
  22175775.933   -15272488.98749 -11876847.42747  22175775.540    22175780.367
  20957374.749   -27343258.94249 -21028313.25447  20957374.122    20957377.129
  20797118.624   -26606839.56749 -20717805.95848  20797118.335    20797120.280
  24338734.916    -6236881.14249  -4636380.86045  24338734.735    24338741.917
  24065644.789    -4725950.46049  -3661403.49945  24065644.751    24065650.285
  24360443.278    -5083170.91449  -3949457.90145  24360442.966    24360448.962
  20698450.336   -27981252.94849 -21774703.69447  20698449.552    20698454.278
 04  2 25  1 17  0.0000000  0  9G14G18G 3G21G22G 6G26G16G15
  23501879.509   -10179082.19349  -7912150.62445  23501878.919    23501884.099
  20679016.811   -25244965.02749 -19656976.38248  20679016.325    20679019.528
  22164980.231   -15329220.56849 -11921053.80847  22164979.834    22164984.711
  20963875.984   -27309094.68449 -21001691.74547  20963875.371    20963878.370
  20792555.185   -26630820.36049 -20736492.25648  20792554.924    20792556.812
  24359864.550    -6125844.85149  -4549859.11745  24359864.296    24359871.455
  24085323.029    -4622540.68749  -3580824.44945  24085322.918    24085328.465
  24373436.869    -5014889.71849  -3896251.78945  24373436.391    24373442.516
  20690098.851   -28025140.04749 -21808901.39947  20690098.053    20690102.810
 04  2 25  1 17 30.0000000  0  9G14G18G 3G21G22G 6G26G16G15
  23480936.017   -10289139.81949  -7997909.72445  23480935.516    23480940.771
  20685560.918   -25210575.52149 -19630179.35648  20685560.425    20685563.650
  22154273.647   -15385484.00349 -11964895.40747  22154273.216    22154278.070
  20970433.923   -27274632.56549 -20974838.14047  20970433.301    20970436.329
  20788057.664   -26654454.87649 -20754908.72948  20788057.417    20788059.247
  24381007.484    -6014739.03949  -4463283.20845  24381007.090    24381014.124
  24105056.682    -4518839.23149  -3500018.11745  24105056.587    24105062.091
  24386461.394    -4946445.54349  -3842918.71845  24386460.974    24386467.080
  20681790.255   -28068801.84749 -21842923.54747  20681789.475    20681794.217
 04  2 25  1 18  0.0000000  0  9G14G18G 3G21G22G 6G26G16G15
  23460019.316   -10399056.50249  -8083559.00345  23460018.858    23460024.175
  20692158.554   -25175904.72649 -19603163.14048  20692158.057    20692161.270
  22143656.547   -15441277.09949 -12008370.50347  22143656.106    22143660.975
  20977048.688   -27239871.89249 -20947751.90147  20977048.072    20977051.086
  20783626.045   -26677743.21049 -20773055.45248  20783625.785    20783627.594
  24402163.446    -5903565.27649  -4376654.32645  24402162.864    24402169.652
  24124845.381    -4414848.41449  -3418986.30245  24124845.387    24124850.830
  24399516.445    -4877840.98649  -3789460.66145  24399515.956    24399522.246
  20673524.859   -28112236.69649 -21876768.85547  20673524.067    20673528.831
 04  2 25  1 18 30.0000000  0  9G14G18G 3G21G22G 6G26G16G15
  23439129.821   -10508830.79549  -8169097.30845  23439129.459    23439134.758
  20698809.227   -25140955.37949 -19575929.87248  20698808.713    20698811.893
  22133128.976   -15496599.33049 -12051478.69847  22133128.614    22133133.445
  20983720.118   -27204813.24249 -20920433.47747  20983719.493    20983722.516
  20779259.863   -26700687.46749 -20790934.07148  20779259.588    20779261.417
  24423331.335    -5792327.55449  -4289975.59145  24423330.900    24423337.322
  24144688.269    -4310572.85349  -3337732.62945  24144688.341    24144693.825
  24412601.116    -4809080.47649  -3735881.07245  24412600.618    24412606.994
  20665302.618   -28155444.66249 -21910437.37047  20665301.829    20665306.590
 04  2 25  1 19  0.0000000  0  9G14G18G 3G21G22G 6G26G16G15
  23418267.859   -10618461.33149  -8254523.57846  23418267.421    23418272.694
  20705512.436   -25105729.92349 -19548481.44748  20705511.922    20705515.095
  22122691.324   -15551449.59949 -12094219.12647  22122690.940    22122695.764
  20990448.072   -27169457.42749 -20892883.48547  20990447.446    20990450.472
  20774958.828   -26723289.18049 -20808545.76648  20774958.575    20774960.408
  24444510.608    -5681029.20249  -4203249.58745  24444510.188    24444516.653
  24164584.755    -4206016.70649  -3256260.28045  24164584.776    24164590.210
  24425714.798    -4740167.90749  -3682183.03445  24425714.220    24425720.624
  20657123.583   -28198425.57249 -21943928.95547  20657122.811    20657127.565
 04  2 25  1 19 30.0000000  0  9G14G18G 3G21G22G 6G26G16G15
  23397434.045   -10727944.48849  -8339834.99946  23397433.464    23397438.627
  20712268.051   -25070228.86549 -19520818.26948  20712267.526    20712270.687
  22112343.909   -15605825.35249 -12136589.80047  22112343.503    22112348.374
  20997232.867   -27133803.08349 -20865100.87347  20997232.239    20997235.283
  20770723.039   -26745548.43349 -20825890.61148  20770722.758    20770724.603
  24465700.889    -5569672.09649  -4116477.85145  24465700.728    24465707.311
  24184534.106    -4101182.30849  -3174571.15845  24184534.046    24184539.620
  24438856.902    -4671105.47549  -3628368.18545  24438856.481    24438862.808
  20648988.189   -28241177.32249 -21977241.97447  20648987.403    20648992.167
 04  2 25  1 20  0.0000000  0  9G14G18G 3G21G22G 6G26G16G15
  23376628.594   -10837277.53249  -8425029.44546  23376627.948    23376633.052
  20719075.715   -25034454.38149 -19492942.03348  20719075.183    20719078.328
  22102087.112   -15659724.84549 -12178589.36447  22102086.714    22102091.593
  21004074.497   -27097849.91949 -20837085.41647  21004073.882    21004076.911
  20766552.244   -26767465.98249 -20842969.18948  20766551.975    20766553.792
  24486901.785    -5458258.62849  -4029662.19145  24486901.911    24486908.631
  24204535.837    -3996072.95649  -3092667.74545  24204535.768    24204541.304
  24452027.254    -4601896.37649  -3574439.06745  24452026.704    24452032.953
  20640896.589   -28283698.67349 -22010375.46247  20640895.805    20640900.541
 04  2 25  1 20 30.0000000  0  9G14G18G 3G21G22G 6G26G16G15
  23355852.455   -10946455.78349  -8510103.26646  23355851.890    23355856.944
  20725935.548   -24998405.48949 -19464851.97648  20725935.034    20725938.181
  22091921.741   -15713144.11149 -12220214.73447  22091921.351    22091926.188
  21010973.500   -27061595.50149 -20808835.21947  21010972.886    21010975.884
  20762446.809   -26789040.27049 -20859780.29748  20762446.517    20762448.325
  24508113.719    -5346788.65149  -3942802.48345  24508113.916    24508120.664
  24224589.722    -3890689.46549  -3010550.72845  24224589.715    24224595.050
  24465224.940    -4532541.52549  -3520396.39845  24465224.407    24465230.957
  20632849.554   -28325986.01349 -22043326.60647  20632848.776    20632853.497
 04  2 25  1 21  0.0000000  0  9G14G18G 3G21G22G 6G26G16G15
  23335105.600   -11055479.70149  -8595056.82746  23335105.143    23335110.232
  20732846.745   -24962086.77649 -19436551.66448  20732846.259    20732849.399
  22081847.444   -15766084.75649 -12261467.14147  22081847.006    22081851.887
  21017929.277   -27025042.67749 -20780352.49447  21017928.641    21017931.666
  20758405.803   -26810275.54249 -20876327.23348  20758405.545    20758407.352
  24529335.400    -5235268.37949  -3855903.57545  24529335.574    24529342.405
  24244694.472    -3785038.14749  -2928225.01845  24244694.428    24244699.687
  24478449.084    -4463047.13149  -3466244.99645  24478448.613    24478455.215
  20624846.642   -28368041.38449 -22076096.99647  20624845.867    20624850.575
 04  2 25  1 21 30.0000000  0  9G14G18G 3G21G22G 6G26G16G15
  23314389.384   -11164343.63449  -8679885.74546  23314388.935    23314394.024
  20739809.574   -24925496.79549 -19408039.97848  20739809.079    20739812.238
  22071865.126   -15818541.88449 -12302342.78847  22071864.706    22071869.617
  21024942.482   -26988187.80249 -20751634.40347  21024941.886    21024944.962
  20754429.845   -26831169.38749 -20892608.12248  20754429.577    20754431.370
  24550567.049    -5123696.79849  -3768964.67245  24550567.066    24550573.793
  24264850.124    -3679118.99049  -2845690.63745  24264850.004    24264855.486
  24491700.124    -4393413.01649  -3411984.69545  24491699.610    24491706.153
  20616888.759   -28409860.19949 -22108683.05847  20616887.986    20616892.691
 04  2 25  1 22  0.0000000  0  8G14G18G 3G21G22G26G16G15
  23293703.621   -11273048.02649  -8764590.34346  23293703.095    23293708.147
  20746823.087   -24888640.39749 -19379320.69248  20746822.584    20746825.748
  22061974.598   -15870516.84649 -12342842.72547  22061974.173    22061979.013
  21032012.673   -26951033.92449 -20722683.32747  21032012.031    21032015.131
  20750518.089   -26851725.55049 -20908625.88048  20750517.826    20750519.625
  24285055.561    -3572938.40149  -2762952.55345  24285055.466    24285060.920
  24504976.300    -4323645.46949  -3357620.41245  24504975.888    24504982.350
  20608975.499   -28451444.46949 -22141086.35647  20608974.734    20608979.422
 04  2 25  1 22 30.0000000  0  9G14G 9G18G 3G21G22G26G16G15
  23273049.468   -11381586.38149  -8849165.54446  23273048.854    23273053.858
  24419106.456    -6370373.11949  -4955011.73045  24419106.085    24419112.196
  20753887.739   -24851515.41349 -19350392.11948  20753887.243    20753890.402
  22052176.854   -15922004.08049 -12382962.61547  22052176.446    22052181.285
  21039140.433   -26913577.17249 -20693496.23847  21039139.807    21039142.899
  20746671.156   -26871941.15349 -20924378.26348  20746670.899    20746672.706
  24305310.838    -3466495.86449  -2680010.29945  24305310.764    24305316.451
  24518278.358    -4253743.88549  -3303151.73845  24518277.869    24518284.166
  20601107.858   -28492789.10149 -22173302.92548  20601107.100    20601111.818
 04  2 25  1 23  0.0000000  0  9G14G 9G18G 3G21G22G26G16G15
  23252426.616   -11489959.42449  -8933611.95346  23252426.011    23252431.028
  24407543.119    -6431137.52449  -5002360.55345  24407542.890    24407549.081
  20761002.587   -24814126.67049 -19321258.02048  20761002.067    20761005.230
  22042471.657   -15973005.27449 -12422703.77547  22042471.195    22042476.031
  21046325.450   -26875819.81049 -20664074.91547  21046324.803    21046327.856
  20742888.299   -26891820.21049 -20939868.40448  20742888.027    20742889.850
  24325614.889    -3359797.69749  -2596868.83745  24325614.817    24325620.325
  24531604.807    -4183714.41049  -3248583.39345  24531604.213    24531610.367
  20593285.393   -28533896.33549 -22205334.51548  20593284.646    20593289.341
 04  2 25  1 23 30.0000000  0  9G14G 9G18G 3G21G22G26G16G15
  23231836.171   -11598161.95449  -9017925.50546  23231835.665    23231840.657
  24396037.046    -6491603.00249  -5049476.44845  24396036.785    24396042.940
  20768167.854   -24776472.80349 -19291917.33148  20768167.347    20768170.504
  22032859.712   -16023516.20749 -12462062.90947  22032859.289    22032864.110
  21053568.055   -26837759.26349 -20634417.33747  21053567.458    21053570.537
  20739169.737   -26911361.06749 -20955095.00748  20739169.472    20739171.305
  24345967.491    -3252844.42649  -2513528.59345  24345967.398    24345972.892
  24544954.883    -4113557.59149  -3193915.79845  24544954.333    24544961.005
  20585508.894   -28574761.96749 -22237177.83648  20585508.129    20585512.832
 04  2 25  1 24  0.0000000  0  9G14G 9G18G 3G21G22G26G16G15
  23211278.400   -11706193.06349  -9102105.48046  23211277.887    23211282.851
  24384587.897    -6551768.05249  -5096358.22845  24384587.572    24384593.707
  20775382.915   -24738557.39449 -19262372.84248  20775382.412    20775385.574
  22023341.070   -16073536.70749 -12501039.90347  22023340.689    22023345.450
  21060868.239   -26799396.67649 -20604524.40547  21060867.615    21060870.704
  20735515.104   -26930566.13749 -20970059.96148  20735514.852    20735516.663
  24366367.679    -3145640.91149  -2429993.36845  24366367.604    24366373.023
  24558328.421    -4043278.46849  -3139152.90545  24558327.933    24558334.758
  20577778.286   -28615386.55149 -22268833.33048  20577777.511    20577782.207
 04  2 25  1 24 30.0000000  0  8G14G 9G18G 3G21G22G16G15
  23190754.030   -11814049.40949  -9186149.30046  23190753.485    23190758.262
  24373196.473    -6611629.18149  -5143003.18545  24373196.167    24373202.351
  20782647.571   -24700381.25249 -19232625.18348  20782647.073    20782650.226
  22013916.234   -16123064.57249 -12539633.00747  22013915.813    22013920.590
  21068225.992   -26760731.38249 -20574395.58947  21068225.381    21068228.470
  20731924.309   -26949435.73149 -20984763.50548  20731924.048    20731925.841
  24571724.988    -3972879.34449  -3084296.49345  24571724.489    24571731.155
  20570093.872   -28655768.27349 -22300299.57948  20570093.111    20570097.789
 04  2 25  1 25  0.0000000  0  8G14G 9G18G 3G21G22G16G15
  23170262.467   -11921733.63349  -9270059.00046  23170261.872    23170266.530
  24361862.862    -6671188.54149  -5189412.96645  24361862.553    24361868.403
  20789960.608   -24661950.96749 -19202679.50048  20789960.100    20789963.254
  22004584.403   -16172103.19049 -12577844.88247  22004584.023    22004588.844
  21075640.485   -26721768.09549 -20544034.57847  21075639.858    21075642.927
  20728396.189   -26967975.93849 -20999210.39048  20728395.930    20728397.708
  24585143.166    -3902368.36149  -3029352.94345  24585142.500    24585148.973
  20562454.986   -28695910.91849 -22331579.53948  20562454.219    20562458.871
 04  2 25  1 25 30.0000000  0  8G14G 9G18G 3G21G22G16G15
  23149805.719   -12029234.76349  -9353826.03546  23149805.044    23149809.669
  24350588.591    -6730434.84349  -5235578.82845  24350588.389    24350594.105
  20797323.309   -24623259.57249 -19172530.35248  20797322.793    20797325.945
  21995347.596   -16220642.93749 -12615668.03247  21995347.178    21995351.948
  21083113.226   -26682498.18349 -20513434.63847  21083112.615    21083115.660
  20724932.210   -26986179.18949 -21013394.71248  20724931.948    20724933.719
  24598583.224    -3831740.31149  -2974318.14545  24598582.596    24598589.259
  20554863.392   -28735804.91149 -22362665.74548  20554862.615    20554867.279
 04  2 25  1 26  0.0000000  0  8G14G 9G18G 3G21G22G16G15
  23129383.808   -12136551.81949  -9437449.64346  23129383.211    23129387.702
  24339374.189    -6789366.61949  -5281499.59145  24339374.002    24339379.813
  20804735.068   -24584310.53949 -19142180.44648  20804734.562    20804737.714
  21986205.702   -16268683.79549 -12653102.43747  21986205.297    21986210.065
  21090644.063   -26642923.32349 -20482597.07447  21090643.451    21090646.469
  20721531.870   -27004047.90249 -21027318.35448  20721531.612    20721533.407
  24612044.539    -3761000.03749  -2919195.91845  24612044.007    24612050.797
  20547319.014   -28775450.59549 -22393558.46548  20547318.248    20547322.904
 04  2 25  1 26 30.0000000  0  8G14G 9G18G 3G21G22G16G15
  23108997.343   -12243682.67849  -9520928.15146  23108996.825    23109001.371
  24328220.297    -6847981.05649  -5327173.06445  24328219.924    24328225.824
  20812195.387   -24545106.18149 -19111631.58248  20812194.887    20812198.028
  21977158.965   -16316224.54149 -12690147.13947  21977158.590    21977163.364
  21098232.979   -26603043.46549 -20451521.85447  21098232.378    21098235.364
  20718194.975   -27021583.35949 -21040982.31448  20718194.702    20718196.489
  24625526.657    -3690150.92449  -2863988.89445  24625526.153    24625533.013
  20539822.064   -28814847.10149 -22424257.01848  20539821.308    20539825.984
 04  2 25  1 27  0.0000000  0  8G14G 9G18G 3G21G22G16G15
  23088646.777   -12350624.72449  -9604259.52746  23088646.363    23088650.977
  24317127.051    -6906275.73749  -5372597.39145  24317126.794    24317132.585
  20819704.036   -24505648.01749 -19080884.94948  20819703.539    20819706.660
  21968207.720   -16363263.78349 -12726801.05547  21968207.307    21968212.035
  21105880.053   -26562858.15549 -20420208.62047  21105879.414    21105882.400
  20714921.255   -27038786.76349 -21054387.53048  20714920.979    20714922.753
  24639029.191    -3619196.16949  -2808699.53245  24639028.546    24639035.232
  20532372.803   -28853993.16649 -22454760.42248  20532372.035    20532376.707
 04  2 25  1 27 30.0000000  0  8G14G 9G18G 3G21G22G16G15
  23068332.554   -12457376.58949  -9687442.72846  23068332.087    23068336.726
  24306095.150    -6964248.74349  -5417771.04645  24306094.881    24306100.650
  20827260.547   -24465938.43249 -19049942.40948  20827260.038    20827263.126
  21959351.879   -16409801.25249 -12763063.98647  21959351.477    21959356.209
  21113584.815   -26522368.91349 -20388658.55647  21113584.190    21113587.274
  20711710.336   -27055660.08749 -21067535.55248  20711710.071    20711711.859
  24652550.688    -3548140.04849  -2753331.16045  24652550.155    24652556.617
  20524971.254   -28892888.67249 -22485068.59548  20524970.479    20524975.132
 04  2 25  1 28  0.0000000  0  8G14G 9G18G 3G21G22G16G15
  23048055.321   -12563934.24249  -9770474.56946  23048054.764    23048059.382
  24295125.165    -7021895.40049  -5462690.41245  24295124.855    24295130.547
  20834864.854   -24425977.53949 -19018804.04048  20834864.344    20834867.424
  21950592.111   -16455833.73949 -12798933.42247  21950591.722    21950596.459
  21121347.942   -26481573.39649 -20356869.83247  21121347.325    21121350.393
  20708562.361   -27072202.58449 -21080425.77948  20708562.101    20708563.882
  24666091.228    -3476984.06249  -2697885.00945  24666090.760    24666097.261
  20517617.913   -28931530.60349 -22515179.16648  20517617.159    20517621.801
 04  2 25  1 28 30.0000000  0  8G14G 9G18G 3G21G22G16G15
  23027815.366   -12670295.65749  -9853353.52646  23027814.785    23027819.385
  24284217.717    -7079213.46249  -5507353.73845  24284217.506    24284223.147
  20842516.512   -24385767.70349 -18987471.69848  20842516.006    20842519.067
  21941928.597   -16501360.60249 -12834408.87047  21941928.249    21941932.981
  21129169.275   -26440472.10149 -20324842.84747  21129168.641    21129171.677
  20705477.027   -27088415.99249 -21093059.57848  20705476.767    20705478.528
  24679649.984    -3405731.85249  -2642363.81145  24679649.545    24679656.170
  20510312.914   -28969918.66449 -22545091.92048  20510312.146    20510316.738
 04  2 25  1 29  0.0000000  0  8G14G 9G18G 3G21G22G16G15
  23007613.211   -12776458.41949  -9936077.66046  23007612.632    23007617.246
  24273373.500    -7136199.92149  -5551758.62945  24273373.223    24273378.850
  20850215.252   -24345310.59949 -18955946.67848  20850214.747    20850217.795
  21933361.682   -16546380.15349 -12869489.00547  21933361.290    21933366.032
  21137048.759   -26399065.20449 -20292577.72947  21137048.116    21137051.121
  20702454.160   -27104301.24049 -21105437.66048  20702453.899    20702455.632
  24693226.730    -3334386.76549  -2586770.30845  24693226.245    24693232.847
  20503056.445   -29008051.60849 -22574805.88248  20503055.660    20503060.240
 04  2 25  1 29 30.0000000  0  7G14G 9G18G 3G21G22G15
  22987450.608   -12882413.00049 -10018639.58046  22987450.030    22987454.674
  24262594.113    -7192845.41649  -5595897.85245  24262593.906    24262599.657
  20857962.036   -24304600.89849 -18924224.82648  20857961.524    20857964.584
  21924892.851   -16590884.01149 -12904167.30647  21924892.443    21924897.184
  21144987.680   -26357345.72349 -20260069.04047  21144987.050    21144990.049
  20699494.840   -27119852.42849 -21117555.44448  20699494.588    20699496.307
  20495850.074   -29045921.32549 -22604314.73448  20495849.299    20495853.852
 04  2 25  1 30  0.0000000  0  7G14G 9G18G 3G21G22G15
  22967326.140   -12988166.80049 -10101045.03046  22967325.622    22967330.286
  24251878.230    -7249156.49449  -5639776.47845  24251878.104    24251883.948
  20865754.667   -24263650.22749 -18892315.20248  20865754.169    20865757.245
  21916520.475   -16634880.84649 -12938450.51447  21916520.119    21916524.851
  21152984.274   -26315322.90249 -20227323.98047  21152983.684    21152986.750
  20696597.037   -27135080.44249 -21129421.39648  20696596.764    20696598.477
  20488692.181   -29083536.21549 -22633625.01648  20488691.414    20488695.968
 04  2 25  1 30 30.0000000  0  7G14G 9G18G 3G21G22G15
  22947240.934   -13093714.57449 -10183289.94846  22947240.467    22947245.176
  24241227.066    -7305128.04649  -5683390.57545  24241227.019    24241232.768
  20873593.455   -24222457.16349 -18860216.70548  20873592.952    20873596.025
  21908245.390   -16678366.94549 -12972335.76347  21908245.008    21908249.671
  21161039.222   -26272993.95149 -20194340.37847  21161038.628    21161041.679
  20693761.074   -27149983.39449 -21141034.06148  20693760.798    20693762.494
  20481583.505   -29120892.46749 -22662733.76448  20481582.725    20481587.308
 04  2 25  1 31  0.0000000  0  7G14G 9G18G 3G21G22G15
  22927195.221   -13199054.66949 -10265373.02446  22927194.763    22927199.589
  24230641.162    -7360757.94949  -5726738.45245  24230641.066    24230646.698
  20881477.788   -24181024.65949 -18827931.62848  20881477.294    20881480.374
  21900067.574   -16721341.67249 -13005822.53647  21900067.179    21900071.819
  21169152.258   -26230360.02949 -20161119.13647  21169151.631    21169154.643
  20690986.583   -27164563.41449 -21152395.08648  20690986.318    20690987.995
  20474524.073   -29157989.86349 -22691640.80448  20474523.303    20474527.882
 04  2 25  1 31 30.0000000  0  7G14G 9G18G 3G21G22G15
  22907190.229   -13304181.81849 -10347290.18446  22907189.732    22907194.456
  24220121.223    -7416040.26749  -5769815.50445  24220121.100    24220126.893
  20889408.020   -24139350.97949 -18795458.62548  20889407.514    20889410.611
  21891987.885   -16763800.59549 -13038907.38247  21891987.532    21891992.172
  21177323.947   -26187417.66549 -20127657.55647  21177323.324    21177326.265
  20688273.918   -27178818.40249 -21163502.84448  20688273.666    20688275.315
  20467514.707   -29194824.10849 -22720342.79548  20467513.945    20467518.531
 04  2 25  1 32  0.0000000  0  7G14G 9G18G 3G21G22G15
  22887226.252   -13409093.71549 -10429039.60646  22887225.594    22887230.315
  24209667.787    -7470972.75049  -5812619.95845  24209667.676    24209673.289
  20897383.774   -24097438.11749 -18762799.24248  20897383.263    20897386.359
  21884006.518   -16805743.13149 -13071589.85547  21884006.138    21884010.751
  21185554.191   -26144167.24049 -20093955.92847  21185553.567    21185556.535
  20685622.872   -27192749.71149 -21174358.38748  20685622.611    20685624.256
  20460555.653   -29231394.35749 -22748839.07748  20460554.873    20460559.441
 04  2 25  1 32 30.0000000  0  7G14G 9G18G 3G21G22G15
  22867303.474   -13513788.31149 -10510619.69446  22867302.756    22867307.516
  24199281.531    -7525552.73649  -5855149.72045  24199281.336    24199286.833
  20905404.568   -24055288.31349 -18729955.22248  20905404.080    20905407.167
  21876123.640   -16847167.87849 -13103868.85247  21876123.235    21876127.838
  21193843.043   -26100608.92749 -20060014.38747  21193842.418    21193845.406
  20683033.148   -27206358.78349 -21184962.83548  20683032.864    20683034.527
  20453646.983   -29267699.54849 -22777128.81548  20453646.205    20453650.754
 04  2 25  1 33  0.0000000  0  7G14G 9G18G 3G21G22G15
  22847422.381   -13618262.96949 -10592028.41446  22847421.819    22847426.573
  24188962.832    -7579777.28249  -5897402.53345  24188962.720    24188968.257
  20913470.242   -24012902.97349 -18696927.67048  20913469.736    20913472.836
  21868339.510   -16888073.72049 -13135743.50147  21868339.104    21868343.757
  21202190.561   -26056742.42649 -20025832.69347  21202189.939    21202192.933
  20680504.528   -27219646.60649 -21195316.95848  20680504.255    20680505.891
  20446789.001   -29303738.42649 -22805211.03248  20446788.223    20446792.769
 04  2 25  1 33 30.0000000  0  8G14G 9G18G 3G21G31G22G15
  22827583.087   -13722517.28249 -10673265.43046  22827582.723    22827587.491
  24178712.084    -7633645.62949  -5939377.76045  24178711.816    24178717.363
  20921580.004   -23970285.85349 -18663719.51548  20921579.492    20921582.605
  21860653.912   -16928461.56849 -13167214.52447  21860653.525    21860658.212
  21210596.416   -26012569.47349 -19991412.21247  21210595.810    21210598.746
  24404168.662    -5842752.02249  -4529155.66345  24404168.026    24404174.088
  20678036.479   -27232616.14849 -21205423.07548  20678036.203    20678037.803
  20439981.536   -29339511.82349 -22833086.38748  20439980.766    20439985.315
 04  2 25  1 34  0.0000000  0  8G14G 9G18G 3G21G31G22G15
  22807787.668   -13826543.36349 -10754324.60846  22807787.198    22807791.896
  24168530.293    -7687149.76849  -5981069.19845  24168530.184    24168535.686
  20929734.655   -23927432.78749 -18630327.50348  20929734.127    20929737.233
  21853068.211   -16968324.66549 -13198276.65647  21853067.796    21853072.419
  21219061.547   -25968085.13149 -19956749.09447  21219060.930    21219063.839
  24386612.908    -5935008.42549  -4601043.67945  24386612.409    24386618.045
  20675629.818   -27245263.15849 -21215277.86948  20675629.560    20675631.158
  20433225.891   -29375012.95649 -22860749.58848  20433225.113    20433229.637
 04  2 25  1 34 30.0000000  0  8G14G 9G18G 3G21G31G22G15
  22788035.279   -13930342.60149 -10835207.01146  22788034.732    22788039.374
  24158418.012    -7740290.74949  -6022477.67645  24158417.716    24158423.262
  20937933.098   -23884349.40149 -18596756.01947  20937932.571    20937935.716
  21845581.828   -17007665.59249 -13228931.89847  21845581.439    21845585.988
  21227585.199   -25923292.98849 -19921846.12547  21227584.589    21227587.482
  24369112.505    -6026973.30249  -4672704.55545  24369112.015    24369117.678
  20673283.561   -27257592.54849 -21224885.16548  20673283.294    20673284.924
  20426521.580   -29410244.20849 -22888202.48948  20426520.814    20426525.323
 04  2 25  1 35  0.0000000  0  8G14G 9G18G 3G21G31G22G15
  22768326.948   -14033909.47149 -10915908.36346  22768326.566    22768331.117
  24148375.776    -7793062.88049  -6063598.72345  24148375.358    24148381.010
  20946175.635   -23841034.25449 -18563003.94647  20946175.125    20946178.277
  21838195.611   -17046480.37649 -13259177.16147  21838195.222    21838199.771
  21236168.062   -25878189.67849 -19886700.68747  21236167.447    21236170.343
  24351668.643    -6118641.21249  -4744134.07745  24351668.101    24351673.405
  20670998.125   -27269602.38749 -21234243.45948  20670997.886    20670999.499
  20419869.423   -29445201.55749 -22915441.96248  20419868.639    20419873.143
 04  2 25  1 35 30.0000000  0  8G14G 9G18G 3G21G31G22G15
  22748663.277   -14137242.70249 -10996427.65946  22748662.829    22748667.378
  24138403.913    -7845464.58049  -6104431.12945  24138403.502    24138409.227
  20954461.815   -23797490.03049 -18529073.37447  20954461.308    20954464.445
  21830909.511   -17084769.02649 -13289012.44147  21830909.096    21830913.680
  21244809.880   -25832776.29749 -19851313.63047  21244809.285    21244812.253
  24334281.545    -6210011.00249  -4815331.27045  24334280.948    24334286.167
  20668773.115   -27281294.79549 -21243354.40048  20668772.866    20668774.494
  20413269.397   -29479884.96349 -22942467.97548  20413268.618    20413273.094
 04  2 25  1 36  0.0000000  0  8G14G 9G18G 3G21G31G22G15
  22729043.858   -14240342.75749 -11076765.25746  22729043.441    22729047.991
  24128502.537    -7897495.68449  -6144974.76245  24128502.265    24128507.868
  20962790.747   -23753721.30849 -18494967.86247  20962790.232    20962793.349
  21823723.232   -17122533.00249 -13318438.88647  21823722.811    21823727.368
  21253510.244   -25787055.60549 -19815687.11347  21253509.661    21253512.631
  24316951.041    -6301083.11449  -4886296.47645  24316950.395    24316955.708
  20666607.787   -27292673.71749 -21252221.06748  20666607.525    20666609.155
  20406721.172   -29514296.06049 -22969281.79648  20406720.372    20406724.825
 04  2 25  1 36 30.0000000  0  8G14G 9G18G 3G21G31G22G15
  22709470.638   -14343200.72549 -11156914.24446  22709470.151    22709474.613
  24118673.611    -7949147.53049  -6185222.87945  24118673.290    24118678.815
  20971163.245   -23709723.36349 -18460683.73947  20971162.736    20971165.836
  21816638.197   -17159764.78849 -13347450.64847  21816637.806    21816642.322
  21262270.251   -25741021.68349 -19779816.52047  21262269.657    21262272.605
  24299678.835    -6391848.63549  -4957022.79245  24299678.193    24299683.628
  20664503.063   -27303733.86949 -21260839.34348  20664502.802    20664504.451
  20400226.188   -29548427.43349 -22995877.65548  20400225.408    20400229.837
 04  2 25  1 37  0.0000000  0  8G14G 9G18G 3G21G31G22G15
  22689943.198   -14445817.18449 -11236875.02646  22689942.770    22689947.241
  24108916.710    -8000420.09049  -6225175.43945  24108916.335    24108921.944
  20979578.552   -23665500.54449 -18426224.39147  20979578.040    20979581.133
  21809654.087   -17196466.47949 -13376049.34047  21809653.711    21809658.213
  21271089.295   -25694677.22449 -19743703.94547  21271088.692    21271091.658
  24282464.752    -6482308.07149  -5027510.60745  24282464.100    24282469.628
  20662458.289   -27314479.13549 -21269212.25348  20662458.038    20662459.676
  20393784.161   -29582280.34749 -23022256.52848  20393783.378    20393787.824
 04  2 25  1 37 30.0000000  0  8G14G 9G18G 3G21G31G22G15
  22670462.067   -14548190.93249 -11316646.69746  22670461.676    22670466.016
  24099232.132    -8051311.93049  -6264831.33845  24099231.809    24099237.333
  20988036.096   -23621055.81749 -18391592.13447  20988035.605    20988038.694
  21802770.800   -17232638.31949 -13404235.16447  21802770.406    21802774.962
  21279967.224   -25648023.17249 -19707350.12947  21279966.626    21279969.627
  24265309.205    -6572460.31749  -5097759.08745  24265308.606    24265314.030
  20660472.961   -27324912.27049 -21277341.94748  20660472.722    20660474.317
  20387395.039   -29615855.17149 -23048418.71048  20387394.271    20387398.713
 04  2 25  1 38  0.0000000  0  8G14G 9G18G 3G21G31G22G15
  22651027.942   -14650318.30049 -11396226.38946  22651027.410    22651031.698
  24089620.694    -8101819.56749  -6304187.83045  24089620.492    24089625.961
  20996535.774   -23576389.54849 -18356787.24447  20996535.291    20996538.378
  21795988.679   -17268278.49349 -13432006.70447  21795988.301    21795992.806
  21288904.325   -25601058.34849 -19670754.15247  21288903.719    21288906.772
  24248212.801    -6662302.13549  -5167765.63545  24248212.273    24248217.666
  20658547.092   -27335032.88749 -21285228.12048  20658546.806    20658548.395
  20381059.329   -29649149.43249 -23074362.26948  20381058.567    20381063.032
 04  2 25  1 38 30.0000000  0  8G14G 9G18G 3G21G31G22G15
  22631641.306   -14752195.24249 -11475610.93546  22631640.831    22631645.073
  24080083.510    -8151938.10049  -6343241.13145  24080083.195    24080088.713
  21005077.619   -23531501.98149 -18321809.91547  21005077.128    21005080.207
  21789308.359   -17303383.70549 -13459361.39847  21789307.976    21789312.425
  21297900.826   -25553781.46849 -19633915.01947  21297900.220    21297903.224
  24231176.376    -6751828.87549  -5237526.67245  24231175.776    24231181.189
  20656680.769   -27344840.19949 -21292870.15348  20656680.498    20656682.089
  20374777.620   -29682159.98249 -23100084.75348  20374776.856    20374781.306
 04  2 25  1 39  0.0000000  0  8G14G 9G18G 3G21G31G22G15
  22612302.485   -14853821.22449 -11554799.94846  22612302.019    22612306.224
  24070620.258    -8201666.72549  -6381990.59645  24070620.107    24070625.555
  21013660.987   -23486396.01049 -18286662.40947  21013660.506    21013663.581
  21782729.644   -17337954.89549 -13486299.96147  21782729.271    21782733.757
  21306956.420   -25506194.18849 -19596834.02047  21306955.801    21306958.769
  24214200.016    -6841040.05049  -5307041.78845  24214199.418    24214204.924
  20654873.487   -27354337.51849 -21300270.64048  20654873.209    20654874.785
  20368549.746   -29714887.58649 -23125586.76548  20368548.977    20368553.437
 04  2 25  1 39 30.0000000  0  8G14G 9G18G 3G21G31G22G15
  22593012.111   -14955192.63149 -11633790.58146  22593011.594    22593015.791
  24061231.975    -8251001.81149  -6420433.43345  24061231.846    24061237.293
  21022285.839   -23441072.10149 -18251345.07447  21022285.345    21022288.428
  21776253.013   -17371989.75549 -13512820.60447  21776252.634    21776257.187
  21316071.287   -25458295.28449 -19559510.19047  21316070.671    21316073.615
  24197284.297    -6929932.13649  -5376308.27945  24197283.749    24197289.259
  20653125.221   -27363524.61549 -21307429.38948  20653124.959    20653126.491
  20362376.206   -29747329.83949 -23150866.41948  20362375.441    20362379.872
 04  2 25  1 40  0.0000000  0  8G14G 9G18G 3G21G31G22G15
  22573771.157   -15056305.22449 -11712579.54646  22573770.534    22573774.672
  24051919.439    -8299939.13449  -6458566.33445  24051919.343    24051924.677
  21030952.165   -23395530.16749 -18215857.85347  21030951.685    21030954.763
  21769878.959   -17405485.48649 -13538921.15247  21769878.577    21769883.113
  21325245.766   -25410082.79049 -19521942.00547  21325245.150    21325248.148
  24180430.122    -7018500.99749  -5445322.89445  24180429.647    24180435.112
  20651436.085   -27372401.17949 -21314346.17048  20651435.798    20651437.300
  20356257.504   -29779483.66649 -23175921.32948  20356256.737    20356261.173
 04  2 25  1 40 30.0000000  0  8G14G 9G18G 3G21G31G22G15
  22554578.774   -15157161.35449 -11791168.66546  22554578.140    22554582.271
  24042682.209    -8348480.53749  -6496390.71745  24042682.098    24042687.394
  21039658.797   -23349776.65249 -18180205.76247  21039658.288    21039661.369
  21763606.762   -17438446.07949 -13564604.71647  21763606.389    21763610.835
  21334478.961   -25361561.63449 -19484133.30347  21334478.378    21334481.428
  24163637.064    -7106748.84549  -5514087.34745  24163636.553    24163642.105
  20649804.953   -27380972.73449 -21321025.28148  20649804.668    20649806.153
  20350193.077   -29811352.33949 -23200754.03748  20350192.295    20350196.755
 04  2 25  1 41  0.0000000  0  8G14G 9G18G 3G21G31G22G15
  22535436.623   -15257753.24649 -11869551.88046  22535436.082    22535440.202
  24033521.787    -8396618.39849  -6533900.66045  24033521.709    24033527.040
  21048406.376   -23303807.90749 -18144385.95247  21048405.862    21048408.913
  21757437.561   -17470865.53449 -13589866.60647  21757437.190    21757441.614
  21343772.027   -25312726.38149 -19446079.86047  21343771.434    21343774.435
  24146906.541    -7194668.04849  -5582595.72545  24146906.075    24146911.599
  20648232.671   -27389235.20149 -21327463.54648  20648232.376    20648233.873
  20344184.142   -29842929.29949 -23225359.43848  20344183.375    20344187.818
 04  2 25  1 41 30.0000000  0  8G14G 9G18G 3G21G31G22G15
  22516344.853   -15358080.48949 -11947728.88246  22516344.359    22516348.510
  24024438.514    -8444351.63649  -6571095.32945  24024438.387    24024443.831
  21057194.307   -23257626.94949 -18108400.78147  21057193.818    21057196.841
  21751371.167   -17502744.38549 -13614707.24547  21751370.770    21751375.250
  21353124.491   -25263578.90249 -19407783.10947  21353123.870    21353126.874
  24130238.539    -7282258.07049  -5650847.56845  24130238.084    24130243.757
  20646718.639   -27397191.38349 -21333663.14248  20646718.354    20646719.847
  20338230.610   -29874215.16649 -23249738.01448  20338229.876    20338234.337
 04  2 25  1 42  0.0000000  0  8G14G 9G18G 3G21G31G22G15
  22497303.798   -15458142.06049 -12025698.86046  22497303.231    22497307.411
  24015432.198    -8491679.41449  -6607974.05545  24015432.053    24015437.579
  21066022.040   -23211237.05049 -18072252.79247  21066021.537    21066024.549
  21745407.489   -17534083.32949 -13639127.18047  21745407.128    21745411.641
  21362536.091   -25214120.59549 -19369244.16047  21362535.475    21362538.472
  24113633.270    -7369518.03349  -5718842.21345  24113632.900    24113638.730
  20645262.342   -27404844.04649 -21339626.23648  20645262.053    20645263.574
  20332332.450   -29905210.16549 -23273889.94248  20332331.690    20332336.168
 04  2 25  1 42 30.0000000  0  8G14G 9G18G 3G21G31G22G15
  22478314.361   -15557931.88549 -12103457.08646  22478313.778    22478318.018
  24006504.292    -8538595.21849  -6644531.76045  24006504.183    24006509.596
  21074889.903   -23164636.11949 -18035940.36847  21074889.398    21074892.402
  21739547.451   -17564877.86449 -13663122.89747  21739547.075    21739551.595
  21372007.508   -25164347.83249 -19330460.17847  21372006.898    21372009.894
  24097092.144    -7456441.62449  -5786574.76745  24097091.761    24097097.718
  20643864.364   -27412190.36749 -21345350.62148  20643864.080    20643865.604
  20326490.568   -29935909.41049 -23297811.41248  20326489.794    20326494.252
 04  2 25  1 43  0.0000000  0  8G14G 9G18G 3G21G31G22G15
  22459376.728   -15657448.78049 -12181002.65346  22459376.247    22459380.482
  23997655.346    -8585097.88349  -6680767.52445  23997654.989    23997660.284
  21083797.431   -23117826.68149 -17999465.47047  21083796.931    21083799.949
  21733790.938   -17595128.42249 -13686694.74747  21733790.580    21733795.060
  21381538.543   -25114262.01849 -19291432.27147  21381537.919    21381540.895
  24080615.349    -7543027.95649  -5854044.54445  24080614.977    24080620.777
  20642524.169   -27419232.99349 -21350838.36348  20642523.898    20642525.423
  20320704.966   -29966312.82349 -23321502.37148  20320704.199    20320708.659
 04  2 25  1 43 30.0000000  0  8G14G 9G18G 3G21G31G22G15
  22440491.198   -15756692.41949 -12258335.28946  22440490.732    22440494.966
  23988884.722    -8631186.84449  -6716680.94345  23988884.371    23988889.937
  21092743.943   -23070812.49049 -17962831.02247  21092743.438    21092746.458
  21728137.761   -17624836.10049 -13709843.56347  21728137.423    21728141.952
  21391128.711   -25063865.42149 -19252162.18647  21391128.110    21391131.091
  24064202.758    -7629276.61249  -5921251.18845  24064202.359    24064207.983
  20641241.189   -27425974.90349 -21356091.77348  20641240.926    20641242.425
  20314975.515   -29996421.18249 -23344963.40748  20314974.746    20314979.203
 04  2 25  1 44  0.0000000  0  8G14G 9G18G 3G21G31G22G15
  22421658.781   -15855657.10349 -12335450.56146  22421658.339    22421662.506
  23980194.082    -8676856.30449  -6752267.46345  23980193.767    23980199.352
  21101729.748   -23023591.82249 -17926035.68647  21101729.247    21101732.238
  21722588.613   -17653997.02049 -13732566.33947  21722588.255    21722592.801
  21400778.573   -25013154.80049 -19212647.41047  21400777.980    21400781.005
  24047855.415    -7715182.03649  -5988190.37845  24047855.016    24047860.629
  20640015.863   -27432414.15049 -21361109.34748  20640015.585    20640017.072
  20309303.088   -30026229.86549 -23368190.93348  20309302.323    20309306.811
 04  2 25  1 44 30.0000000  0  8G14G 9G18G 3G21G31G22G15
  22402879.671   -15954342.59749 -12412348.27646  22402879.089    22402883.272
  23971583.481    -8722105.69449  -6787526.63245  23971583.169    23971588.548
  21110754.140   -22976168.11349 -17889082.13747  21110753.659    21110756.664
  21717143.329   -17682612.10749 -13754863.79147  21717142.975    21717147.500
  21410487.873   -24962131.87449 -19172889.28247  21410487.278    21410490.315
  24031573.575    -7800743.66149  -6054861.66745  24031573.148    24031578.711
  20638847.489   -27438553.85949 -21365893.51248  20638847.213    20638848.682
  20303687.567   -30055739.50649 -23391185.44048  20303686.800    20303691.273
 04  2 25  1 45  0.0000000  0  8G14G 9G18G 3G21G31G22G15
  22384154.431   -16052744.06849 -12489024.68146  22384153.863    22384158.057
  23963053.360    -8766930.15549  -6822454.70345  23963053.154    23963058.628
  21119817.452   -22928540.28849 -17851969.53647  21119816.945    21119819.938
  21711802.440   -17710678.52649 -13776733.71447  21711802.092    21711806.558
  21420257.024   -24910794.48149 -19132886.11647  21420256.435    21420259.479
  24015358.111    -7885956.87249  -6121261.48645  24015357.554    24015363.077
  20637736.374   -27444392.72249 -21370443.25848  20637736.093    20637737.542
  20298129.626   -30084946.62849 -23413944.22348  20298128.858    20298133.324
 04  2 25  1 45 30.0000000  0  8G14G 9G18G 3G21G31G22G15
  22365482.912   -16150862.97449 -12565480.91446  22365482.389    22365486.582
  23954604.200    -8811330.71349  -6857052.46645  23954603.983    23954609.467
  21128918.549   -22880713.64649 -17814702.01547  21128918.054    21128921.016
  21706565.522   -17738198.75349 -13798178.02447  21706565.148    21706569.677
  21430085.472   -24859145.95949 -19092640.50147  21430084.851    21430087.875
  23999208.616    -7970822.79649  -6187390.69945  23999208.044    23999213.548
  20636681.600   -27449935.48449 -21374762.27348  20636681.313    20636682.768
  20292628.817   -30113853.49049 -23436469.02948  20292628.046    20292632.530
 04  2 25  1 46  0.0000000  0  8G14G 9G18G 3G21G31G22G15
  22346866.638   -16248691.81349 -12641711.11346  22346866.097    22346870.250
  23946236.986    -8855300.30849  -6891314.40945  23946236.745    23946242.269
  21138058.194   -22832684.61849 -17777276.79047  21138057.677    21138060.595
  21701433.509   -17765167.40049 -13819192.53547  21701433.160    21701437.701
  21439973.852   -24807182.04549 -19052149.13647  21439973.226    21439976.248
  23983126.576    -8055334.22149  -6253243.70545  23983125.978    23983131.474
  20635683.931   -27455178.21749 -21378847.50548  20635683.654    20635685.113
  20287186.341   -30142453.94349 -23458755.07848  20287185.564    20287190.029
 04  2 25  1 46 30.0000000  0  8G14G 9G18G 3G21G31G22G15
  22328305.560   -16346230.83649 -12717715.47946  22328305.026    22328309.050
  23937951.895    -8898838.77249  -6925240.41745  23937951.651    23937957.021
  21147235.447   -22784457.46749 -17739697.18247  21147234.964    21147237.901
  21696406.169   -17791586.31849 -13839778.68947  21696405.801    21696410.260
  21449921.818   -24754905.00149 -19011413.77147  21449921.208    21449924.224
  23967111.942    -8139491.37649  -6318820.64645  23967111.344    23967116.790
  20634742.604   -27460124.78149 -21382701.95448  20634742.325    20634743.788
  20281801.909   -30170749.20749 -23480803.31848  20281801.111    20281805.579
 04  2 25  1 47  0.0000000  0  8G14G 9G18G 3G21G31G22G15
  22309799.842   -16443478.82049 -12793493.06446  22309799.317    22309803.347
  23929749.177    -8941944.80849  -6958829.46345  23929748.909    23929754.122
  21156449.937   -22736035.06649 -17701965.43347  21156449.465    21156452.390
  21691483.367   -17817455.78549 -13859936.69947  21691482.999    21691487.437
  21459929.132   -24702316.21849 -18970435.49547  21459928.521    21459931.518
  23951164.961    -8223292.96549  -6384120.52045  23951164.354    23951169.740
  20633857.210   -27464777.42649 -21386327.37448  20633856.938    20633858.389
  20276475.602   -30198739.18049 -23502613.67248  20276474.819    20276479.248
 04  2 25  1 47 30.0000000  0  8G14G 9G18G 3G21G31G22G15
  22291350.854   -16540428.59549 -12869038.27746  22291350.349    22291354.322
  23921629.982    -8984611.37249  -6992076.08645  23921629.631    23921634.936
  21165702.300   -22687413.59749 -17664078.56847  21165701.810    21165704.725
  21686666.136   -17842770.36749 -13879662.32947  21686665.754    21686670.241
  21469996.744   -24649410.83249 -18929210.51847  21469996.111    21469999.081
  23935287.010    -8306731.89649  -6449137.80145  23935286.436    23935291.850
  20633028.453   -27469132.48849 -21389720.91548  20633028.172    20633029.623
  20271208.567   -30226417.65149 -23524181.30148  20271207.785    20271212.187
 04  2 25  1 48  0.0000000  0  8G14G 9G18G 3G21G31G22G15
  22272958.139   -16637082.94349 -12944353.29346  22272957.602    22272961.516
  23913593.811    -9026840.99449  -7024982.20345  23913593.534    23913598.796
  21174991.191   -22638600.14849 -17626042.10147  21174990.699    21174993.626
  21681953.635   -17867534.58249 -13898959.09647  21681953.276    21681957.772
  21480123.513   -24596194.27649 -18887743.07047  21480122.870    21480125.878
  23919477.539    -8389810.92349  -6513874.63445  23919477.001    23919482.303
  20632255.169   -27473196.06349 -21392887.32048  20632254.887    20632256.348
  20266000.075   -30253788.47949 -23545509.20148  20265999.301    20266003.705
 04  2 25  1 48 30.0000000  0  8G14G 9G18G 3G21G31G22G15
  22254622.984   -16733434.49449 -13019432.35246  22254622.476    22254626.361
  23905642.244    -9068626.05049  -7057541.90645  23905642.069    23905647.190
  21184317.340   -22589590.87749 -17587853.05047  21184316.823    21184319.774
  21677346.960   -17891742.71749 -13917822.55647  21677346.585    21677351.066
  21490310.381   -24542661.48949 -18846029.19947  21490309.788    21490312.813
  23903737.974    -8472522.69649  -6578325.31145  23903737.427    23903742.759
  20631537.989   -27476964.52449 -21395823.76848  20631537.734    20631539.231
  20260851.310   -30280845.26349 -23566592.38548  20260850.525    20260854.935
 04  2 25  1 49  0.0000000  0  8G14G 9G18G 3G21G31G22G15
  22236345.050   -16829484.98749 -13094276.83446  22236344.589    22236348.434
  23897775.188    -9109968.39849  -7089756.65945  23897774.875    23897780.046
  21193679.704   -22540391.30649 -17549515.71647  21193679.171    21193682.139
  21672845.510   -17915398.16249 -13936255.36247  21672845.112    21672849.537
  21500556.744   -24488816.56849 -18804072.11747  21500556.165    21500559.177
  23888067.997    -8554868.86449  -6642491.10545  23888067.435    23888072.727
  20630876.032   -27480442.81749 -21398534.11448  20630875.782    20630877.294
  20255761.817   -30307590.71149 -23587432.97748  20255761.038    20255765.453
 04  2 25  1 49 30.0000000  0  8G14G 9G18G 3G21G31G22G15
  22218125.541   -16925229.03549 -13168882.51746  22218125.052    22218128.897
  23889993.376    -9150862.53949  -7121622.16545  23889992.982    23889998.101
  21203078.577   -22490999.69249 -17511028.73147  21203078.084    21203081.041
  21668449.805   -17938497.53449 -13954254.85147  21668449.405    21668453.886
  21510863.054   -24434656.60849 -18761869.55247  21510862.470    21510865.465
  23872468.538    -8636843.99149  -6706367.78745  23872468.034    23872473.264
  20630269.678   -27483629.19049 -21401016.98648  20630269.432    20630270.954
  20250732.351   -30334020.58249 -23608027.66148  20250731.580    20250735.987
 04  2 25  1 50  0.0000000  0  8G14G 9G18G 3G21G31G22G15
  22199964.414   -17020665.88849 -13243248.82746  22199963.925    22199967.734
  23882296.850    -9191307.74049  -7153137.83845  23882296.411    23882301.548
  21212513.446   -22441419.06849 -17472394.47147  21212512.943    21212515.919
  21664159.748   -17961041.79349 -13971821.79447  21664159.374    21664163.801
  21521228.915   -24380183.56349 -18719423.02247  21521228.334    21521231.321
  23856939.832    -8718447.48849  -6769954.88745  23856939.345    23856944.616
  20629718.313   -27486526.51349 -21403274.62548  20629718.073    20629719.574
  20245762.908   -30360135.15249 -23628376.66148  20245762.131    20245766.532
 04  2 25  1 50 30.0000000  0  8G14G 9G18G 3G21G31G22G15
  22181862.512   -17115792.36249 -13317373.28446  22181861.977    22181865.694
  23874686.351    -9231300.65649  -7184301.09245  23874685.999    23874690.923
  21221984.181   -22391650.08149 -17433613.42947  21221983.666    21221986.634
  21659975.685   -17983029.34649 -13988954.94047  21659975.281    21659979.679
  21531654.537   -24325396.38649 -18676731.70747  21531653.966    21531656.980
  23841482.479    -8799676.04449  -6833249.80945  23841481.896    23841487.247
  20629221.974   -27489134.77949 -21405307.02348  20629221.737    20629223.234
  20240853.857   -30385932.17749 -23648478.22248  20240853.079    20240857.490
 04  2 25  1 51  0.0000000  0  8G14G 9G18G 3G21G31G22G15
  22163820.131   -17210605.08149 -13391253.24147  22163819.637    22163823.397
  23867162.669    -9270837.80249  -7215109.16045  23867162.367    23867167.255
  21231490.657   -22341692.97049 -17394685.80347  21231490.145    21231493.129
  21655897.791   -18004458.43449 -14005652.90747  21655897.394    21655901.880
  21542140.156   -24270294.18849 -18633794.92847  21542139.567    21542142.581
  23826097.115    -8880526.30149  -6896249.94045  23826096.417    23826101.850
  20628780.606   -27491454.12849 -21407114.29148  20628780.363    20628781.864
  20236005.697   -30411409.29649 -23668330.50248  20236004.935    20236009.344
 04  2 25  1 51 30.0000000  0  8G14G 9G18G 3G21G31G22G15
  22145837.289   -17305105.48549 -13464889.85447  22145836.746    22145840.473
  23859725.410    -9309920.74049  -7245563.33345  23859725.037    23859729.901
  21241031.972   -22291553.11449 -17355615.78247  21241031.450    21241034.412
  21651925.540   -18025332.52949 -14021918.42747  21651925.174    21651929.638
  21552684.995   -24214880.65549 -18590615.54947  21552684.367    21552687.364
  23810783.469    -8960999.68849  -6958956.42445  23810782.868    23810788.248
  20628393.239   -27493489.62549 -21408700.37448  20628393.011    20628394.506
  20231217.923   -30436569.07049 -23687935.50548  20231217.150    20231221.570
 04  2 25  1 52  0.0000000  0  8G14G 9G18G 3G21G31G22G15
  22127915.198   -17399285.71549 -13538276.96347  22127914.734    22127918.547
  23852376.030    -9348541.39949  -7275657.29545  23852375.734    23852380.637
  21250608.848   -22241226.10549 -17316399.92947  21250608.340    21250611.311
  21648060.157   -18045645.76849 -14037746.91147  21648059.740    21648064.135
  21563290.069   -24159150.67149 -18547189.57847  21563289.465    21563292.422
  23795543.146    -9041088.26249  -7021363.05745  23795542.559    23795547.849
  20628060.791   -27495236.60449 -21410061.63848  20628060.571    20628062.047
  20226491.860   -30461404.50849 -23707287.77648  20226491.092    20226495.507
 04  2 25  1 52 30.0000000  0  8G14G 9G18G 3G21G31G22G15
  22110054.157   -17493145.83249 -13611414.64547  22110053.679    22110057.458
  23845114.628    -9386699.89249  -7305391.11345  23845114.430    23845119.209
  21260220.641   -22190715.72249 -17277041.18947  21260220.136    21260223.111
  21644300.992   -18065399.78949 -14053139.64547  21644300.593    21644305.020
  21573954.870   -24103106.69849 -18503518.95147  21573954.262    21573957.244
  23780375.984    -9120792.24849  -7083470.00745  23780375.359    23780380.562
  20627782.583   -27496698.70549 -21411200.91848  20627782.353    20627783.787
  20221827.345   -30485916.69849 -23726388.16848  20221826.561    20221830.975
 04  2 25  1 53  0.0000000  0  8G14G 9G18G 3G21G31G22G15
  22092254.352   -17586684.06349 -13684301.49947  22092253.881    22092257.704
  23837941.629    -9424394.57149  -7334763.52045  23837941.267    23837946.172
  21269866.908   -22140024.20049 -17237541.29847  21269866.388    21269869.365
  21640648.407   -18084594.54549 -14068096.58947  21640648.011    21640652.424
  21584679.335   -24046749.26249 -18459604.05847  21584678.728    21584681.737
  23765282.133    -9200109.70849  -7145275.75645  23765281.618    23765286.749
  20627558.242   -27497877.52249 -21412119.45548  20627557.999    20627559.408
  20217224.460   -30510104.76649 -23745235.99148  20217223.707    20217228.111
 04  2 25  1 53 30.0000000  0  8G14G 9G18G 3G21G31G22G15
  22074516.081   -17679898.93649 -13756936.40347  22074515.621    22074519.461
  23830856.893    -9461623.82149  -7363773.27945  23830856.572    23830861.587
  21279547.318   -22089153.47149 -17197901.76047  21279546.776    21279549.723
  21637102.177   -18103230.45849 -14082618.07347  21637101.766    21637106.074
  21595463.262   -23990079.52349 -18415445.82147  21595462.652    21595465.631
  23750262.226    -9279039.09049  -7206779.11345  23750261.696    23750266.805
  20627387.503   -27498774.86549 -21412818.67148  20627387.257    20627388.661
  20212683.398   -30533968.17049 -23763830.83348  20212682.661    20212687.047
 04  2 25  1 54  0.0000000  0  8G14G 9G18G 3G21G31G22G15
  22056840.748   -17772783.26249 -13829313.72947  22056840.277    22056844.150
  23823862.206    -9498380.51649  -7392414.78945  23823861.963    23823866.966
  21289262.450   -22038100.05749 -17158119.86647  21289261.921    21289264.866
  21633663.084   -18121302.48949 -14096700.16447  21633662.697    21633667.064
  21606307.467   -23933092.76949 -18371040.55347  21606306.855    21606309.828
  23735317.659    -9357573.27549  -7267974.50445  23735317.181    23735322.279
  20627270.950   -27499387.18349 -21413295.78548  20627270.698    20627272.123
  20208205.292   -30557500.77549 -23782167.91448  20208204.541    20208208.925
 04  2 25  1 54 30.0000000  0  8G14G 9G18G 3G21G31G22G15
  22039227.867   -17865339.29949 -13901435.25347  22039227.331    22039231.263
  23816957.160    -9534666.94749  -7420689.85045  23816956.904    23816961.784
  21299011.284   -21986869.51149 -17118199.94647  21299010.762    21299013.719
  21630330.603   -18138814.68349 -14110346.01947  21630330.244    21630334.610
  21617211.184   -23875793.29749 -18326391.61347  21617210.596    21617213.567
  23720447.933    -9435714.47749  -7328863.67745  23720447.446    23720452.538
  20627207.627   -27499719.81449 -21413554.96048  20627207.382    20627208.842
  20203789.522   -30580705.79749 -23800249.73148  20203788.758    20203793.119
 04  2 25  1 55  0.0000000  0  8G14G 9G18G 3G21G31G22G15
  22021678.061   -17957564.04149 -13973298.64347  22021677.530    22021681.385
  23810141.988    -9570480.27149  -7448596.31145  23810141.792    23810146.741
  21308793.606   -21935462.98449 -17078142.90247  21308793.099    21308796.034
  21627104.972   -18155765.93349 -14123554.78047  21627104.547    21627108.929
  21628174.448   -23818180.94349 -18281498.86647  21628173.837    21628176.819
  23705653.482    -9513459.86349  -7389444.41445  23705652.928    23705658.047
  20627197.364   -27499773.60849 -21413596.86548  20627197.129    20627198.608
  20199436.443   -30603581.26249 -23818074.75248  20199435.672    20199440.044
 04  2 25  1 55 30.0000000  0  8G14G 9G18G 3G21G31G22G15
  22004191.803   -18049454.45949 -14044901.51347  22004191.295    22004195.143
  23803417.442    -9605817.49249  -7476131.77645  23803417.227    23803422.226
  21318609.379   -21883880.63349 -17037948.85247  21318608.864    21318611.838
  21623986.150   -18172154.86849 -14136325.37347  21623985.736    21623990.153
  21639197.383   -23760254.97849 -18236361.74747  21639196.786    21639199.753
  23690934.920    -9590806.20749  -7449714.22445  23690934.417    23690939.524
  20627240.164   -27499548.74049 -21413421.62848  20627239.909    20627241.378
  20195146.548   -30626124.85149 -23835641.17248  20195145.782    20195150.157
 04  2 25  1 56  0.0000000  0  8G14G 9G18G 3G21G31G22G15
  21986769.852   -18141007.70149 -14116241.65347  21986769.297    21986773.095
  23796784.205    -9640675.92449  -7503294.12345  23796783.968    23796788.734
  21328458.452   -21832123.38749 -16997618.52147  21328457.936    21328460.904
  21620974.561   -18187980.72049 -14148657.20047  21620974.181    21620978.630
  21650280.073   -23702015.02849 -18190979.96047  21650279.474    21650282.419
  23676292.821    -9667750.91549  -7509671.07145  23676292.364    23676297.381
  20627335.868   -27499045.75649 -21413029.68048  20627335.623    20627337.078
  20190920.097   -30648334.98049 -23852947.75248  20190919.327    20190923.663
 04  2 25  1 56 30.0000000  0  8G14G 9G18G 3G21G31G22G15
  21969412.424   -18232221.17849 -14187317.03547  21969411.913    21969415.677
  23790242.506    -9675052.76649  -7530081.21745  23790242.258    23790246.839
  21338340.626   -21780192.27449 -16957152.70447  21338340.085    21338343.084
  21618070.351   -18203242.73349 -14160549.67647  21618069.952    21618074.334
  21661422.627   -23643460.83249 -18145353.31047  21661421.980    21661424.927
  23661727.690    -9744291.04849  -7569312.67345  23661727.178    23661732.188
  20627484.383   -27498265.25649 -21412421.48048  20627484.120    20627485.560
  20186757.506   -30670209.61349 -23869992.89548  20186756.719    20186761.047
 04  2 25  1 57  0.0000000  0  8G14G 9G18G 3G21G31G22G15
  21952119.917   -18323093.92049 -14258126.91047  21952119.364    21952123.072
  23783792.577    -9708947.15149  -7556492.36545  23783792.314    23783796.909
  21348255.374   -21728089.88449 -16916553.43347  21348254.831    21348257.826
  21615273.083   -18217942.09349 -14172003.71747  21615272.668    21615277.135
  21672624.580   -23584593.96049 -18099483.02247  21672623.964    21672626.880
  23647239.692    -9820425.55449  -7628638.21645  23647239.147    23647244.128
  20627685.229   -27497209.71149 -21411598.96848  20627684.961    20627686.420
  20182658.747   -30691748.77649 -23886776.64448  20182657.977    20182662.275
 04  2 25  1 57 30.0000000  0  8G14G 9G18G 3G21G31G22G15
  21934893.018   -18413621.52149 -14328667.84847  21934892.510    21934896.175
  23777435.230    -9742354.81049  -7582524.27145  23777434.964    23777439.566
  21358202.842   -21675815.37549 -16875820.03847  21358202.304    21358205.312
  21612583.388   -18232076.26349 -14183017.35747  21612583.020    21612587.469
  21683886.415   -23525412.42849 -18053367.53347  21683885.808    21683888.771
  23632829.832    -9896150.27949  -7687644.44445  23632829.233    23632834.103
  20627938.580   -27495878.24049 -21410561.44648  20627938.325    20627939.748
  20178624.456   -30712949.07549 -23903296.34848  20178623.679    20178627.976
 04  2 25  1 58  0.0000000  0  8G14G 9G18G 3G21G31G22G15
  21917731.761   -18503804.09149 -14398939.91447  21917731.281    21917734.969
  23771170.577    -9775276.17749  -7608177.18845  23771170.292    23771174.799
  21368182.339   -21623372.54749 -16834955.47747  21368181.826    21368184.851
  21610000.926   -18245647.26849 -14193592.15747  21610000.538    21610005.008
  21695207.623   -23465918.94849 -18007008.97347  21695206.981    21695209.993
  23618497.905    -9971465.32649  -7746331.43246  23618497.275    23618502.164
  20628243.831   -27494274.12149 -21409311.47048  20628243.564    20628244.982
  20174654.447   -30733811.50149 -23919552.77048  20174653.658    20174657.946
 04  2 25  1 58 30.0000000  0  8G14G 9G18G 3G21G31G22G15
  21900637.059   -18593637.19849 -14468939.68047  21900636.545    21900640.224
  23764999.177    -9807706.69049  -7633447.64745  23764998.905    23765003.485
  21378194.154   -21570760.10249 -16793958.75547  21378193.664    21378196.651
  21607526.053   -18258652.71849 -14203726.26447  21607525.691    21607530.191
  21706588.669   -23406111.22649 -17960405.55147  21706588.042    21706591.045
  23604244.726   -10046366.27349  -7804695.74446  23604244.092    23604248.923
  20628601.164   -27492396.39649 -21407848.28848  20628600.887    20628602.282
  20170749.420   -30754332.61249 -23935543.22648  20170748.631    20170752.905
 04  2 25  1 59  0.0000000  0  8G14G 9G18G 3G21G31G22G15
  21883609.223   -18683118.88649 -14538665.62347  21883608.693    21883612.355
  23758921.627    -9839644.41349  -7658334.12145  23758921.331    23758925.877
  21388237.857   -21517980.14749 -16752831.50847  21388237.381    21388240.330
  21605158.802   -18271092.72849 -14213419.77347  21605158.440    21605162.892
  21718029.457   -23345989.61049 -17913557.53647  21718028.831    21718031.811
  23590070.657   -10120851.02549  -7862735.75645  23590070.015    23590074.911
  20629010.282   -27490246.34049 -21406172.90848  20629010.014    20629011.372
  20166909.558   -30774511.09049 -23951266.70348  20166908.770    20166913.023
 04  2 25  1 59 30.0000000  0  8G14G 9G18G 3G21G31G22G15
  21866648.380   -18772248.27949 -14608117.05047  21866647.885    21866651.508
  23752938.017    -9871088.45449  -7682835.91045  23752937.703    23752942.138
  21398313.040   -21465034.54549 -16711575.17747  21398312.566    21398315.490
  21602899.004   -18282968.32049 -14222673.47547  21602898.634    21602903.074
  21729529.541   -23285556.00449 -17866466.40447  21729528.920    21729531.954
  23575976.011   -10194918.50249  -7920450.60745  23575975.402    23575980.284
  20629470.785   -27487826.19149 -21404287.06048  20629470.515    20629471.890
  20163134.906   -30794346.86049 -23966723.13048  20163134.133    20163138.398
 04  2 25  2  0  0.0000000  0  8G14G 9G18G 3G21G31G22G15
  21849755.034   -18861023.09349 -14677292.19047  21849754.550    21849758.198
  23747048.549    -9902036.93449  -7706951.55045  23747048.251    23747052.822
  21408419.488   -21411924.95949 -16670191.08247  21408419.020    21408421.923
  21600746.585   -18294279.33249 -14231487.24947  21600746.215    21600750.644
  21741089.056   -23224810.30549 -17819132.08747  21741088.428    21741091.492
  23561961.141   -10268566.77449  -7977838.83745  23561960.524    23561965.372
  20629982.459   -27485137.27249 -21402191.78648  20629982.191    20629983.586
  20159425.709   -30813838.74849 -23981911.60248  20159424.951    20159429.204
 04  2 25  2  0 30.0000000  0  8G14G 9G18G 3G21G31G22G15
  21832930.106   -18949438.48549 -14746187.25147  21832929.607    21832933.245
  23741254.345    -9932485.15449  -7730677.36045  23741254.182    23741258.655
  21418557.371   -21358649.86749 -16628678.01547  21418556.882    21418559.818
  21598702.109   -18305022.96749 -14239858.90247  21598701.740    21598706.160
  21752708.389   -23163750.36049 -17771552.90347  21752707.764    21752710.758
  23548027.077   -10341790.88149  -8034896.53145  23548026.461    23548031.230
  20630545.505   -27482178.13549 -21399885.94848  20630545.261    20630546.682
  20155782.761   -30832982.64249 -23996828.90448  20155781.993    20155786.243
 04  2 25  2  1  0.0000000  0  8G14G 9G18G 3G21G31G22G15
  21816173.581   -19037494.64849 -14814802.40947  21816173.067    21816176.707
  23735555.428    -9962433.29849  -7754013.51745  23735555.207    23735559.475
  21428726.149   -21305212.75149 -16587038.71147  21428725.652    21428728.587
  21596765.205   -18315201.26249 -14247790.03447  21596764.861    21596769.316
  21764387.085   -23102378.62649 -17723730.76247  21764386.429    21764389.404
  23534173.642   -10414590.95549  -8091623.81845  23534173.031    23534177.727
  20631159.359   -27478952.10149 -21397372.14048  20631159.136    20631160.567
  20152205.865   -30851779.38449 -24011475.71048  20152205.079    20152209.327
 04  2 25  2  1 30.0000000  0  8G14G 9G18G 3G21G31G22G15
  21799486.452   -19125186.14249 -14883133.40747  21799485.910    21799489.519
  23729952.498    -9991876.28049  -7776956.04745  23729952.246    23729956.569
  21438926.105   -21251611.52749 -16545271.52847  21438925.621    21438928.565
  21594936.537   -18324811.08049 -14255278.20647  21594936.187    21594940.583
  21776125.609   -23040692.21549 -17675663.41447  21776124.933    21776127.923
  23520401.952   -10486961.46049  -8148016.37245  23520401.385    23520406.066
  20631824.498   -27475456.98849 -21394648.65948  20631824.245    20631825.701
  20148695.843   -30870224.60049 -24025848.59348  20148695.059    20148699.290
 04  2 25  2  2  0.0000000  0  8G14G 9G18G 3G21G31G22G15
  21782868.042   -19212516.01949 -14951182.63447  21782867.535    21782871.096
  23724445.098   -10020817.47749  -7799507.57445  23724444.888    23724449.324
  21449155.909   -21197853.39349 -16503382.07747  21449155.449    21449158.393
  21593214.997   -18333857.72749 -14262327.53547  21593214.629    21593219.028
  21787922.921   -22978696.74349 -17627355.24747  21787922.285    21787925.266
  23506711.351   -10558905.72449  -8204076.79045  23506710.732    23506715.468
  20632539.586   -27471699.30749 -21391720.58348  20632539.320    20632540.749
  20145251.946   -30888322.39149 -24039950.75348  20145251.143    20145255.377
 04  2 25  2  2 30.0000000  0  8G14G 9G18G 3G21G31G22G15
  21766319.710   -19299477.76349 -15018944.98747  21766319.241    21766322.803
  23719034.579   -10049250.29749  -7821662.96545  23719034.324    23719038.693
  21459416.380   -21143934.26149 -16461367.16247  21459415.916    21459418.834
  21591601.575   -18342336.37049 -14268934.25947  21591601.245    21591605.615
  21799779.951   -22916387.81949 -17578802.81947  21799779.317    21799782.283
  23493103.135   -10630417.04949  -8259799.84245  23493102.494    23493107.265
  20633305.320   -27467675.35049 -21388585.01248  20633305.050    20633306.463
  20141875.254   -30906066.94349 -24053777.65648  20141874.471    20141878.695
 04  2 25  2  3  0.0000000  0  8G14G 9G18G 3G21G31G22G15
  21749842.022   -19386068.54549 -15086418.28947  21749841.538    21749845.092
  23713721.053   -10077172.31949  -7843420.33645  23713720.803    23713725.112
  21469707.315   -21089855.07549 -16419227.53647  21469706.851    21469709.753
  21590096.344   -18350246.69149 -14275098.14047  21590095.978    21590100.314
  21811696.596   -22853765.33149 -17530006.07447  21811695.957    21811698.931
  23479577.790   -10701492.66049  -8315183.38945  23479577.277    23479581.993
  20634121.555   -27463386.09149 -21385242.72748  20634121.265    20634122.659
  20138566.131   -30923456.34349 -24067327.83048  20138565.361    20138569.567
 04  2 25  2  3 30.0000000  0  8G14G 9G18G 3G21G31G22G15
  21733434.767   -19472289.14549 -15153603.13247  21733434.306    21733437.830
  23708504.595   -10104584.33249  -7864780.28945  23708504.444    23708508.623
  21480027.951   -21035620.04949 -16376966.46747  21480027.466    21480030.352
  21588698.649   -18357591.32049 -14280821.22147  21588698.265    21588702.657
  21823672.348   -22790832.05149 -17480967.14447  21823671.756    21823674.716
  23466135.321   -10772133.13349  -8370227.88245  23466134.843    23466139.496
  20634987.513   -27458835.19549 -21381696.56648  20634987.236    20634988.629
  20135324.391   -30940491.79649 -24080602.20548  20135323.616    20135327.834
 04  2 25  2  4  0.0000000  0  8G14G 9G18G 3G21G31G22G15
  21717098.550   -19558136.54149 -15220497.17347  21717098.056    21717101.534
  23703385.792   -10131483.65549  -7885740.75545  23703385.627    23703389.900
  21490378.108   -20981229.75649 -16334584.41147  21490377.591    21490380.461
  21587408.754   -18364369.80249 -14286103.15047  21587408.408    21587412.742
  21835707.351   -22727587.91549 -17431685.98847  21835706.735    21835709.659
  23452776.265   -10842335.82449  -8424931.24346  23452775.781    23452780.337
  20635903.172   -27454023.12649 -21377946.89048  20635902.912    20635904.299
  20132150.307   -30957171.52849 -24093599.39548  20132149.533    20132153.779
 04  2 25  2  4 30.0000000  0  8G14G 9G18G 3G21G31G22G15
  21700833.412   -19643610.12549 -15287099.92547  21700832.946    21700836.404
  23698364.688   -10157869.86449  -7906301.38145  23698364.634    23698368.794
  21500757.372   -20926686.25449 -16292082.96947  21500756.876    21500759.723
  21586226.380   -18370583.43149 -14290944.92847  21586226.017    21586230.324
  21847801.172   -22664034.39549 -17382163.75647  21847800.553    21847803.516
  23439500.647   -10912099.91149  -8479292.82745  23439500.112    23439504.700
  20636868.143   -27448952.19549 -21373995.50448  20636867.874    20636869.274
  20129043.945   -30973495.46049 -24106319.32348  20129043.163    20129047.415
 04  2 25  2  5  0.0000000  0  8G14G 9G18G 3G21G31G22G15
  21684640.571   -19728703.73349 -15353406.59547  21684640.126    21684643.605
  23693442.211   -10183736.93649  -7926457.48345  23693442.071    23693446.304
  21511166.317   -20871986.85649 -16249460.05347  21511165.810    21511168.676
  21585152.241   -18376227.92849 -14295343.22247  21585151.861    21585156.230
  21859954.570   -22600167.42849 -17332397.27647  21859953.979    21859957.040
  23426309.590   -10981419.05149  -8533307.70845  23426309.034    23426313.615
  20637882.912   -27443619.35049 -21369840.02748  20637882.651    20637884.077
  20126006.271   -30989458.27849 -24118757.86048  20126005.516    20126009.775
 04  2 25  2  5 30.0000000  0  8G14G 9G18G 3G21G31G22G15
  21668520.166   -19813417.10649 -15419416.97047  21668519.666    21668523.183
  23688618.628   -10209084.91349  -7946209.09945  23688618.560    23688622.626
  21521604.298   -20817134.63849 -16206718.05747  21521603.794    21521606.676
  21584186.035   -18381305.42349 -14299299.70947  21584185.669    21584190.011
  21872167.172   -22535989.80249 -17282388.73147  21872166.564    21872169.564
  23413203.221   -11050293.20249  -8586975.83345  23413202.697    23413207.270
  20638946.933   -27438027.69149 -21365482.88148  20638946.685    20638948.144
  20123037.236   -31005060.60049 -24130915.49748  20123036.482    20123040.738
 04  2 25  2  6  0.0000000  0  8G14G 9G18G 3G21G31G22G15
  21652472.365   -19897748.45949 -15485129.67147  21652471.905    21652475.418
  23683893.941   -10233912.30449  -7965555.07345  23683893.921    23683898.109
  21532071.083   -20762131.22049 -16163858.24247  21532070.578    21532073.489
  21583327.602   -18385816.46849 -14302814.80647  21583327.234    21583331.508
  21884438.838   -22471502.04449 -17232138.52347  21884438.219    21884441.125
  23400181.906   -11118720.59749  -8640295.84345  23400181.362    23400185.926
  20640059.933   -27432178.72049 -21360925.23148  20640059.684    20640061.143
  20120136.990   -31020301.42749 -24142791.45748  20120136.240    20120140.494
 04  2 25  2  6 30.0000000  0  8G14G 9G18G 3G21G31G22G15
  21636497.936   -19981694.56349 -15550542.17347  21636497.475    21636500.953
  23679269.029   -10258216.36749  -7984493.23845  23679268.874    23679273.280
  21542566.551   -20706976.86649 -16120880.81647  21542566.062    21542569.019
  21582577.120   -18389759.99749 -14305887.67147  21582576.753    21582581.146
  21896769.661   -22406703.23049 -17181645.92747  21896769.022    21896771.930
  23387246.191   -11186698.11349  -8693265.31545  23387245.697    23387250.156
  20641221.899   -27426072.62549 -21356167.22548  20641221.640    20641223.099
  20117306.008   -31035178.43349 -24154383.92348  20117305.249    20117309.488
 04  2 25  2  7  0.0000000  0  8G14G 9G18G 3G21G31G22G15
  21620597.037   -20065254.32949 -15615653.63347  21620596.543    21620599.997
  23674743.783   -10281996.01249  -8003022.77845  23674743.696    23674748.093
  21553090.474   -20651673.04249 -16077786.91747  21553090.006    21553092.981
  21581934.436   -18393137.02249 -14308519.11047  21581934.078    21581938.542
  21909159.323   -22341594.49449 -17130911.84247  21909158.725    21909161.696
  23374396.424   -11254224.36349  -8745883.13345  23374395.852    23374400.319
  20642432.433   -27419711.16849 -21351210.23548  20642432.172    20642433.595
  20114544.363   -31049690.84849 -24165692.28448  20114543.591    20114547.843
 04  2 25  2  7 30.0000000  0  8G14G 9G18G 3G21G31G22G15
  21604770.015   -20148425.59549 -15680462.35947  21604769.549    21604772.974
  23670318.872   -10305249.10049  -8021142.04145  23670318.670    23670322.965
  21563642.586   -20596221.27149 -16034577.73547  21563642.101    21563645.061
  21581399.644   -18395947.68349 -14310709.23447  21581399.258    21581403.666
  21921608.095   -22276175.97849 -17079936.37047  21921607.497    21921610.462
  23361632.842   -11321297.21449  -8798147.64445  23361632.279    23361636.801
  20643691.397   -27413095.24149 -21346054.96048  20643691.140    20643692.534
  20111852.377   -31063837.38749 -24176715.55348  20111851.605    20111855.857
 04  2 25  2  8  0.0000000  0  8G14G 9G18G 3G21G31G22G15
  21589017.599   -20231205.23349 -15744965.92147  21589017.114    21589020.489
  23665994.618   -10327973.08549  -8038848.98745  23665994.483    23665998.663
  21574222.904   -20540621.28549 -15991253.06447  21574222.437    21574225.388
  21580972.721   -18398191.26849 -14312457.48047  21580972.324    21580976.711
  21934115.878   -22210447.10549 -17028719.06447  21934115.298    21934118.219
  23348956.064   -11387913.64049  -8850056.51845  23348955.545    23348960.073
  20644998.778   -27406224.99349 -21340701.50948  20644998.515    20644999.895
  20109230.407   -31077615.84449 -24187452.00748  20109229.620    20109233.882
 04  2 25  2  8 30.0000000  0  8G14G 9G18G 3G21G31G22G15
  21573339.906   -20313591.86849 -15809163.25347  21573339.448    21573342.788
  23661771.194   -10350166.89349  -8056142.80645  23661771.047    23661775.226
  21584831.111   -20484874.97949 -15947814.37847  21584830.613    21584833.539
  21580653.497   -18399868.43149 -14313764.35347  21580653.125    21580657.573
  21946682.426   -22144409.21049 -16977260.95847  21946681.839    21946684.738
  23336366.452   -11454072.25149  -8901608.64045  23336365.940    23336370.415
  20646354.204   -27399102.08249 -21335151.18648  20646353.956    20646355.304
  20106678.594   -31091025.57949 -24197901.14548  20106677.817    20106682.077
 04  2 25  2  9  0.0000000  0  8G14G 9G18G 3G21G31G22G15
  21557737.072   -20395585.21449 -15873054.11847  21557736.619    21557739.923
  23657648.758   -10371830.55049  -8073023.53145  23657648.601    23657652.780
  21595466.540   -20428985.34449 -15904264.00747  21595466.040    21595468.976
  21580441.802   -18400981.03349 -14314631.31147  21580441.421    21580445.858
  21959307.523   -22078064.04349 -16925563.42447  21959306.928    21959309.835
  23323864.102   -11519772.79549  -8952803.82945  23323863.536    23323867.942
  20647757.229   -27391729.30149 -21329406.15348  20647756.955    20647758.291
  20104196.868   -31104066.88749 -24208063.19348  20104196.115    20104200.374
 04  2 25  2  9 30.0000000  0  8G14G 9G18G 3G21G31G22G15
  21542210.302   -20477179.21249 -15936633.80647  21542209.818    21542213.081
  23653628.153   -10392958.36149  -8089486.71345  23653627.964    23653632.339
  21606129.783   -20372949.54649 -15860599.74347  21606129.288    21606132.221
  21580338.155   -18401525.55049 -14315055.60547  21580337.803    21580342.190
  21971991.781   -22011407.97049 -16873623.62647  21971991.177    21971994.111
  23311449.976   -11585009.20249  -9003637.36645  23311449.380    23311453.779
  20649208.341   -27384103.54249 -21323463.99648  20649208.061    20649209.406
  20101786.251   -31116734.81749 -24217934.29148  20101785.503    20101789.774
 04  2 25  2 10  0.0000000  0  8G14G 9G18G 3G21G31G22G15
  21526759.109   -20558375.34549 -15999903.47147  21526758.615    21526761.917
  23649709.352   -10413552.14749  -8105533.78945  23649709.127    23649713.426
  21616820.039   -20316771.98049 -15816825.00747  21616819.567    21616822.458
  21580341.917   -18401505.52149 -14315039.99447  21580341.590    21580345.977
  21984734.427   -21944444.98249 -16821444.66647  21984733.815    21984736.727
  23299123.899   -11649782.97049  -9054110.40146  23299123.352    23299127.788
  20650706.624   -27376229.66749 -21317328.50048  20650706.373    20650707.757
  20099446.293   -31129031.49649 -24227516.10448  20099445.523    20099449.788
 04  2 25  2 10 30.0000000  0  8G14G 9G18G 3G21G31G22G15
  21511384.463   -20639169.21349 -16062859.68947  21511384.009    21511387.263
  23645892.903   -10433607.77649  -8121161.48645  23645892.539    23645896.846
  21627537.461   -20260451.34249 -15772938.78647  21627536.978    21627539.910
  21580453.613   -18400919.04849 -14314582.99847  21580453.253    21580457.621
  21997535.843   -21877172.95149 -16769024.89847  21997535.223    21997538.176
  23286886.703   -11714089.70949  -9104219.51246  23286886.194    23286890.617
  20652252.434   -27368106.23549 -21310998.54448  20652252.203    20652253.599
  20097177.696   -31140953.07649 -24236805.63848  20097176.914    20097181.155
 04  2 25  2 11  0.0000000  0  8G14G 9G18G 3G21G31G22G15
  21496086.301   -20719561.67849 -16125503.12547  21496085.839    21496089.035
  23642178.535   -10453126.60449  -8136370.93145  23642178.180    23642182.480
  21638281.412   -20203991.46649 -15728944.06747  21638280.950    21638283.867
  21580672.481   -18399769.26949 -14313687.06847  21580672.092    21580676.431
  22010395.494   -21809595.29749 -16716366.98547  22010394.860    22010397.782
  23274738.315   -11777930.24749  -9153965.36546  23274737.744    23274742.141
  20653845.020   -27359737.20149 -21304477.21248  20653844.781    20653846.159
  20094980.173   -31152500.95049 -24245803.97148  20094979.395    20094983.638
 04  2 25  2 11 30.0000000  0  8G14G 9G18G 3G21G31G22G15
  21480865.460   -20799547.76049 -16187829.89047  21480864.947    21480868.155
  23638567.297   -10472104.07449  -8151158.53545  23638566.970    23638571.264
  21649052.145   -20147390.75749 -15684839.60347  21649051.673    21649054.617
  21580998.825   -18398053.74149 -14312350.27947  21580998.486    21581002.830
  22023313.743   -21741709.21249 -16663468.72646  22023313.118    22023316.056
  23262679.474   -11841299.75449  -9203344.16646  23262678.873    23262683.288
  20655484.732   -27351120.58549 -21297762.95248  20655484.476    20655485.850
  20092854.540   -31163671.14449 -24254508.00348  20092853.767    20092858.000
 04  2 25  2 12  0.0000000  0  8G14G 9G18G 3G21G31G22G15
  21465722.237   -20879125.18349 -16249838.23547  21465721.790    21465725.040
  23635059.372   -10490538.10249  -8165522.65845  23635059.059    23635063.310
  21659849.627   -20090649.49849 -15640625.62547  21659849.149    21659852.142
  21581432.950   -18395772.40149 -14310572.61347  21581432.605    21581436.891
  22036290.607   -21673514.79549 -16610330.21946  22036290.014    22036293.028
  23250710.699   -11904195.87049  -9252354.08446  23250710.039    23250714.541
  20657171.453   -27342256.80649 -21290856.09548  20657171.188    20657172.577
  20090801.121   -31174461.90349 -24262916.37748  20090800.348    20090804.589
 04  2 25  2 12 30.0000000  0  8G14G 9G18G 3G21G31G22G15
  21450656.962   -20958293.71449 -16311527.95947  21450656.510    21450659.698
  23631654.950   -10508428.81349  -8179463.43245  23631654.636    23631658.880
  21670673.307   -20033770.63249 -15596304.42047  21670672.815    21670675.799
  21581974.489   -18392927.20249 -14308355.57947  21581974.100    21581978.346
  22049325.795   -21605014.27349 -16556953.18746  22049325.230    22049328.263
  23238832.075   -11966618.27749  -9300994.89446  23238831.462    23238835.953
  20658904.590   -27333149.02749 -21283759.11448  20658904.338    20658905.721
  20088819.854   -31184873.56349 -24271029.34948  20088819.080    20088823.302
 04  2 25  2 13  0.0000000  0  8G14G 9G18G 3G21G31G22G15
  21435670.074   -21037050.38949 -16372896.75447  21435669.575    21435672.740
  23628354.385   -10525773.88049  -8192979.04545  23628353.892    23628358.320
  21681523.128   -19976754.39449 -15551876.17247  21681522.634    21681525.590
  21582623.291   -18389517.45849 -14305698.62947  21582622.891    21582627.208
  22062419.369   -21536207.11149 -16503337.21346  22062418.795    22062421.855
  23227044.172   -12028564.16149  -9349264.38646  23227043.562    23227047.991
  20660684.171   -27323797.25449 -21276472.00648  20660683.916    20660685.298
  20086911.117   -31194903.94749 -24278845.22248  20086910.351    20086914.574
 04  2 25  2 13 30.0000000  0  8G14G 9G18G 3G21G31G22G15
  21420761.480   -21115394.98649 -16433944.44947  21420761.016    21420764.224
  23625157.180   -10542573.55949  -8206069.65645  23625156.934    23625161.353
  21692398.572   -19919603.64349 -15507343.10747  21692398.085    21692400.984
  21583379.063   -18385545.44549 -14302603.54947  21583378.708    21583383.001
  22075570.875   -21467095.56949 -16449484.05946  22075570.281    22075573.313
  23215346.907   -12090033.39049  -9397162.45946  23215346.320    23215350.726
  20662509.629   -27314204.28849 -21268996.95348  20662509.372    20662510.751
  20085074.843   -31204553.63249 -24286364.43948  20085074.063    20085078.291
 04  2 25  2 14  0.0000000  0  8G14G 9G18G 3G21G31G22G15
  21405932.203   -21193323.25849 -16494667.74547  21405931.732    21405934.921
  23622065.288   -10558823.82449  -8218732.16145  23622064.765    23622068.937
  21703299.927   -19862316.68149 -15462703.90547  21703299.428    21703302.280
  21584242.357   -18381009.21149 -14299068.82747  21584241.950    21584246.193
  22088780.703   -21397677.38649 -16395391.97146  22088780.096    22088783.109
  23203741.123   -12151021.67349  -9444685.75746  23203740.575    23203745.008
  20664381.335   -27304368.58649 -21261332.76248  20664381.087    20664382.413
  20083311.680   -31213818.99349 -24293584.19048  20083310.893    20083315.136
 04  2 25  2 14 30.0000000  0  8G14G 9G18G 3G21G31G22G15
  21391182.441   -21270833.84649 -16555065.56747  21391181.933    21391185.101
  23619077.482   -10574523.69049  -8230965.80545  23619077.063    23619081.420
  21714226.857   -19804895.09549 -15417959.80647  21714226.354    21714229.225
  21585212.744   -18375909.79249 -14295095.25247  21585212.318    21585216.632
  22102048.659   -21327953.85649 -16341061.93946  22102048.050    22102051.032
  23192227.208   -12211527.61149  -9491833.19246  23192226.705    23192231.115
  20666298.855   -27294291.81549 -21253480.71848  20666298.609    20666299.925
  20081621.820   -31222699.18949 -24300503.80848  20081621.043    20081625.273
 04  2 25  2 15  0.0000000  0  8G14G 9G18G 3G21G31G22G15
  21376512.080   -21347926.58149 -16615137.79947  21376511.609    21376514.810
  23616194.329   -10589673.22849  -8242770.60845  23616194.049    23616198.395
  21725179.008   -19747341.26349 -15373112.65247  21725178.512    21725181.336
  21586289.777   -18370249.50249 -14290684.62947  21586289.383    21586293.767
  22115374.396   -21257926.90649 -16286495.48746  22115373.745    22115376.739
  23180805.139   -12271550.95749  -9538604.58546  23180804.584    23180809.079
  20668261.772   -27283976.56549 -21245442.85048  20668261.520    20668262.828
  20080005.190   -31231194.52949 -24307123.54348  20080004.412    20080008.650
 04  2 25  2 15 30.0000000  0  8G14G 9G18G 3G21G31G22G15
  21361922.681   -21424594.28949 -16674878.83347  21361922.199    21361925.396
  23613417.480   -10604266.05949  -8254141.61045  23613417.122    23613421.429
  21736157.015   -19689651.43649 -15328159.52147  21736156.512    21736159.347
  21587474.558   -18364023.66449 -14285833.33647  21587474.173    21587478.452
  22128758.700   -21187591.92249 -16231689.00046  22128758.079    22128761.074
  23169476.118   -12331084.80749  -9584994.55746  23169475.596    23169480.096
  20670270.841   -27273418.78249 -21237215.99548  20670270.579    20670271.909
  20078463.007   -31239298.67649 -24313438.45148  20078462.250    20078466.498
 04  2 25  2 16  0.0000000  0  8G14G 9G18G 3G21G31G22G15
  21347412.676   -21500844.78149 -16734294.76447  21347412.184    21347415.371
  23610745.023   -10618310.32549  -8265085.15945  23610744.602    23610748.915
  21747158.889   -19631836.07049 -15283108.57947  21747158.396    21747161.280
  21588764.979   -18357242.43149 -14280549.25847  21588764.560    21588768.858
  22142199.742   -21116959.00149 -16176650.35946  22142199.094    22142202.035
  23158238.826   -12390136.78049  -9631009.05246  23158238.306    23158242.811
  20672324.040   -27262629.08149 -21228808.42548  20672323.788    20672325.115
  20076993.686   -31247019.93149 -24319454.99748  20076992.927    20076997.165
 04  2 25  2 16 30.0000000  0  8G14G 9G18G 3G21G31G22G15
  21332984.263   -21576666.32249 -16793376.44847  21332983.783    21332986.956
  23608178.986   -10631794.76149  -8275592.49445  23608178.548    23608182.925
  21758186.315   -19573886.50349 -15237953.05947  21758185.811    21758188.691
  21590162.780   -18349896.39549 -14274825.06847  21590162.412    21590166.768
  22155699.308   -21046018.48049 -16121372.03146  22155698.629    22155701.555
  23147095.496   -12448695.26649  -9676638.99046  23147095.000    23147099.494
  20674423.067   -27251598.60349 -21220213.23348  20674422.805    20674424.157
  20075599.301   -31254347.34649 -24325164.65748  20075598.542    20075602.775
 04  2 25  2 17  0.0000000  0  8G14G 9G18G 3G21G31G22G15
  21318637.199   -21652060.66049 -16852125.24847  21318636.685    21318639.866
  23605719.245   -10644721.62749  -8285665.34445  23605718.632    23605722.906
  21769238.405   -19515807.35849 -15192696.57047  21769237.920    21769240.805
  21591667.434   -18341989.82149 -14268664.11147  21591667.070    21591671.383
  22169256.427   -20974774.75849 -16065857.44846  22169255.853    22169258.767
  23136045.708   -12506762.03449  -9721885.77546  23136045.159    23136049.774
  20676567.049   -27240331.89149 -21211433.96948  20676566.771    20676568.117
  20074279.457   -31261283.23949 -24330569.23548  20074278.696    20074282.894
 04  2 25  2 17 30.0000000  0  8G14G 9G18G 3G21G31G22G15
  21304371.225   -21727028.67349 -16910541.84747  21304370.721    21304373.904
  23603364.938   -10657092.44149  -8295304.90345  23603364.501    23603368.810
  21780314.463   -19457602.34949 -15147342.00447  21780313.992    21780316.873
  21593278.044   -18333526.09449 -14262069.00247  21593277.635    21593281.951
  22182870.796   -20903231.04249 -16010109.08946  22182870.189    22182873.120
  23125089.246   -12564338.14449  -9766750.22946  23125088.655    23125093.386
  20678755.231   -27228832.86849 -21202473.67848  20678754.956    20678756.295
  20073033.825   -31267829.22449 -24335669.98748  20073033.058    20073037.251
 04  2 25  2 18  0.0000000  0  8G14G 9G18G 3G21G31G22G15
  21290187.494   -21801564.53049 -16968621.70047  21290187.000    21290190.177
  23601117.669   -10668901.68449  -8304506.86245  23601117.326    23601121.561
  21791415.099   -19399268.24249 -15101886.85047  21791414.598    21791417.492
  21594995.209   -18324501.79849 -14255037.08247  21594994.826    21594999.214
  22196542.836   -20831383.85249 -15954124.25646  22196542.204    22196545.156
  23114227.318   -12621417.60749  -9811227.68846  23114226.704    23114231.443
  20680988.153   -27217098.45449 -21193329.96348  20680987.910    20680989.234
  20071863.315   -31273980.07249 -24340462.84448  20071862.559    20071866.785
 04  2 25  2 18 30.0000000  0  8G14G 9G18G 3G21G31G22G15
  21276086.188   -21875667.31149 -17026364.08847  21276085.673    21276088.877
  23598977.321   -10680149.15249  -8313271.10345  23598976.939    23598981.269
  21802539.873   -19340806.81849 -15056332.48647  21802539.396    21802542.304
  21596818.849   -18314918.62149 -14247569.67447  21596818.473    21596822.832
  22210272.437   -20759234.40249 -15897903.90846  22210271.819    22210274.747
  23103460.118   -12677999.73149  -9855317.62046  23103459.538    23103464.214
  20683265.557   -27205130.59049 -21184004.33948  20683265.303    20683266.630
  20070768.133   -31279735.33349 -24344947.45048  20070767.377    20070771.581
 04  2 25  2 19  0.0000000  0  8G14G 9G18G 3G21G31G22G15
  21262067.342   -21949336.48949 -17083768.61447  21262066.837    21262070.016
  23596943.791   -10690834.57549  -8321597.39345  23596943.426    23596947.961
  21813688.524   -19282220.31849 -15010680.65447  21813688.048    21813690.931
  21598748.557   -18304778.17049 -14239668.02747  21598748.168    21598752.550
  22224059.289   -20686784.24749 -15841449.24546  22224058.684    22224061.547
  23092787.590   -12734083.75049  -9899019.40046  23092786.987    23092791.749
  20685586.987   -27192931.46849 -21174498.52148  20685586.726    20685588.058
  20069748.191   -31285094.93249 -24349123.74348  20069747.433    20069751.645
 04  2 25  2 19 30.0000000  0  8G14G 9G18G 3G21G31G22G15
  21248131.417   -22022570.14649 -17140833.76347  21248130.905    21248134.080
  23595017.639   -10700956.72849  -8329484.75445  23595017.369    23595021.680
  21824860.803   -19223509.60649 -14964932.03047  21824860.314    21824863.179
  21600784.078   -18294081.22249 -14231332.73747  21600783.689    21600788.102
  22237903.156   -20614034.07849 -15784760.80346  22237902.521    22237905.420
  23082210.169   -12789667.99749  -9942331.78446  23082209.619    23082214.366
  20687952.208   -27180502.01949 -21164813.22348  20687951.949    20687953.273
  20068803.806   -31290057.73949 -24352990.85448  20068803.047    20068807.252
 04  2 25  2 20  0.0000000  0  8G14G 9G18G 3G21G31G22G15
  21234279.041   -22095364.71649 -17197556.77147  21234278.545    21234281.749
  23593199.315   -10710512.71049  -8336930.92245  23593198.949    23593202.981
  21836056.901   -19164673.71749 -14919085.86947  21836056.383    21836059.223
  21602925.768   -18282826.57049 -14222562.88447  21602925.396    21602929.773
  22251804.303   -20540982.65649 -15727837.60246  22251803.727    22251806.580
  23071728.510   -12844749.07749  -9985252.05846  23071727.975    23071732.692
  20690361.461   -27167841.43449 -21154947.81848  20690361.211    20690362.504
  20067935.513   -31294620.65949 -24356546.36748  20067934.738    20067938.938
 04  2 25  2 20 30.0000000  0  8G14G 9G18G 3G21G31G22G15
  21220510.224   -22167720.17949 -17253937.62147  21220509.717    21220512.951
  23591488.351   -10719502.78749  -8343936.14045  23591488.063    23591492.198
  21847276.286   -19105715.25949 -14873144.19847  21847275.806    21847278.614
  21605173.220   -18271016.66449 -14213360.36547  21605172.830    21605177.178
  22265762.449   -20467632.08649 -15670681.31746  22265761.864    22265764.695
  23061342.708   -12899326.65349 -10027780.01046  23061342.145    23061346.854
  20692814.162   -27154952.28749 -21144904.31648  20692813.893    20692815.196
  20067143.234   -31298783.89949 -24359790.44648  20067142.466    20067146.677
 04  2 25  2 21  0.0000000  0  8G14G 9G18G 3G21G31G22G15
  21206825.304   -22239634.55749 -17309974.77047  21206824.841    21206828.031
  23589885.496   -10727925.84349  -8350499.55245  23589885.212    23589889.471
  21858518.855   -19046635.12549 -14827107.71447  21858518.393    21858521.177
  21607525.989   -18258652.58149 -14203726.01247  21607525.591    21607529.984
  22279777.448   -20393982.82049 -15613292.28046  22279776.832    22279779.742
  23051053.059   -12953399.09149 -10069914.33246  23051052.498    23051057.174
  20695310.240   -27141835.29549 -21134683.26748  20695309.985    20695311.285
  20066427.259   -31302546.32349 -24362722.18648  20066426.502    20066430.726
 04  2 25  2 21 30.0000000  0  8G14G 9G18G 3G21G31G22G15
  21193224.811   -22311105.96049 -17365666.73347  21193224.276    21193227.473
  23588390.959   -10735780.42649  -8356619.98145  23588390.627    23588394.913
  21869784.517   -18987433.68849 -14780976.71947  21869784.014    21869786.815
  21609984.132   -18245734.74249 -14193660.15347  21609983.760    21609988.189
  22293849.201   -20320035.29249 -15555670.81846  22293848.580    22293851.494
  23040859.853   -13006964.48649 -10111653.56446  23040859.305    23040863.955
  20697849.440   -27128491.49849 -21124285.48248  20697849.187    20697850.494
  20065787.806   -31305906.69349 -24365340.63648  20065787.055    20065791.251
 04  2 25  2 22  0.0000000  0  8G14G 9G18G 3G21G31G22G15
  21179709.083   -22382131.14749 -17421011.01047  21179708.623    21179711.779
  23587005.189   -10743063.98649  -8362295.44645  23587004.617    23587008.652
  21881073.292   -18928110.46749 -14734750.82147  21881072.828    21881075.613
  21612547.942   -18232262.22149 -14183162.08947  21612547.545    21612551.874
  22307977.867   -20245788.69349 -15497816.33046  22307977.199    22307980.126
  23030763.781   -13060019.62549 -10152995.20646  23030763.195    23030767.830
  20700431.983   -27114920.24849 -21113710.46648  20700431.719    20700433.005
  20065225.387   -31308862.23749 -24367643.64748  20065224.634    20065228.820
 04  2 25  2 22 30.0000000  0  8G14G 9G18G 3G21G31G22G15
  21166278.346   -22452710.33349 -17476007.74147  21166277.861    21166280.980
  23585727.429   -10749777.08749  -8367526.40245  23585726.932    23585730.989
  21892384.800   -18868668.10749 -14688432.08447  21892384.318    21892387.101
  21615216.744   -18218237.49149 -14172233.72547  21615216.347    21615220.657
  22322162.981   -20171245.06549 -15439730.38846  22322162.378    22322165.290
  23020764.742   -13112564.52249 -10193939.24846  23020764.177    23020768.793
  20703057.337   -27101124.09349 -21102960.20048  20703057.042    20703058.287
  20064739.823   -31311413.80749 -24369631.87148  20064739.080    20064743.233
 04  2 25  2 23  0.0000000  0  8G14G 9G18G 3G21G31G22G15
  21152932.913   -22522841.13249 -17530655.08247  21152932.380    21152935.483
  23584558.829   -10755918.29249  -8372311.72945  23584558.260    23584562.208
  21903718.886   -18809107.20849 -14642020.97647  21903718.401    21903721.186
  21617990.541   -18203661.02649 -14160875.43047  21617990.147    21617994.522
  22336404.752   -20096404.23649 -15381412.85946  22336404.119    22336407.025
  23010863.146   -13164597.25149 -10234484.18746  23010862.591    23010867.215
  20705725.313   -27087103.66449 -21092035.17048  20705725.025    20705726.270
  20064331.497   -31313559.56449 -24371303.87748  20064330.733    20064334.873
 04  2 25  2 23 30.0000000  0  8G14G 9G18G 3G21G31G22G15
  21139673.055   -22592521.84849 -17584951.72047  21139672.559    21139675.647
  23583499.341   -10761486.40549  -8376650.48245  23583498.784    23583502.745
  21915075.388   -18749428.25849 -14595517.88647  21915074.909    21915077.676
  21620869.171   -18188533.60649 -14149087.83447  21620868.824    21620873.213
  22350702.892   -20021267.34849 -15322864.63446  22350702.221    22350705.096
  23001059.444   -13216116.02649 -10274628.66346  23001058.918    23001063.505
  20708435.844   -27072859.75849 -21080936.00748  20708435.558    20708436.806
  20064000.646   -31315298.24549 -24372658.68548  20063999.862    20064004.014
 04  2 25  2 24  0.0000000  0  8G14G 9G18G 3G21G31G22G15
  21126498.942   -22661752.13449 -17638897.36847  21126498.450    21126501.539
  23582548.686   -10766481.40349  -8380542.67045  23582548.282    23582552.374
  21926453.921   -18689633.53049 -14548924.59147  21926453.442    21926456.226
  21623852.326   -18172857.32349 -14136872.54747  21623851.919    21623856.255
  22365057.009   -19945835.79549 -15264086.80746  22365056.384    22365059.195
  22991353.640   -13267120.49149 -10314372.37846  22991353.068    22991357.656
  20711188.443   -27058394.70749 -21069664.53048  20711188.153    20711189.410
  20063747.191   -31316629.91949 -24373696.34848  20063746.407    20063750.579
 04  2 25  2 24 30.0000000  0  8G14G 9G18G 3G21G31G22G15
  21113411.409   -22730527.65749 -17692488.65347  21113410.900    21113413.971
  23581707.515   -10770899.74749  -8383985.55345  23581707.334    23581711.532
  21937854.890   -18629721.06349 -14502239.53447  21937854.419    21937857.201
  21626940.082   -18156630.65749 -14124228.38647  21626939.691    21626944.035
  22379467.608   -19870107.40649 -15205077.67646  22379467.017    22379469.823
  22981746.376   -13317606.41049 -10353712.01346  22981745.838    22981750.439
  20713983.405   -27043706.72649 -21058219.33748  20713983.138    20713984.406
  20063571.937   -31317550.70649 -24374413.83048  20063571.179    20063575.328
 04  2 25  2 25  0.0000000  0  8G14G 9G18G 3G21G31G22G15
  21100410.338   -22798848.59949 -17745725.72647  21100409.830    21100412.926
  23580976.233   -10774742.46049  -8386979.83845  23580976.190    23580980.265
  21949277.828   -18569693.30349 -14455464.64547  21949277.332    21949280.103
  21630132.092   -18139856.33749 -14111157.48547  21630131.761    21630136.100
  22393934.227   -19794084.95149 -15145839.40146  22393933.643    22393936.430
  22972237.842   -13367574.07349 -10392647.82546  22972237.351    22972241.957
  20716820.311   -27028798.61549 -21046602.62348  20716820.064    20716821.312
  20063474.756   -31318061.35749 -24374811.72348  20063473.976    20063478.147
 04  2 25  2 25 30.0000000  0  8G14G 9G18G 3G21G31G22G15
  21087496.026   -22866713.35049 -17798607.31947  21087495.541    21087498.644
  23580354.949   -10778008.70649  -8389524.90945  23580354.790    23580358.765
  21960722.448   -18509551.28149 -14408600.71247  21960721.969    21960724.765
  21633428.299   -18122535.21249 -14097660.50347  21633427.939    21633432.214
  22408456.687   -19717768.99249 -15086372.41946  22408456.118    22408458.902
  22962828.273   -13417021.84849 -10431178.52946  22962827.735    22962832.253
  20719698.966   -27013671.14749 -21034814.97048  20719698.701    20719699.938
  20063455.859   -31318160.65449 -24374889.07948  20063455.079    20063459.263
 04  2 25  2 26  0.0000000  0  8G14G 9G18G 3G21G31G22G15
  21074669.076   -22934119.35549 -17851131.45047  21074668.591    21074671.690
  23579843.556   -10780696.56249  -8391619.31045  23579843.234    23579847.236
  21972188.796   -18449294.96349 -14361647.73047  21972188.321    21972191.100
  21636828.428   -18104667.32349 -14083737.46847  21636828.026    21636832.305
  22423035.064   -19641159.16749 -15026676.44646  22423034.486    22423037.281
  22953518.041   -13465947.49449 -10469302.37546  22953517.491    22953522.043
  20722619.329   -26998324.39349 -21022856.44848  20722619.079    20722620.290
  20063515.616   -31317846.51249 -24374644.28248  20063514.848    20063519.002
 04  2 25  2 26 30.0000000  0  8G14G 9G18G 3G21G31G22G15
  21061929.554   -23001065.80049 -17903297.48547  21061929.070    21061932.189
  23579441.788   -10782805.31849  -8393262.51445  23579441.603    23579446.121
  21983676.693   -18388925.58649 -14314606.64347  21983676.218    21983679.011
  21640332.196   -18086254.42649 -14069389.75347  21640331.840    21640336.109
  22437669.170   -19564256.50749 -14966752.30246  22437668.565    22437671.331
  22944307.366   -13514349.89249 -10507018.50746  22944306.787    22944311.379
  20725581.144   -26982760.04449 -21010728.36948  20725580.889    20725582.075
  20063654.177   -31317118.43849 -24374076.94448  20063653.392    20063657.548
 04  2 25  2 27  0.0000000  0  8G14G 9G18G 3G21G31G22G15
  21049277.379   -23067552.98949 -17955105.65347  21049276.919    21049280.076
  23579150.683   -10784336.26849  -8394455.44045  23579150.343    23579154.805
  21995185.572   -18328446.11949 -14267479.77347  21995185.070    21995187.867
  21643939.265   -18067299.57549 -14054619.73747  21643938.903    21643943.105
  22452358.441   -19487063.92149 -14906602.23946  22452357.846    22452360.577
  22935196.096   -13562229.65449 -10544327.38146  22935195.545    22935200.117
  20728583.805   -26966980.97849 -20998432.97748  20728583.550    20728584.723
  20063871.267   -31315977.51449 -24373187.89648  20063870.482    20063874.658
 04  2 25  2 27 30.0000000  0  8G14G 9G18G 3G21G31G22G15
  21036713.823   -23133575.06749 -18006551.40147  21036713.326    21036716.447
  23578970.552   -10785284.28149  -8395194.08045  23578970.158    23578974.144
  22006716.025   -18267852.83249 -14220264.21647  22006715.518    22006718.330
  21647650.037   -18047799.35849 -14039424.75847  21647649.634    21647653.919
  22467103.511   -19409577.72549 -14846223.38346  22467102.948    22467105.740
  22926185.397   -13609580.96149 -10581224.47346  22926184.783    22926189.427
  20731628.004   -26950983.71049 -20985967.56648  20731627.743    20731628.894
  20064167.964   -31314418.28749 -24371972.89748  20064167.186    20064171.355
 04  2 25  2 28  0.0000000  0  8G14G 9G18G 3G21G31G22G15
  21024238.628   -23199132.49849 -18057635.08747  21024238.143    21024241.259
  23578900.793   -10785650.73749  -8395479.57445  23578900.467    23578904.252
  22018267.623   -18207148.75849 -14172962.32647  22018267.131    22018269.897
  21651463.913   -18027757.02249 -14023807.34547  21651463.534    21651467.832
  22481903.989   -19331800.70949 -14785617.92846  22481903.392    22481906.252
  22917275.182   -13656404.53149 -10617710.35546  22917274.571    22917279.149
  20734713.195   -26934771.01849 -20973334.28548  20734712.907    20734714.031
  20064544.112   -31312441.62349 -24370432.62448  20064543.326    20064547.482
 04  2 25  2 28 30.0000000  0  8G14G 9G18G 3G21G31G22G15
  21011852.198   -23264223.46149 -18108355.29447  21011851.738    21011854.821
  23578941.734   -10785434.41149  -8395311.01945  23578941.419    23578945.449
  22029840.152   -18146334.71049 -14125574.74547  22029839.649    22029842.426
  21655380.919   -18007173.26049 -14007768.05647  21655380.502    21655384.766
  22496759.752   -19253733.01649 -14724785.96946  22496759.158    22496762.048
  22908465.779   -13702698.55749 -10653783.58746  22908465.160    22908469.705
  20737839.158   -26918343.85749 -20960533.88648  20737838.883    20737840.023
  20064999.950   -31310045.98249 -24368565.87848  20064999.170    20065003.339
 04  2 25  2 29  0.0000000  0  8G14G 9G18G 3G21G31G22G15
  20999554.545   -23328848.08449 -18158712.11347  20999554.051    20999557.138
  23579093.460   -10784636.18449  -8394689.01145  23579093.283    23579097.429
  22041433.210   -18085412.62249 -14078102.97347  22041432.714    22041435.510
  21659400.324   -17986050.84149 -13991309.01347  21659399.910    21659404.249
  22511670.428   -19175376.85149 -14663729.21346  22511669.855    22511672.748
  22899757.011   -13748463.10349 -10689444.23546  22899756.449    22899760.972
  20741005.478   -26901704.63449 -20947568.23548  20741005.201    20741006.351
  20065535.426   -31307232.02749 -24366373.17448  20065534.639    20065538.807
 04  2 25  2 29 30.0000000  0  8G14G 9G18G 3G21G31G22G15
  20987346.290   -23393002.64849 -18208702.66547  20987345.813    20987348.893
  23579356.814   -10783253.29749  -8393611.40145  23579356.521    23579360.569
  22053047.167   -18024380.83449 -14030545.72447  22053046.643    22053049.453
  21663522.494   -17964388.59849 -13974429.34347  21663522.086    21663526.470
  22526636.319   -19096730.84349 -14602446.62846  22526635.714    22526638.607
  22891149.834   -13793694.56449 -10724689.52146  22891149.227    22891153.589
  20744212.433   -26884851.81749 -20934436.15848  20744212.161    20744213.322
  20066151.125   -31303996.40749 -24363851.91248  20066150.343    20066154.512
 04  2 25  2 30  0.0000000  0  8G14G 9G18G 3G21G31G22G15
  20975227.263   -23456688.81149 -18258328.21947  20975226.763    20975229.791
  23579730.817   -10781287.92149  -8392079.90445  23579730.582    23579734.563
  22064681.201   -17963243.39449 -13982906.14747  22064680.709    22064683.475
  21667746.599   -17942190.70349 -13957132.27947  21667746.221    21667750.537
  22541656.598   -19017798.76249 -14540941.12546  22541655.976    22541658.927
  22882643.629   -13838394.74849 -10759520.80646  22882643.016    22882647.380
  20747459.242   -26867789.44949 -20921140.79648  20747458.983    20747460.156
  20066846.691   -31300341.21049 -24361003.69448  20066845.902    20066850.071
 04  2 25  2 30 30.0000000  0  8G14G 9G18G 3G21G31G22G15
  20963198.083   -23519902.45549 -18307585.58047  20963197.580    20963200.621
  23580216.075   -10778736.60649  -8390091.85445  23580215.987    23580219.916
  22076335.752   -17901998.40549 -13935182.76247  22076335.261    22076337.983
  21672072.961   -17919455.48349 -13939416.52147  21672072.576    21672076.880
  22556731.626   -18938578.61349 -14479211.14246  22556731.030    22556733.991
  22874239.293   -13882559.46449 -10793934.83846  22874238.744    22874243.110
  20750746.301   -26850515.74549 -20907680.74948  20750746.037    20750747.234
  20067622.758   -31296262.76549 -24357825.66548  20067621.994    20067626.154
 04  2 25  2 31  0.0000000  0  8G14G 9G18G 3G21G31G22G15
  20951259.291   -23582641.16949 -18356472.86747  20951258.785    20951261.833
  23580813.412   -10775597.87549  -8387646.06345  23580813.222    23580817.304
  22088010.775   -17840645.77749 -13887375.51447  22088010.259    22088013.012
  21676501.474   -17896183.52349 -13921282.52147  21676501.081    21676505.406
  22571861.714   -18859069.83949 -14417256.25946  22571861.086    22571864.012
  22865937.423   -13926186.49749 -10827929.91846  22865936.801    22865941.123
  20754073.582   -26833030.75249 -20894056.06548  20754073.304    20754074.508
  20068479.763   -31291759.13749 -24354316.33348  20068479.001    20068483.142
 04  2 25  2 31 30.0000000  0  8G14G 9G18G 3G21G31G22G15
  20939410.579   -23644906.54449 -18404991.31647  20939410.048    20939413.092
  23581522.186   -10771874.14049  -8384744.42645  23581521.932    23581525.945
  22099705.555   -17779189.07649 -13839487.16147  22099705.053    22099707.878
  21681031.346   -17872379.12949 -13902733.64247  21681030.945    21681035.261
  22587045.899   -18779276.50049 -14355079.64546  22587045.334    22587048.151
  22857737.371   -13969277.76449 -10861507.49646  22857736.758    22857741.130
  20757440.314   -26815338.35249 -20880269.76048  20757440.053    20757441.254
  20069417.319   -31286832.32349 -24350477.24548  20069416.572    20069420.674
 04  2 25  2 32  0.0000000  0  8G14G 9G18G 3G21G31G22G15
  20927652.306   -23706696.44249 -18453139.26747  20927651.818    20927654.839
  23582342.376   -10767563.97549  -8381385.82845  23582342.135    23582346.110
  22111420.160   -17717628.18949 -13791517.62947  22111419.683    22111422.527
  21685662.392   -17848042.80049 -13883770.26547  21685661.969    21685666.292
  22602284.166   -18699198.88749 -14292681.51346  22602283.595    22602286.458
  22849639.715   -14011831.21049 -10894666.00246  22849639.114    22849643.447
  20760846.483   -26797438.79249 -20866322.03548  20760846.225    20760847.389
  20070435.723   -31281480.48049 -24346306.96948  20070434.967    20070439.065
 04  2 25  2 32 30.0000000  0  8G14G 9G18G 3G21G31G22G15
  20915985.088   -23768008.22149 -18500914.65647  20915984.585    20915987.581
  23583274.378   -10762665.56449  -8377568.87145  23583274.139    23583278.125
  22123154.617   -17655963.02649 -13743466.84247  22123154.149    22123156.990
  21690394.623   -17823174.58749 -13864392.43747  21690394.232    21690398.517
  22617576.693   -18618836.10649 -14230061.16646  22617576.148    22617579.015
  22841644.938   -14053844.16349 -10927403.35846  22841644.349    22841648.609
  20764292.183   -26779331.52449 -20852212.46448  20764291.920    20764293.072
  20071535.431   -31275701.31449 -24341803.71348  20071534.676    20071538.795
 04  2 25  2 33  0.0000000  0  8G14G 9G18G 3G21G31G22G15
  20904409.093   -23828840.19949 -18548316.17447  20904408.599    20904411.607
  23584318.576   -10757177.97549  -8373292.82545  23584318.177    23584322.271
  22134909.077   -17594193.47249 -13695334.70747  22134908.572    22134911.345
  21695227.941   -17797775.47149 -13844600.92347  21695227.546    21695231.819
  22632923.502   -18538188.53049 -14167218.90846  22632922.894    22632925.690
  22833753.233   -14095315.05149 -10959718.29746  22833752.693    22833756.993
  20767777.258   -26761017.08649 -20837941.45848  20767777.007    20767778.163
  20072716.762   -31269493.45449 -24336966.40248  20072716.018    20072720.121
 04  2 25  2 33 30.0000000  0  8G14G 9G18G 3G21G31G22G15
  20892924.493   -23889191.95549 -18595343.49247  20892924.010    20892927.018
  23585474.835   -10751101.62649  -8368557.97245  23585474.625    23585478.592
  22146682.931   -17532321.33249 -13647122.64347  22146682.441    22146685.238
  21700161.869   -17771847.32349 -13824397.16547  21700161.471    21700165.760
  22648324.080   -18457258.10149 -14104156.23646  22648323.412    22648326.201
  22825964.763   -14136243.56849 -10991610.63346  22825964.224    22825968.518
  20771301.450   -26742497.29049 -20823510.42748  20771301.217    20771302.348
  20073979.694   -31262856.80049 -24331794.96948  20073978.924    20073983.025
 04  2 25  2 34  0.0000000  0  8G14G 9G18G 3G21G31G22G15
  20881531.332   -23949063.30049 -18641996.45948  20881530.837    20881533.861
  23586743.322   -10744437.15649  -8363364.84245  23586742.927    23586746.781
  22158476.022   -17470348.26849 -13598831.92747  22158475.497    22158478.318
  21705195.995   -17745392.68649 -13803783.15747  21705195.606    21705199.948
  22663777.981   -18376046.71149 -14040874.63846  22663777.374    22663780.259
  22818279.548   -14176629.76049 -11023080.37646  22818279.015    22818283.252
  20774864.332   -26723774.24349 -20808921.02548  20774864.081    20774865.211
  20075324.170   -31255791.55949 -24326289.56648  20075323.413    20075327.475
 04  2 25  2 34 30.0000000  0  8G14G 9G18G 3G21G31G22G15
  20870230.292   -24008450.55549 -18688272.21948  20870229.791    20870232.806
  23588123.831   -10737181.76149  -8357711.28145  23588123.482    23588127.469
  22170288.568   -17408272.76149 -13550461.39247  22170288.059    22170290.868
  21710330.488   -17718410.72949 -13782758.25847  21710330.091    21710334.471
  22679285.831   -18294552.41749 -13977372.59846  22679285.207    22679288.131
  22810698.181   -14216470.02049 -11054124.71046  22810697.613    22810701.890
  20778466.145   -26704846.47149 -20794172.10548  20778465.888    20778467.043
  20076750.755   -31248294.60949 -24320447.77248  20076750.005    20076754.071
 04  2 25  2 35  0.0000000  0  8G14G 9G18G 3G21G31G22G15
  20859021.191   -24067354.68849 -18734171.51648  20859020.710    20859023.699
  23589616.466   -10729337.05049  -8351598.50945  23589616.098    23589620.421
  22182120.082   -17346097.38749 -13502013.03747  22182119.598    22182122.435
  21715564.641   -17690904.83749 -13761325.09147  21715564.258    21715568.638
  22694846.915   -18212778.36049 -13913652.55646  22694846.325    22694849.196
  22803220.581   -14255765.18449 -11084744.30446  22803219.989    22803224.183
  20782106.427   -26685716.61849 -20779265.70948  20782106.167    20782107.344
  20078259.305   -31240367.12249 -24314270.49648  20078258.551    20078262.608
 04  2 25  2 35 30.0000000  0  8G14G 9G18G 3G21G31G22G15
  20847904.437   -24125773.53649 -18779692.66448  20847903.927    20847906.896
  23591221.604   -10720902.02249  -8345025.75445  23591221.317    23591225.503
  22193970.584   -17283822.22749 -13453486.92947  22193970.134    22193972.970
  21720898.447   -17662875.86949 -13739484.34547  21720898.065    21720902.376
  22710461.233   -18130724.49849 -13849714.49146  22710460.685    22710463.502
  22795847.004   -14294513.48049 -11114937.75446  22795846.444    22795850.643
  20785785.107   -26666385.04949 -20764202.12648  20785784.821    20785785.988
  20079850.160   -31232007.18349 -24307756.24848  20079849.400    20079853.453
 04  2 25  2 36  0.0000000  0  8G14G 9G18G 3G21G31G22G15
  20836880.411   -24183704.99149 -18824834.02948  20836879.928    20836882.863
  23592939.453   -10711875.40949  -8337991.96445  23592939.157    23592943.170
  22205840.150   -17221447.27749 -13404883.05947  22205839.687    22205842.504
  21726331.633   -17634324.27649 -13717236.34347  21726331.234    21726335.596
  22726128.836   -18048390.76049 -13785558.33846  22726128.229    22726131.096
  22788577.916   -14332712.93649 -11144703.53446  22788577.326    22788581.539
  20789502.135   -26646851.76249 -20748981.37148  20789501.877    20789503.059
  20081523.628   -31223213.15849 -24300903.76248  20081522.861    20081526.902
 04  2 25  2 36 30.0000000  0  8G14G 9G18G 3G21G31G22G15
  20825948.963   -24241150.19849 -18869596.50248  20825948.476    20825951.371
  23594769.382   -10702258.87449  -8330498.52445  23594769.052    23594773.117
  22217728.207   -17158975.28049 -13356203.56247  22217727.727    22217730.472
  21731863.552   -17605253.65049 -13694583.90947  21731863.184    21731867.564
  22741849.059   -17965780.39749 -13721186.63246  22741848.476    22741851.318
  22781412.996   -14370364.65549 -11174042.53246  22781412.416    22781416.640
  20793257.032   -26627119.77749 -20733605.79448  20793256.748    20793257.928
  20083279.410   -31213986.42749 -24293714.10548  20083278.636    20083282.667
 04  2 25  2 37  0.0000000  0  8G14G 9G18G 3G21G31G22G15
  20815111.126   -24298103.17449 -18913975.42048  20815110.649    20815113.565
  23596712.308   -10692047.38749  -8322541.53445  23596711.887    23596716.255
  22229635.480   -17096402.17749 -13307445.28447  22229634.964    22229637.675
  21737494.839   -17575661.00249 -13671524.70447  21737494.486    21737498.829
  22757622.693   -17882889.38649 -13656596.23046  22757622.086    22757624.970
  22774353.421   -14407463.07349 -11202950.36446  22774352.844    22774357.010
  20797050.374   -26607185.45749 -20718072.54848  20797050.092    20797051.259
  20085118.566   -31204321.53349 -24286182.99848  20085117.792    20085121.828
 04  2 25  2 37 30.0000000  0  8G14G 9G18G 3G21G31G22G15
  20804366.125   -24354568.61049 -18957974.43248  20804365.637    20804368.543
  23598767.584   -10681246.79249  -8314125.47445  23598767.303    23598771.455
  22241560.671   -17033734.66649 -13258613.45846  22241560.188    22241562.867
  21743224.097   -17545553.78049 -13648064.53247  21743223.710    21743228.006
  22773448.506   -17799724.79149 -13591792.65346  22773447.840    22773450.651
  22767398.197   -14444012.99349 -11231430.79846  22767397.608    22767401.835
  20800881.010   -26587055.19549 -20702386.61348  20800880.740    20800881.909
  20087040.151   -31194223.37449 -24278314.28148  20087039.402    20087043.441
 04  2 25  2 38  0.0000000  0  8G14G 9G18G 3G21G31G22G15
  20793714.578   -24410542.79249 -19001590.64748  20793714.061    20793716.955
  23600935.745   -10669854.13649  -8305248.03145  23600935.442    23600939.356
  22253504.268   -16970970.92149 -13209706.62546  22253503.740    22253506.445
  21749051.474   -17514930.59449 -13624202.30147  21749051.085    21749055.417
  22789326.605   -17716284.45049 -13526774.21346  22789325.958    22789328.832
  22760548.102   -14480010.52549 -11259480.79046  22760547.501    22760551.701
  20804749.268   -26566727.31149 -20686546.68448  20804749.002    20804750.161
  20089044.907   -31183688.32049 -24270105.13048  20089044.154    20089048.178
 04  2 25  2 38 30.0000000  0  8G14G 9G18G 3G21G31G22G15
  20783156.990   -24466023.04849 -19044821.99548  20783156.510    20783159.408
  23603216.763   -10657867.58849  -8295907.82345  23603216.315    23603220.257
  22265466.310   -16908109.82849 -13160723.94646  22265465.829    22265468.510
  21754977.107   -17483791.50349 -13599938.07947  21754976.723    21754981.012
  22805257.345   -17632567.73549 -13461540.41546  22805256.739    22805259.577
  22753803.497   -14515453.18349 -11287098.41846  22753802.919    22753807.110
  20808655.251   -26546201.18049 -20670552.29048  20808654.968    20808656.126
  20091133.276   -31172713.88649 -24261553.61848  20091132.498    20091136.538
 04  2 25  2 39  0.0000000  0  8G14G 9G18G 3G21G31G22G15
  20772693.050   -24521011.30049 -19087669.95848  20772692.544    20772695.435
  23605609.808   -10645290.33849  -8286107.35745  23605609.457    23605613.500
  22277446.176   -16845155.08449 -13111668.29046  22277445.685    22277448.377
  21760999.978   -17452141.26449 -13575275.56047  21760999.544    21761003.799
  22821239.965   -17548578.98749 -13396094.64346  22821239.294    22821242.097
  22747164.121   -14550343.34649 -11314285.53446  22747163.556    22747167.748
  20812598.205   -26525480.74849 -20654406.48548  20812597.928    20812599.088
  20093304.728   -31161302.68549 -24252661.76048  20093303.955    20093307.986
 04  2 25  2 39 30.0000000  0  8G14G 9G18G 3G21G31G22G15
  20762323.748   -24575502.20049 -19130130.37648  20762323.253    20762326.140
  23608116.476   -10632117.55749  -8275842.84445  23608116.111    23608120.196
  22289444.652   -16782102.61949 -13062536.48746  22289444.169    22289446.870
  21767120.548   -17419977.15549 -13550212.61947  21767120.166    21767124.440
  22837274.987   -17464314.43749 -13330433.95646  22837274.344    22837277.090
  22740630.929   -14584675.54749 -11341037.86846  22740630.319    22740634.590
  20816578.785   -26504562.54049 -20638106.56748  20816578.523    20816579.690
  20095560.326   -31149449.35949 -24243425.38948  20095559.564    20095563.587
 04  2 25  2 40  0.0000000  0  8G14G 9G18G 3G21G31G22G15
  20752048.265   -24629500.17449 -19172206.68548  20752047.746    20752050.645
  23610735.622   -10618354.78349  -8265118.56345  23610735.238    23610739.297
  22301460.356   -16718959.36549 -13013333.94346  22301459.881    22301462.625
  21773337.606   -17387306.35249 -13524754.84647  21773337.212    21773341.530
  22853361.090   -17379780.89149 -13264563.67246  22853360.527    22853363.336
  22734202.870   -14618454.64749 -11367359.21746  22734202.290    22734206.644
  20820595.751   -26483453.16749 -20621657.69048  20820595.492    20820596.635
  20097899.122   -31137158.88549 -24233848.38548  20097898.345    20097902.356
 04  2 25  2 40 30.0000000  0  8G14G 9G18G 3G21G31G22G15
  20741867.972   -24682997.77549 -19213893.10548  20741867.474    20741870.356
  23613468.093   -10603995.85749  -8253929.75945  23613467.706    23613471.705
  22313494.528   -16655719.32449 -12964055.98646  22313494.040    22313496.759
  21779651.947   -17354124.21349 -13498898.64147  21779651.531    21779655.885
  22869499.558   -17294972.51549 -13198479.23446  22869498.995    22869501.810
  22727881.562   -14651673.30849 -11393243.87146  22727880.976    22727885.310
  20824650.232   -26462146.69649 -20605055.23848  20824649.965    20824651.121
  20100322.505   -31124423.89149 -24223925.00748  20100321.737    20100325.742
 04  2 25  2 41  0.0000000  0  8G14G 9G18G 3G21G31G22G15
  20731781.811   -24736000.80249 -19255194.13848  20731781.317    20731784.211
  23616312.529   -10589047.12549  -8242281.37945  23616312.248    23616316.303
  22325545.768   -16592389.81149 -12914708.30246  22325545.257    22325547.941
  21786061.981   -17320439.11849 -13472650.51547  21786061.574    21786065.926
  22885688.881   -17209897.09649 -13132186.70746  22885688.308    22885691.166
  22721665.726   -14684337.36249 -11418696.35046  22721665.139    22721669.512
  20828740.735   -26440650.87949 -20588305.24048  20828740.473    20828741.613
  20102829.320   -31111250.29549 -24213659.86348  20102828.551    20102832.574
 04  2 25  2 41 30.0000000  0  8G14G 9G18G 3G21G31G22G15
  20721791.347   -24788500.72349 -19296103.14448  20721790.863    20721793.768
  23619270.625   -10573500.99149  -8230167.50645  23619270.459    23619274.527
  22337615.255   -16528964.05849 -12865285.63246  22337614.771    22337617.482
  21792568.826   -17286245.21849 -13446005.91647  21792568.439    21792572.799
  22901930.313   -17124548.04449 -13065680.97346  22901929.734    22901932.570
  22715556.998   -14716438.58649 -11443710.27246  22715556.428    22715560.804
  20832868.560   -26418959.07549 -20571402.52548  20832868.285    20832869.444
  20105421.184   -31097629.94749 -24203046.61748  20105420.417    20105424.467
 04  2 25  2 42  0.0000000  0  8G14G 9G18G 3G21G31G22G15
  20711895.609   -24840503.03449 -19336624.39748  20711895.113    20711898.025
  23622341.478   -10557364.04249  -8217593.22645  23622341.344    23622345.324
  22349701.785   -16465449.06949 -12815793.42246  22349701.284    22349703.956
  21799170.977   -17251550.74449 -13418971.26447  21799170.568    21799174.948
  22918222.250   -17038933.07149 -12998968.00246  22918221.676    22918224.560
  22709554.425   -14747982.44349 -11468289.87346  22709553.853    22709558.167
  20837032.237   -26397078.62749 -20554352.80148  20837031.983    20837033.112
  20108096.958   -31083568.64149 -24192089.75148  20108096.185    20108100.220
 04  2 25  2 42 30.0000000  0  8G14G 9G18G 3G21G31G22G15
  20702095.621   -24892002.39049 -19376753.73948  20702095.118    20702098.011
  23625525.632   -10540631.70249  -8204555.00845  23625525.379    23625529.394
  22361805.982   -16401841.16249 -12766228.81046  22361805.475    22361808.112
  21805868.909   -17216352.77949 -13391544.28347  21805868.492    21805872.866
  22934565.610   -16953048.38549 -12932044.88946  22934565.041    22934567.846
  22703658.799   -14778963.77449 -11492431.14046  22703658.255    22703662.626
  20841232.532   -26375005.75149 -20537153.13648  20841232.305    20841233.436
  20110857.606   -31069061.20349 -24180785.23948  20110856.844    20110860.887
 04  2 25  2 43  0.0000000  0  8G14G 9G18G 3G21G31G22G15
  20692390.847   -24943001.22249 -19416493.06948  20692390.326    20692393.234
  23628822.210   -10523307.49549  -8191055.61645  23628821.927    23628825.974
  22373927.121   -16338144.14349 -12716594.75946  22373926.603    22373929.225
  21812661.670   -17180656.62549 -13363729.10447  21812661.259    21812665.602
  22950959.474   -16866898.38249 -12864915.02146  22950958.901    22950961.641
  22697869.734   -14809385.41349 -11516136.30046  22697869.182    22697873.527
  20845468.654   -26352744.70149 -20519806.85648  20845468.403    20845469.534
  20113702.636   -31054110.29049 -24169135.16248  20113701.894    20113705.924
 04  2 25  2 43 30.0000000  0  8G14G 9G18G 3G21G31G22G15
  20682781.724   -24993497.40649 -19455840.71648  20682781.199    20682784.128
  23632231.484   -10505390.60649  -8177094.39845  23632231.326    23632235.406
  22386065.381   -16274357.56849 -12666890.92646  22386064.860    22386067.418
  21819549.124   -17144462.88749 -13335526.18847  21819548.701    21819553.084
  22967403.793   -16780482.98649 -12797578.36446  22967403.138    22967405.932
  22692187.605   -14839245.33849 -11539403.75546  22692187.036    22692191.338
  20849740.636   -26330295.26249 -20502313.77448  20849740.385    20849741.521
  20116632.547   -31038713.74949 -24157137.84348  20116631.786    20116635.819
 04  2 25  2 44  0.0000000  0  8G14G 9G18G 3G21G31G22G15
  20673268.327   -25043490.36949 -19494796.25048  20673267.815    20673270.725
  23635753.896   -10486881.00649  -8162671.28445  23635753.678    23635757.623
  22398220.604   -16210481.92149 -12617117.68146  22398220.055    22398222.566
  21826530.958   -17107773.39549 -13306936.98147  21826530.547    21826534.835
  22983898.373   -16693803.36949 -12730035.80946  22983897.688    22983900.490
  22686612.401   -14868542.90849 -11562233.00246  22686611.826    22686616.168
  20854048.293   -26307658.40849 -20484674.66248  20854048.023    20854049.130
  20119647.266   -31022871.21849 -24144793.00248  20119646.479    20119650.532
 04  2 25  2 44 30.0000000  0  8G14G 9G18G 3G21G31G22G15
  20663851.316   -25092977.11549 -19533357.32648  20663850.814    20663853.714
  23639389.367   -10467776.78849  -8147784.82945  23639389.221    23639393.072
  22410392.930   -16146516.04249 -12567274.13546  22410392.388    22410394.863
  21833607.084   -17070588.31549 -13277961.59647  21833606.659    21833610.943
  23000443.342   -16606858.70849 -12662286.73146  23000442.725    23000445.529
  22681144.725   -14897275.54549 -11584622.04846  22681144.161    22681148.536
  20858391.875   -26284832.79449 -20466888.46048  20858391.596    20858392.713
  20122747.352   -31006580.14149 -24132098.65748  20122746.582    20122750.608
 04  2 25  2 45  0.0000000  0  8G14G 9G18G 3G21G31G22G15
  20654530.942   -25141955.73149 -19571522.45948  20654530.446    20654533.371
  23643137.899   -10448077.08049  -8132434.40145  23643137.796    23643141.721
  22422582.358   -16082459.80049 -12517360.17246  22422581.860    22422584.325
  21840777.270   -17032908.31349 -13248600.55747  21840776.885    21840781.213
  23017038.933   -16519648.73349 -12594330.92746  23017038.226    23017041.033
  22675784.840   -14925441.55249 -11606569.56346  22675784.291    22675788.744
  20862771.395   -26261818.10949 -20448954.92748  20862771.134    20862772.230
  20125933.132   -30989838.73149 -24119053.39948  20125932.357    20125936.372
 04  2 25  2 45 30.0000000  0  8G14G 9G18G 3G21G31G22G15
  20645306.321   -25190431.37949 -19609295.66948  20645305.842    20645308.742
  23646998.687   -10427788.19549  -8116624.84745  23646998.593    23647002.541
  22434787.857   -16018319.50149 -12467380.69846  22434787.370    22434789.847
  21848040.274   -16994741.25949 -13218859.99447  21848039.857    21848044.137
  23033683.659   -16432180.44749 -12526173.82946  23033682.933    23033685.746
  22670531.805   -14953046.19749 -11628079.64546  22670531.278    22670535.721
  20867185.564   -26238621.59049 -20430879.69148  20867185.298    20867186.393
  20129203.548   -30972652.44149 -24105661.47448  20129202.793    20129206.795
 04  2 25  2 46  0.0000000  0  8G14G 9G18G 3G21G31G22G15
  20636178.925   -25238396.13849 -19646670.78248  20636178.421    20636181.294
  23650973.086   -10406903.12049  -8100350.72845  23650972.992    23650976.841
  22447010.600   -15954088.58749 -12417330.62746  22447010.118    22447012.611
  21855396.855   -16956081.89649 -13188735.81247  21855396.454    21855400.742
  23050378.569   -16344447.89049 -12457810.80446  23050377.925    23050380.726
  22665387.173   -14980081.81349 -11649146.34246  22665386.629    22665390.974
  20871635.547   -26215236.71249 -20412657.68548  20871635.288    20871636.393
  20132560.130   -30955013.44049 -24091916.79648  20132559.369    20132563.384
 04  2 25  2 46 30.0000000  0  8G14G 9G18G 3G21G31G22G15
  20627148.010   -25285853.92049 -19683650.85148  20627147.503    20627150.400
  23655059.898   -10385427.07549  -8083616.13345  23655059.763    23655063.662
  22459249.615   -15889772.17149 -12367213.93346  22459249.105    22459251.582
  21862845.932   -16916936.85049 -13158233.18547  21862845.547    21862849.814
  23067122.685   -16256456.64749 -12389246.20046  23067122.004    23067124.940
  22660349.971   -15006552.58649 -11669772.89946  22660349.377    22660353.751
  20876120.385   -26191668.74549 -20394293.02648  20876120.133    20876121.216
  20136002.087   -30936925.80549 -24077822.53148  20136001.316    20136005.326
 04  2 25  2 47  0.0000000  0  8G14G 9G18G 3G21G31G22G15
  20618214.030   -25332802.29649 -19720233.98248  20618213.538    20618216.373
  23659259.291   -10363358.66149  -8066419.94745  23659259.067    23659263.090
  22471505.017   -15825369.32349 -12317029.88946  22471504.491    22471506.998
  21870387.364   -16877306.28649 -13127352.22847  21870386.956    21870391.257
  23083916.169   -16168206.51549 -12320479.88046  23083915.498    23083918.451
  22655420.489   -15032456.53249 -11689957.76346  22655419.929    22655424.339
  20880640.139   -26167917.17749 -20375785.30648  20880639.894    20880640.949
  20139529.869   -30918387.30149 -24063376.93848  20139529.094    20139533.090
 04  2 25  2 47 30.0000000  0  8G14G 9G18G 3G21G31G22G15
  20609376.910   -25379241.72349 -19756420.52448  20609376.396    20609379.208
  23663571.143   -10340699.14649  -8048763.16545  23663570.921    23663574.951
  22483776.530   -15760881.73149 -12266779.81046  22483776.026    22483778.565
  21878020.625   -16837192.98849 -13096095.10947  21878020.262    21878024.573
  23100758.516   -16079699.37249 -12251513.27946  23100757.849    23100760.726
  22650599.012   -15057793.91649 -11709701.16746  22650598.486    22650602.754
  20885194.521   -26143983.69349 -20357135.82748  20885194.261    20885195.319
  20143143.336   -30899398.33849 -24048580.32748  20143142.563    20143146.571
 04  2 25  2 48  0.0000000  0  8G14G 9G18G 3G21G31G22G15
  20600637.573   -25425167.14349 -19792206.54248  20600637.076    20600639.889
  23667996.456   -10317444.43049  -8030642.56545  23667996.207    23668000.118
  22496064.872   -15696305.68049 -12216460.80146  22496064.389    22496066.976
  21885746.298   -16796594.76949 -13064460.13647  21885745.903    21885750.138
  23117650.424   -15990931.98649 -12182343.90846  23117649.715    23117652.608
  22645886.237   -15082559.94649 -11728999.33946  22645885.640    22645889.922
  20889784.161   -26119864.89949 -20338341.95248  20889783.894    20889784.941
  20146843.435   -30879954.08049 -24033428.95248  20146842.671    20146846.655
 04  2 25  2 48 30.0000000  0  8G14G 9G18G 3G21G31G22G15
  20591995.155   -25470583.35549 -19827595.77948  20591994.659    20591997.438
  23672533.781   -10293600.87849  -8012063.14145  23672533.466    23672537.478
  22508368.937   -15631647.49449 -12166077.79746  22508368.441    22508371.034
  21893562.733   -16755519.40349 -13032453.36447  21893562.302    21893566.517
  23134590.483   -15901911.37449 -12112977.19446  23134589.786    23134592.586
  22641281.089   -15106759.97049 -11747856.47746  22641280.498    22641284.764
  20894407.823   -26095567.31049 -20319408.75948  20894407.563    20894408.622
  20150629.188   -30860059.91449 -24017926.99848  20150628.420    20150632.368
 04  2 25  2 49  0.0000000  0  8G14G 9G18G 3G21G31G22G15
  20583450.274   -25515487.06749 -19862585.66548  20583449.774    20583452.537
  23677183.474   -10269166.17349  -7993023.11445  23677183.117    23677187.200
  22520689.054   -15566904.70549 -12115628.86546  22520688.562    22520691.166
  21901470.048   -16713965.94449 -13000074.05047  21901469.658    21901473.919
  23151579.062   -15812635.81849 -12043411.84346  23151578.386    23151581.199
  22636784.224   -15130390.69749 -11766270.00946  22636783.691    22636787.876
  20899065.893   -26071088.88549 -20300334.65648  20899065.638    20899066.696
  20154501.160   -30839712.56049 -24002071.91648  20154500.380    20154504.345
 04  2 25  2 49 30.0000000  0  8G14G 9G18G 3G21G31G22G15
  20575003.272   -25559876.16249 -19897174.54448  20575002.792    20575005.518
  23681945.870   -10244138.98949  -7973521.39545  23681945.520    23681949.788
  22533025.389   -15502076.70549 -12065113.53046  22533024.862    22533027.506
  21909468.240   -16671935.17649 -12967322.79847  21909467.831    21909472.072
  23168616.197   -15723104.71249 -11973647.35645  23168615.571    23168618.428
  22632396.231   -15153450.07149 -11784238.33246  22632395.649    22632399.805
  20903758.548   -26046428.77549 -20281118.97548  20903758.289    20903759.358
  20158459.786   -30818909.74749 -23985861.92448  20158459.029    20158463.001
 04  2 25  2 50  0.0000000  0  8G14G 9G18G 3G21G31G22G15
  20566653.717   -25603753.42249 -19931364.59948  20566653.212    20566655.938
  23686820.383   -10218523.05049  -7953560.89145  23686820.035    23686824.146
  22545377.287   -15437167.01149 -12014534.54846  22545376.790    22545379.380
  21917556.195   -16629432.59549 -12934203.91447  21917555.792    21917560.042
  23185701.125   -15633322.68849 -11903687.35145  23185700.473    23185703.342
  22628116.278   -15175941.28949 -11801763.93646  22628115.732    22628119.830
  20908484.972   -26021591.13649 -20261764.96848  20908484.727    20908485.784
  20162504.535   -30797654.41149 -23969299.32348  20162503.789    20162507.755
 04  2 25  2 50 30.0000000  0  8G14G 9G18G 3G21G31G22G15
  20558402.278   -25647114.92249 -19965152.75948  20558401.765    20558404.470
  23691807.613   -10192315.56549  -7933139.44545  23691807.273    23691811.166
  22557745.158   -15372173.37849 -11963890.14646  22557744.628    22557747.232
  21925734.230   -16586456.66649 -12900716.17547  21925733.840    21925738.085
  23202834.402   -15543287.48249 -11833530.05845  23202833.702    23202836.524
  22623945.179   -15197860.35149 -11818843.70746  22623944.619    22623948.691
  20913245.678   -25996573.55149 -20242270.73048  20913245.421    20913246.477
  20166636.180   -30775942.67749 -23952381.07848  20166635.399    20166639.351
 04  2 25  2 51  0.0000000  0  8G14G 9G18G 3G21G31G22G15
  20550248.971   -25689960.58549 -19998538.96848  20550248.489    20550251.180
  23696907.036   -10165518.02549  -7912258.21245  23696906.703    23696910.571
  22570128.893   -15307096.54349 -11913180.91446  22570128.356    22570130.968
  21934001.795   -16543010.43649 -12866861.97447  21934001.417    21934005.646
  23220015.336   -15453000.74749 -11763176.76545  23220014.658    23220017.532
  22619882.860   -15219208.06749 -11835478.27046  22619882.341    22619886.315
  20918040.341   -25971377.52549 -20222637.44348  20918040.092    20918041.109
  20170854.470   -30753775.17149 -23935107.68448  20170853.699    20170857.673
 04  2 25  2 51 30.0000000  0  8G14G 9G18G 3G21G31G22G15
  20542193.687   -25732291.45249 -20031524.03748  20542193.186    20542195.862
  23702118.331   -10138132.19749  -7890918.59245  23702118.055    23702121.939
  22582528.011   -15241938.70649 -11862408.56946  22582527.501    22582530.075
  21942358.205   -16499097.12649 -12832643.81447  21942357.842    21942362.098
  23237243.534   -15362465.68749 -11692629.97745  23237242.951    23237245.829
  22615929.108   -15239985.26049 -11851668.27346  22615928.538    22615932.543
  20922868.589   -25946004.96949 -20202866.60948  20922868.330    20922869.329
  20175159.374   -30731152.60349 -23917479.71148  20175158.618    20175162.587
 04  2 25  2 52  0.0000000  0  8G14G 9G18G 3G21G31G22G15
  20534236.856   -25774104.54249 -20064105.65348  20534236.374    20534239.060
  23707441.805   -10110156.44149  -7869119.32045  23707441.609    23707445.677
  22594943.012   -15176697.76849 -11811571.47746  22594942.447    22594945.028
  21950803.554   -16454716.61349 -12798061.60547  21950803.185    21950807.450
  23254519.322   -15271680.79549 -11621888.52145  23254518.721    23254521.553
  22612084.369   -15260189.35849 -11867411.70946  22612083.820    22612087.774
  20927730.680   -25920454.52749 -20182957.16748  20927730.424    20927731.427
  20179551.497   -30708071.83149 -23899494.70248  20179550.748    20179554.709
 04  2 25  2 52 30.0000000  0  8G14G 9G18G 3G21G31G22G15
  20526378.002   -25815402.90849 -20096286.17348  20526377.545    20526380.207
  23712876.893   -10081594.69049  -7846863.40745  23712876.697    23712880.840
  22607372.901   -15111378.00549 -11760672.95046  22607372.401    22607374.920
  21959336.788   -16409874.52249 -12763119.71447  21959336.418    21959340.631
  23271841.828   -15180650.59549 -11550955.90045  23271841.230    23271844.020
  22608348.098   -15279823.61549 -11882711.11346  22608347.547    22608351.458
  20932625.770   -25894730.48549 -20162912.44348  20932625.515    20932626.497
  20184030.156   -30684536.44349 -23881155.43048  20184029.377    20184033.353
 04  2 25  2 53  0.0000000  0  8G14G 9G18G 3G21G31G22G15
  20518617.864   -25856182.73749 -20128062.64848  20518617.387    20518620.055
  23718424.014   -10052444.37049  -7824148.83345  23718423.827    23718427.737
  22619818.407   -15045976.57849 -11709710.78846  22619817.886    22619820.408
  21967957.913   -16364570.01549 -12727817.50747  21967957.540    21967961.763
  23289211.371   -15089373.12949 -11479830.61045  23289210.714    23289213.458
  22604720.942   -15298884.66249 -11897563.85746  22604720.397    22604724.332
  20937554.400   -25868830.27949 -20142730.45448  20937554.153    20937555.125
  20188596.021   -30660542.58049 -23862458.90548  20188595.256    20188599.233
 04  2 25  2 53 30.0000000  0  8G14G 9G18G 3G21G31G22G15
  20510956.129   -25896445.18749 -20159435.96848  20510955.681    20510958.346
  23724082.814   -10022707.67349  -7800977.33545  23724082.650    23724086.363
  22632278.997   -14980495.53849 -11658686.60146  22632278.480    22632281.029
  21976666.375   -16318806.61249 -12692157.71947  21976666.021    21976670.265
  23306627.285   -14997851.41149 -11408514.99045  23306626.638    23306629.441
  22601202.618   -15317373.69249 -11911970.88446  22601202.034    22601205.937
  20942516.091   -25842756.34249 -20122413.08548  20942515.848    20942516.822
  20193248.873   -30636091.42549 -23843406.05648  20193248.135    20193252.088
 04  2 25  2 54  0.0000000  0  8G14G 9G18G 3G21G31G22G15
  20503393.634   -25936186.35349 -20190403.09248  20503393.176    20503395.823
  23729853.529    -9992382.04649  -7777346.96945  23729853.324    23729857.150
  22644755.231   -14914932.22049 -11607598.29946  22644754.703    22644757.298
  21985462.413   -16272583.22249 -12656139.49947  21985462.021    21985466.285
  23324090.121   -14906083.19049 -11337007.29045  23324089.549    23324092.398
  22597793.733   -15335287.19149 -11925929.44846  22597793.223    22597796.980
  20947511.422   -25816505.71249 -20101958.04148  20947511.170    20947512.138
  20197989.545   -30611179.25049 -23823993.98348  20197988.793    20197992.714
 04  2 25  2 54 30.0000000  0  8G14G 9G18G 3G21G31G22G15
  20495929.456   -25975410.79449 -20220967.56948  20495928.984    20495931.648
  23735735.284    -9961473.06349  -7753262.06545  23735735.043    23735739.001
  22657246.109   -14849292.21349 -11556450.23146  22657245.595    22657248.159
  21994344.538   -16225907.09149 -12619768.48947  21994344.172    21994348.464
  23341598.880   -14814074.32449 -11265312.05845  23341598.307    23341601.095
  22594493.481   -15352629.93349 -11939443.25046  22594492.928    22594496.829
  20952539.227   -25790084.17349 -20081369.81648  20952538.999    20952539.957
  20202817.087   -30585810.48149 -23804226.11648  20202816.331    20202820.274
 04  2 25  2 55  0.0000000  0  8G14G 9G18G 3G21G31G22G15
  20488564.557   -26014113.57249 -20251125.56148  20488564.082    20488566.733
  23741728.896    -9929976.96249  -7728719.63645  23741728.643    23741732.574
  22669752.423   -14783571.00949 -11505238.89846  22669751.917    22669754.503
  22003313.358   -16178775.61449 -12583042.67547  22003313.003    22003317.271
  23359154.095   -14721821.68749 -11193426.89745  23359153.454    23359156.169
  22591302.803   -15369397.19249 -11952508.63246  22591302.267    22591306.202
  20957600.287   -25763488.20249 -20060645.67348  20957600.055    20957600.992
  20207732.400   -30559980.21749 -23784098.63248  20207731.629    20207735.584
 04  2 25  2 55 30.0000000  0  8G14G 9G18G 3G21G31G22G15
  20481298.581   -26052296.53049 -20280878.49748  20481298.102    20481300.738
  23747833.677    -9897896.66549  -7703721.97145  23747833.327    23747837.101
  22682273.697   -14717771.42849 -11453966.48646  22682273.169    22682275.750
  22012368.013   -16131193.31249 -12545965.56047  22012367.615    22012371.923
  23376754.781   -14629328.76149 -11121354.50145  23376754.190    23376757.002
  22588221.162   -15385591.10349 -11965127.24846  22588220.610    22588224.607
  20962694.003   -25736720.61049 -20039787.80048  20962693.759    20962694.673
  20212735.119   -30533690.63449 -23763613.24548  20212734.365    20212738.347
 04  2 25  2 56  0.0000000  0  8G14G 9G18G 3G21G31G22G15
  20474131.293   -26089960.85949 -20310227.30848  20474130.814    20474133.447
  23754049.037    -9865234.70049  -7678271.04745  23754048.695    23754052.400
  22694809.452   -14651895.69849 -11402634.74046  22694808.950    22694811.487
  22021507.673   -16083163.86449 -12508540.02247  22021507.298    22021511.636
  23394400.743   -14536598.32949 -11049097.03145  23394400.173    23394403.080
  22585248.345   -15401213.23149 -11977300.32146  22585247.798    22585251.741
  20967819.907   -25709783.74649 -20018798.02748  20967819.651    20967820.590
  20217825.049   -30506942.84149 -23742770.80648  20217824.291    20217828.258
 04  2 25  2 56 30.0000000  0  8G14G 9G18G 3G21G31G22G15
  20467063.506   -26127102.33449 -20339168.69948  20467063.027    20467065.621
  23760375.552    -9831987.95049  -7652364.49745  23760375.225    23760378.938
  22707360.364   -14585940.51349 -11351241.08946  22707359.832    22707362.311
  22030732.652   -16034686.09049 -12470765.14447  22030732.301    22030736.634
  23412092.777   -14443627.86549 -10976652.52745  23412092.026    23412094.828
  22582385.096   -15416259.78749 -11989024.90446  22582384.511    22582388.474
  20972978.595   -25682674.56649 -19997673.98248  20972978.329    20972979.285
  20223002.930   -30479732.95449 -23721568.29648  20223002.167    20223006.142
 04  2 25  2 57  0.0000000  0  8G14G 9G18G 3G21G31G22G15
  20460094.911   -26163722.54649 -20367703.91348  20460094.421    20460097.022
  23766812.978    -9798159.03749  -7626004.29145  23766812.628    23766816.473
  22719925.835   -14519908.44549 -11299787.52246  22719925.313    22719927.785
  22040042.223   -15985764.00749 -12432644.04347  22040041.876    22040046.222
  23429829.537   -14350420.33749 -10904023.29445  23429828.846    23429831.680
  22579630.968   -15430732.46249 -12000302.29446  22579630.397    22579634.509
  20978169.656   -25655395.44449 -19976417.50848  20978169.395    20978170.346
  20228268.418   -30452062.40849 -23700006.82248  20228267.662    20228271.678
 04  2 25  2 57 30.0000000  0  8G14G 9G18G 3G21G31G22G15
  20453225.744   -26199820.19049 -20395831.92348  20453225.247    20453227.832
  23773361.236    -9763747.82849  -7599190.34845  23773360.894    23773364.816
  22732506.145   -14453798.16349 -11248273.00546  22732505.654    22732508.120
  22049436.152   -15936398.71049 -12394177.57947  22049435.803    22049440.136
  23447611.128   -14256976.20349 -10831209.70245  23447610.607    23447613.550
  22576986.286   -15444630.08049 -12011131.59446  22576985.728    22576989.824
  20983393.085   -25627946.12449 -19955028.41248  20983392.829    20983393.789
  20233621.941   -30423929.56449 -23678085.11448  20233621.185    20233625.169
 04  2 25  2 58  0.0000000  0  8G14G 9G18G 3G21G31G22G15
  20446455.936   -26235395.71649 -20423553.10048  20446455.434    20446458.024
  23780019.962    -9728756.02649  -7571924.00545  23780019.526    23780023.498
  22745100.962   -14387611.48749 -11196698.98046  22745100.524    22745103.014
  22058913.862   -15886593.30449 -12355368.18647  22058913.502    22058917.798
  23465437.640   -14163297.40749 -10758213.25445  23465437.116    23465440.002
  22574450.864   -15457953.60249 -12021513.54946  22574450.353    22574454.403
  20988648.623   -25600328.01349 -19933507.79448  20988648.361    20988649.358
  20239063.234   -30395335.39949 -23655803.94948  20239062.469    20239066.420
 04  2 25  2 58 30.0000000  0  8G14G 9G18G 3G21G31G22G15
  20439785.247   -26270450.15449 -20450868.22848  20439784.752    20439787.392
  23786788.614    -9693185.87649  -7544206.98945  23786788.248    23786792.242
  22757710.006   -14321350.39949 -11145066.96846  22757709.585    22757712.013
  22068474.517   -15836351.65849 -12316218.85747  22068474.163    22068478.490
  23483308.423   -14069386.56249 -10685035.99045  23483307.794    23483310.670
  22572024.446   -15470704.43449 -12031449.25246  22572023.863    22572028.026
  20993935.864   -25572543.28849 -19911857.35048  20993935.601    20993936.624
  20244592.104   -30366280.96549 -23633164.12648  20244591.341    20244595.314
 04  2 25  2 59  0.0000000  0  8G14G 9G18G 3G21G31G22G15
  20433214.183   -26304981.26249 -20477775.56748  20433213.700    20433216.309
  23793667.493    -9657036.61849  -7516038.71045  23793667.107    23793671.001
  22770333.660   -14255012.88549 -11093375.39146  22770333.206    22770335.661
  22078118.087   -15785674.22749 -12276729.95947  22078117.717    22078122.059
  23501223.341   -13975243.11649 -10611677.47245  23501222.722    23501225.663
  22569707.361   -15482880.67749 -12040937.21346  22569706.817    22569710.971
  20999255.059   -25544590.51949 -19890075.96148  20999254.779    20999255.792
  20250209.043   -30336763.93949 -23610163.84148  20250208.263    20250212.248
 04  2 25  2 59 30.0000000  0  8G14G 9G18G 3G21G31G22G15
  20426742.959   -26338987.69049 -20504274.06648  20426742.471    20426745.084
  23800656.721    -9620307.82749  -7487418.86845  23800656.408    23800660.227
  22782971.966   -14188598.06949 -11041623.59346  22782971.517    22782974.009
  22087844.418   -15734561.95949 -12236902.23247  22087844.054    22087848.388
  23519182.442   -13880866.92749 -10538137.59645  23519181.869    23519184.835
  22567499.873   -15494481.16849 -12049976.55146  22567499.325    22567503.417
  21004606.362   -25516469.15549 -19868163.20948  21004606.114    21004607.105
  20255914.257   -30306782.76449 -23586801.89048  20255913.473    20255917.463
 04  2 25  3  0  0.0000000  0  8G14G 9G18G 3G21G31G22G15
  20420371.419   -26372470.19149 -20530364.31448  20420370.951    20420373.569
  23807755.973    -9583001.44749  -7458348.97145  23807755.644    23807759.542
  22795624.641   -14122107.92749 -10989813.09146  22795624.218    22795626.694
  22097652.809   -15683018.42649 -12196738.44647  22097652.454    22097656.831
  23537185.572   -13786260.39049 -10464418.21945  23537184.996    23537187.841
  22565401.761   -15505507.03349 -12058568.12646  22565401.138    22565405.247
  21009989.404   -25488181.02149 -19846120.49948  21009989.137    21009990.144
  20261707.655   -30276338.14549 -23563078.80648  20261706.872    20261710.868
 04  2 25  3  0 30.0000000  0  8G14G 9G18G 3G21G31G22G15
  20414099.118   -26405431.36449 -20556048.32448  20414098.644    20414101.249
  23814964.403    -9545121.13949  -7428831.84845  23814964.054    23814967.939
  22808291.071   -14055545.45749 -10937946.22446  22808290.669    22808293.164
  22107542.331   -15631048.44949 -12156242.36847  22107541.997    22107546.401
  23555231.657   -13691427.65049 -10390522.60445  23555231.143    23555233.924
  22563412.324   -15515961.03849 -12066714.08646  22563411.735    22563415.887
  21015403.520   -25459729.59849 -19823950.54748  21015403.269    21015404.247
  20267588.752   -30245432.74649 -23538996.66348  20267587.981    20267591.977
 04  2 25  3  1  0.0000000  0  8G14G 9G18G 3G21G31G22G15
  20407927.028   -26437865.75649 -20581321.86148  20407926.547    20407929.159
  23822282.765    -9506662.85049  -7398864.34245  23822282.477    23822286.276
  22820972.088   -13988905.89449 -10886019.29346  22820971.650    22820974.306
  22117513.595   -15578649.39949 -12115411.94847  22117513.234    22117517.657
  23573321.577   -13596364.47149 -10316447.40945  23573321.069    23573323.846
  22561532.816   -15525838.25049 -12074410.61646  22561532.256    22561536.264
  21020849.608   -25431110.31249 -19801649.79448  21020849.329    21020850.298
  20273558.493   -30214061.43949 -23514551.48748  20273557.738    20273561.712
 04  2 25  3  1 30.0000000  0  8G14G 9G18G 3G21G31G22G15
  20401854.372   -26469777.69549 -20606188.28948  20401853.900    20401856.497
  23829710.086    -9467632.29949  -7368450.91045  23829709.835    23829713.537
  22833667.007   -13922193.60349 -10834035.69246  22833666.552    22833669.281
  22127565.176   -15525828.08649 -12074252.48847  22127564.816    22127569.195
  23591454.137   -13501077.09249 -10242197.50345  23591453.657    23591456.404
  22559762.031   -15535143.39849 -12081661.34846  22559761.443    22559765.536
  21026326.667   -25402327.99249 -19779222.00348  21026326.397    21026327.375
  20279616.088   -30182228.58049 -23489746.66048  20279615.324    20279619.272
 04  2 25  3  2  0.0000000  0  8G14G 9G18G 3G21G31G22G15
  20395881.784   -26501164.01249 -20630645.14548  20395881.295    20395883.903
  23837246.636    -9428027.50849  -7337590.02345  23837246.388    23837250.021
  22846376.250   -13855406.12349 -10781993.50946  22846375.803    22846378.529
  22137697.205   -15472583.92849 -12032763.55247  22137696.842    22137701.245
  23609629.582   -13405563.72849 -10167771.52145  23609629.163    23609631.979
  22558100.674   -15543873.61549 -12088464.11246  22558100.142    22558104.201
  21031835.272   -25373380.21749 -19756665.28948  21031834.974    21031835.946
  20285762.116   -30149930.83649 -23464579.59748  20285761.370    20285765.341
 04  2 25  3  2 30.0000000  0  8G14G 9G18G 3G21G31G22G15
  20390008.907   -26532025.95449 -20654693.39548  20390008.421    20390011.026
  23844891.981    -9387850.47249  -7306283.23345  23844891.795    23844895.425
  22859099.393   -13788545.43349 -10729894.26546  22859098.965    22859101.668
  22147909.045   -15418920.30249 -11990947.74947  22147908.692    22147913.088
  23627847.885   -13309826.78149 -10093171.30545  23627847.262    23627850.101
  22556548.655   -15552030.04949 -12094819.76246  22556548.107    22556552.062
  21037374.888   -25344269.10749 -19733981.30147  21037374.619    21037375.589
  20291996.517   -30117168.91449 -23439050.83348  20291995.764    20291999.743
 04  2 25  3  3  0.0000000  0  8G14G 9G18G 3G21G31G22G15
  20384235.898   -26562363.17949 -20678332.77448  20384235.417    20384238.012
  23852646.072    -9347102.74949  -7274531.76245  23852645.917    23852649.552
  22871836.498   -13721611.71549 -10677738.11846  22871836.028    22871838.691
  22158200.160   -15364840.27249 -11948807.47547  22158199.787    22158204.184
  23646108.350   -13213867.74949 -10018398.05545  23646107.740    23646110.507
  22555105.507   -15559613.49049 -12100728.92646  22555104.956    22555108.952
  21042945.481   -25314995.27649 -19711170.51347  21042945.192    21042946.201
  20298319.115   -30083943.47249 -23413160.88048  20298318.357    20298322.339
 04  2 25  3  3 30.0000000  0  8G14G 9G18G 3G21G31G22G15
  20378562.616   -26592176.56449 -20701563.96748  20378562.125    20378564.720
  23860508.374    -9305786.06849  -7242336.92945  23860508.184    23860511.880
  22884587.268   -13654606.14949 -10625525.98546  22884586.810    22884589.382
  22168569.884   -15310346.91649 -11906345.12947  22168569.509    22168573.882
  23664410.543   -13117688.58649  -9943453.26545  23664410.060    23664412.874
  22553771.356   -15566624.75349 -12106192.24446  22553770.780    22553774.718
  21048546.754   -25285560.06449 -19688233.97947  21048546.494    21048547.511
  20304729.855   -30050254.80949 -23386909.97248  20304729.099    20304733.095
 04  2 25  3  4  0.0000000  0  8G14G 9G18G 3G21G31G22G15
  20372989.485   -26621463.30449 -20724384.78848  20372989.013    20372991.596
  23868479.327    -9263898.67149  -7209697.37545  23868479.026    23868482.634
  22897352.217   -13587526.05349 -10573255.78746  22897351.763    22897354.290
  22179018.423   -15255439.57149 -11863560.18847  22179018.056    22179022.425
  23682755.140   -13021287.62349  -9868335.65245  23682754.481    23682757.354
  22552546.518   -15573061.23749 -12111207.67446  22552545.947    22552549.873
  21054179.238   -25255961.26849 -19665169.97347  21054178.975    21054179.980
  20311229.289   -30016099.97849 -23360295.82148  20311228.529    20311232.535
 04  2 25  3  4 30.0000000  0  8G14G 9G18G 3G21G31G22G15
  20367516.559   -26650223.80649 -20746795.55448  20367516.082    20367518.654
  23876558.449    -9221442.40249  -7176614.56645  23876558.123    23876561.780
  22910131.027   -13520372.48949 -10520928.33946  22910130.557    22910133.121
  22189545.185   -15200121.26149 -11820455.02247  22189544.788    22189549.161
  23701141.309   -12924667.39349  -9793047.16045  23701140.592    23701143.563
  22551430.873   -15578923.78049 -12115775.88446  22551430.320    22551434.327
  21059842.601   -25226199.99849 -19641979.36447  21059842.344    21059843.371
  20317817.423   -29981479.10649 -23333318.52048  20317816.658    20317820.670
 04  2 25  3  5  0.0000000  0  8G14G 9G18G 3G21G31G22G15
  20362143.160   -26678461.11349 -20768798.63648  20362142.662    20362145.239
  23884744.987    -9178421.72349  -7143091.93245  23884744.686    23884748.316
  22922923.134   -13453149.26349 -10468546.61546  22922922.651    22922925.220
  22200149.042   -15144397.63349 -11777034.02447  22200148.637    22200153.046
  23719568.264   -12827832.00449  -9717591.02745  23719567.745    23719570.679
  22550423.847   -15584215.76449 -12119899.50846  22550423.297    22550427.244
  21065536.199   -25196279.84349 -19618664.95647  21065535.933    21065536.956
  20324493.605   -29946395.40749 -23305980.57848  20324492.836    20324496.850
 04  2 25  3  5 30.0000000  0  8G14G 9G18G 3G21G31G22G15
  20356870.038   -26706171.41349 -20790391.06548  20356869.553    20356872.100
  23893039.424    -9134833.84249  -7109127.37145  23893039.033    23893042.893
  22935729.240   -13385852.76749 -10416107.78246  22935728.765    22935731.294
  22210830.276   -15088267.01749 -11733295.88847  22210829.893    22210834.313
  23738036.918   -12730779.03549  -9641965.34645  23738036.419    23738039.317
  22549526.071   -15588933.73949 -12123575.84946  22549525.459    22549529.459
  21071260.584   -25166197.90049 -19595224.47247  21071260.330    21071261.378
  20331258.635   -29910844.96849 -23278278.93348  20331257.873    20331261.881
 04  2 25  3  6  0.0000000  0  8G14G 9G18G 3G21G31G22G15
  20351696.963   -26733356.09249 -20811573.92048  20351696.474    20351699.007
  23901441.284    -9090681.49449  -7074722.92945  23901440.937    23901444.946
  22948548.988   -13318484.59649 -10363613.09746  22948548.531    22948551.051
  22221588.257   -15031733.68349 -11689243.95347  22221587.885    22221592.221
  23756546.699   -12633510.91949  -9566172.04545  23756545.966    23756548.957
  22548737.023   -15593079.66049 -12126806.42146  22548736.474    22548740.555
  21077015.496   -25135955.74949 -19571659.14947  21077015.236    21077016.264
  20338112.233   -29874829.16849 -23250214.67548  20338111.488    20338115.471
 04  2 25  3  6 30.0000000  0  8G14G 9G18G 3G21G31G22G15
  20346623.723   -26760016.34649 -20832348.12248  20346623.236    20346625.743
  23909950.145    -9045967.13649  -7039880.57945  23909949.727    23909953.767
  22961382.099   -13251046.24749 -10311063.72946  22961381.606    22961384.226
  22232422.044   -14974801.86549 -11644881.50147  22232421.645    22232426.025
  23775096.606   -12536030.36349  -9490213.18445  23775095.884    23775098.920
  22548056.656   -15596655.26349 -12129592.60846  22548056.096    22548060.101
  21082800.502   -25105555.24049 -19547970.42847  21082800.241    21082801.276
  20345054.089   -29838349.54349 -23221788.99048  20345053.313    20345057.329
 04  2 25  3  7  0.0000000  0  8G14G 9G18G 3G21G31G22G15
  20341650.649   -26786150.11649 -20852712.08748  20341650.149    20341652.626
  23918566.107    -9000689.97249  -7004599.68645  23918565.702    23918569.724
  22974228.998   -13183535.72649 -10258458.12746  22974228.503    22974231.104
  22243331.599   -14917471.33649 -11600208.37047  22243331.262    22243335.701
  23793686.856   -12438337.12349  -9414088.60545  23793686.274    23793689.269
  22547485.066   -15599658.73549 -12131932.97446  22547484.501    22547488.482
  21088615.951   -25074994.80349 -19524157.09647  21088615.695    21088616.712
  20352084.636   -29801403.65749 -23193000.00248  20352083.866    20352087.912
 04  2 25  3  7 30.0000000  0  8G14G 9G18G 3G21G31G22G15
  20336777.294   -26811759.63849 -20872667.54548  20336776.782    20336779.272
  23927288.440    -8954853.69349  -6968883.10945  23927288.073    23927292.049
  22987089.131   -13115955.81649 -10205798.45646  22987088.580    22987091.126
  22254316.289   -14859746.87449 -11555228.28247  22254315.918    22254320.290
  23812317.136   -12340434.25149  -9337800.64745  23812316.696    23812319.551
  22547021.881   -15602092.61249 -12133829.49046  22547021.362    22547025.366
  21094461.255   -25044277.37349 -19500221.42847  21094460.979    21094462.023
  20359203.483   -29763993.83849 -23163849.49848  20359202.717    20359206.745
 04  2 25  3  8  0.0000000  0  8G14G 9G18G 3G21G31G22G15
  20332003.836   -26836844.34049 -20892214.05248  20332003.337    20332005.818
  23936117.161    -8908458.48349  -6932730.97745  23936116.831    23936120.783
  22999962.394   -13048305.94949 -10153084.26846  22999961.898    22999964.454
  22265375.581   -14801630.25649 -11509942.62147  22265375.172    22265379.535
  23830987.570   -12242322.49749  -9261349.94145  23830986.771    23830989.653
  22546667.231   -15603956.56249 -12135281.91546  22546666.737    22546670.695
  21100336.541   -25013402.55749 -19476163.11947  21100336.271    21100337.318
  20366410.763   -29726119.38049 -23134336.95048  20366409.998    20366413.987
 04  2 25  3  8 30.0000000  0  8G14G 9G18G 3G21G31G22G15
  20327330.336   -26861403.72749 -20911351.22248  20327329.832    20327332.334
  23945052.080    -8861505.13549  -6896143.94545  23945051.765    23945055.704
  23012849.051   -12980586.01749 -10100315.49446  23012848.577    23012851.089
  22276509.002   -14743123.32249 -11464352.80547  22276508.664    22276513.049
  23849697.185   -12144002.38849  -9184736.88345  23849696.409    23849699.320
  22546420.976   -15605250.41149 -12136290.10946  22546420.418    22546424.414
  21106241.751   -24982370.39649 -19451982.21347  21106241.493    21106242.536
  20373706.632   -29687779.42849 -23104461.66148  20373705.887    20373709.859
 04  2 25  3  9  0.0000000  0  8G14G 9G18G 3G21G31G22G15
  20322757.398   -26885434.67449 -20930076.62248  20322756.898    20322759.393
  23954093.451    -8813992.55749  -6859121.16145  23954093.176    23954096.996
  23025749.595   -12912792.96449 -10047489.73746  23025749.175    23025751.684
  22287716.873   -14684226.03149 -11418458.82847  22287716.495    22287720.858
  23868446.536   -12045472.77749  -9107960.57345  23868445.939    23868448.968
  22546283.710   -15605972.02649 -12136852.41246  22546283.193    22546287.087
  21112177.447   -24951178.29949 -19427676.68047  21112177.154    21112178.166
  20381091.604   -29648971.20449 -23074221.48348  20381090.844    20381094.836
 04  2 25  3  9 30.0000000  0  8G14G 9G18G 3G21G31G22G15
  20318283.891   -26908942.99549 -20948394.77748  20318283.405    20318285.873
  23963239.979    -8765927.26649  -6821667.68345  23963239.674    23963243.488
  23038663.015   -12844932.53349  -9994611.48246  23038662.546    23038665.063
  22298997.476   -14624946.23449 -11372266.78747  22298997.076    22299001.444
  23887234.770   -11946740.22349  -9031026.13145  23887234.092    23887237.125
  22546254.309   -15606127.14749 -12136973.27646  22546253.733    22546257.719
  21118142.419   -24919832.04649 -19403251.02247  21118142.144    21118143.180
  20388564.691   -29609699.95849 -23043620.51748  20388563.911    20388567.909
 04  2 25  3 10  0.0000000  0  8G14G 9G18G 3G21G31G22G15
  20313910.536   -26931925.04949 -20966302.85848  20313910.043    20313912.531
  23972492.180    -8717306.81149  -6783781.59345  23972491.808    23972495.592
  23051589.791   -12777001.73249  -9941678.39746  23051589.347    23051591.811
  22310351.095   -14565282.58849 -11325775.64547  22310350.686    22310355.067
  23906062.189   -11847802.54149  -8953931.85045  23906061.458    23906064.322
  22546333.056   -15605712.68349 -12136650.31546  22546332.479    22546336.538
  21124137.297   -24888328.74149 -19378702.99947  21124137.034    21124138.032
  20396126.524   -29569962.16549 -23012656.01748  20396125.766    20396129.759
 04  2 25  3 10 30.0000000  0  9G14G25G 9G18G 3G21G31G22G15
  20309636.781   -26954383.58349 -20983802.99448  20309636.321    20309638.777
  24496948.961    -4282153.96349  -3318361.92745  24496948.655    24496953.333
  23981849.228    -8668135.40649  -6745466.15145  23981848.911    23981852.570
  23064529.484   -12709003.28049  -9888692.58146  23064529.039    23064531.557
  22321776.612   -14505240.58449 -11278989.66847  22321776.246    22321780.680
  23924927.562   -11748664.00649  -8876681.05645  23924926.848    23924929.648
  22546519.740   -15604731.85049 -12135886.03446  22546519.199    22546523.013
  21130161.465   -24856671.45649 -19354034.97047  21130161.184    21130162.181
  20403776.635   -29529760.66849 -22981330.18148  20403775.870    20403779.843
 04  2 25  3 11  0.0000000  0  9G14G25G 9G18G 3G21G31G22G15
  20305462.999   -26976317.04249 -21000893.99048  20305462.521    20305464.987
  24478257.959    -4380376.02049  -3394898.55945  24478257.715    24478262.380
  23991311.145    -8618412.52649  -6706721.02645  23991310.870    23991314.554
  23077482.449   -12640934.86449  -9835652.26046  23077481.992    23077484.575
  22333274.184   -14444820.65449 -11231909.21547  22333273.796    22333278.223
  23943831.294   -11649323.66349  -8799272.99645  23943830.691    23943833.575
  22546814.494   -15603183.26349 -12134679.33346  22546813.896    22546817.884
  21136215.215   -24824858.74149 -19329245.84347  21136214.943    21136215.958
  20411515.362   -29489093.43249 -22949641.43648  20411514.602    20411518.575
 04  2 25  3 11 30.0000000  0  9G14G25G 9G18G 3G21G31G22G15
  20301389.083   -26997725.56349 -21017575.93748  20301388.611    20301391.061
  24459556.514    -4478652.26449  -3471477.41745  24459556.421    24459560.763
  24000877.725    -8568139.97749  -6667547.61745  24000877.448    24000881.204
  23090448.602   -12572797.21749  -9782557.99546  23090448.136    23090450.835
  22344843.211   -14384025.22749 -11184536.15947  22344842.807    22344847.188
  23962773.355   -11549783.05449  -8721708.90845  23962772.737    23962775.552
  22547216.979   -15601067.70549 -12133030.83346  22547216.407    22547220.453
  21142298.487   -24792890.95849 -19304335.86947  21142298.212    21142299.227
  20419342.655   -29447960.60649 -22917589.88048  20419341.884    20419345.878
 04  2 25  3 12  0.0000000  0  9G14G25G 9G18G 3G21G31G22G15
  20297414.902   -27018610.10349 -21033849.58548  20297414.432    20297416.860
  24440845.083    -4576981.02749  -3548097.18645  24440845.006    24440849.331
  24010548.425    -8517319.84749  -6627947.51645  24010548.193    24010552.007
  23103427.622   -12504591.72149  -9729410.86546  23103427.130    23103429.842
  22356482.917   -14322857.84149 -11136873.26446  22356482.559    22356486.975
  23981753.175   -11450044.26749  -8643990.39445  23981752.258    23981755.182
  22547727.230   -15598386.50049 -12130941.59346  22547726.674    22547730.537
  21148411.022   -24760769.21449 -19279305.92447  21148410.760    21148411.773
  20427258.435   -29406363.03849 -22885176.18848  20427257.664    20427261.646
 04  2 25  3 12 30.0000000  0  9G14G25G 9G18G 3G21G31G22G15
  20293540.481   -27038970.54849 -21049714.85248  20293539.975    20293542.384
  24422124.245    -4675359.31349  -3624755.55545  24422124.155    24422128.396
  24020323.015    -8465953.26949  -6587921.63745  24020322.807    24020326.774
  23116419.688   -12436317.91149  -9676210.49046  23116419.196    23116421.863
  22368193.035   -14261320.77649 -11088922.31146  22368192.682    22368197.099
  24000770.245   -11350108.37749  -8566118.28245  24000769.554    24000772.307
  22548345.071   -15595139.92249 -12128411.78446  22548344.486    22548348.391
  21154552.839   -24728493.79849 -19254156.23747  21154552.588    21154553.580
  20435262.607   -29364300.77349 -22852400.39148  20435261.833    20435265.791
 04  2 25  3 13  0.0000000  0  9G14G25G 9G18G 3G21G31G22G15
  20289766.029   -27058805.32749 -21065170.50848  20289765.538    20289767.931
  24403395.051    -4773782.59949  -3701448.97745  24403394.731    24403398.896
  24030201.680    -8414039.97549  -6547469.73745  24030201.538    24030205.564
  23129425.128   -12367973.88949  -9622955.42046  23129424.662    23129427.333
  22379973.390   -14199415.06049 -11040684.09846  22379973.007    22379977.374
  24019824.767   -11249975.41749  -8488092.63445  24019824.192    24019826.956
  22549070.493   -15591326.97249 -12125440.63846  22549069.974    22549074.140
  21160724.136   -24696063.45949 -19228885.83647  21160723.876    21160724.857
  20443355.547   -29321772.00749 -22819261.08748  20443354.780    20443358.770
 04  2 25  3 13 30.0000000  0  9G14G25G 9G18G 3G21G31G22G15
  20286091.152   -27078116.82749 -21080218.41148  20286090.652    20286093.030
  24384657.302    -4872250.71649  -3778177.31345  24384656.873    24384661.001
  24040183.854    -8361583.74149  -6506594.73645  24040183.607    24040187.570
  23142443.522   -12299562.08549  -9569647.54146  23142443.010    23142445.645
  22391822.889   -14137145.58749 -10992162.43446  22391822.524    22391826.850
  24038916.343   -11149648.55049  -8409915.86945  24038915.835    24038918.675
  22549903.478   -15586950.61949 -12122030.49946  22549902.887    22549906.856
  21166924.423   -24663480.74649 -19203496.71147  21166924.153    21166925.147
  20451536.841   -29278779.22649 -22785760.22348  20451536.046    20451540.028
 04  2 25  3 14  0.0000000  0  9G14G25G 9G18G 3G21G31G22G15
  20282515.606   -27096906.31949 -21094859.56148  20282515.107    20282517.479
  24365911.288    -4970761.48249  -3854938.90145  24365910.781    24365914.945
  24050268.917    -8308586.88449  -6465298.47945  24050268.645    24050272.499
  23155474.516   -12231083.68149  -9516287.75046  23155474.029    23155476.571
  22403740.926   -14074515.54949 -10943359.81946  22403740.573    22403744.967
  24058044.296   -11049130.20449  -8331589.90345  24058043.783    24058046.732
  22550843.200   -15582012.20149 -12118182.38746  22550842.587    22550846.464
  21173153.487   -24630746.80849 -19177989.75147  21173153.231    21173154.216
  20459806.261   -29235323.06349 -22751898.28348  20459805.511    20459809.475
 04  2 25  3 14 30.0000000  0  9G14G25G 9G18G 3G21G31G22G15
  20279039.573   -27115173.00549 -21109093.32548  20279039.093    20279041.455
  24347157.767    -5069311.37349  -3931730.96245  24347157.304    24347161.557
  24060456.703    -8255049.99049  -6423581.42345  24060456.413    24060460.314
  23168518.336   -12162538.03449  -9462875.55546  23168517.819    23168520.393
  22415727.415   -14011526.50249 -10894277.45846  22415727.025    22415731.377
  24077208.850   -10948420.56349  -8253114.87445  24077208.236    24077211.152
  22551889.814   -15576511.31549 -12113895.96646  22551889.282    22551893.441
  21179411.529   -24597860.65149 -19152364.16647  21179411.279    21179412.254
  20468164.031   -29191402.72949 -22717674.64948  20468163.265    20468167.244
 04  2 25  3 15  0.0000000  0  9G14G25G 9G18G 3G21G31G22G15
  20275662.887   -27132917.53749 -21122920.22248  20275662.401    20275664.761
  24328397.049    -5167898.46549  -4008552.01645  24328396.692    24328401.122
  24070746.856    -8200974.98649  -6381445.07645  24070746.560    24070750.357
  23181574.842   -12093925.64149  -9409411.35246  23181574.340    23181576.909
  22427781.633   -13948181.24949 -10844917.52746  22427781.230    22427785.648
  24096409.307   -10847521.55149  -8174492.29845  24096408.673    24096411.606
  22553043.506   -15570449.32649 -12109172.34546  22553042.913    22553047.031
  21185698.295   -24564823.42349 -19126620.85247  21185698.046    21185699.023
  20476609.993   -29147018.86049 -22683089.82948  20476609.238    20476613.241
 04  2 25  3 15 30.0000000  0  9G14G25G 9G18G 3G21G31G22G15
  20272385.889   -27150138.15949 -21136338.87248  20272385.390    20272387.737
  24309630.159    -5266518.07049  -4085398.40245  24309629.924    24309634.463
  24081139.442    -8146361.50949  -6338889.11445  24081139.114    24081142.847
  23194644.393   -12025244.50249  -9355893.58246  23194643.902    23194646.464
  22439903.451   -13884480.59949 -10795280.66346  22439903.049    22439907.501
  24115645.831   -10746432.48149  -8095721.62045  24115645.255    24115648.202
  22554303.975   -15563825.04749 -12104010.56346  22554303.381    22554307.410
  21192014.152   -24531633.46149 -19100758.53047  21192013.904    21192014.841
  20485144.543   -29102169.64549 -22648142.40348  20485143.770    20485147.744
 04  2 25  3 16  0.0000000  0  9G14G25G 9G18G 3G21G31G22G15
  20269208.340   -27166836.24149 -21149350.35648  20269207.849    20269210.191
  24290857.477    -5365168.31849  -4162268.66745  24290857.309    24290861.960
  24091633.977    -8091212.42549  -6295915.78245  24091633.650    24091637.444
  23207726.953   -11956495.66049  -9302323.06046  23207726.416    23207728.928
  22452092.146   -13820428.33749 -10745369.81646  22452091.770    22452096.197
  24134918.116   -10645156.26549  -8016805.13145  24134917.564    24134920.510
  22555671.145   -15556640.13249 -12098411.92746  22555670.624    22555674.656
  21198358.816   -24498292.23049 -19074778.35447  21198358.552    21198359.507
  20493767.390   -29056856.35749 -22612833.36148  20493766.631    20493770.569
 04  2 25  3 16 30.0000000  0  9G14G25G 9G18G 3G21G31G22G15
  20266129.754   -27183014.28149 -21161956.60848  20266129.281    20266131.586
  24272079.065    -5463848.49649  -4239162.25945  24272079.059    24272083.680
  24102229.656    -8035531.50049  -6252528.03845  24102229.304    24102233.245
  23220821.859   -11887681.69249  -9248701.77646  23220821.300    23220823.844
  22464346.999   -13756029.04149 -10695188.55146  22464346.567    22464350.980
  24154225.389   -10543695.78249  -7937745.02345  24154224.848    24154227.823
  22557144.639   -15548897.62149 -12092378.80546  22557144.034    22557148.138
  21204731.770   -24464802.10049 -19048682.15347  21204731.500    21204732.443
  20502478.100   -29011081.32349 -22577164.50848  20502477.330    20502481.284
 04  2 25  3 17  0.0000000  0  9G14G25G 9G18G 3G21G31G22G15
  20263150.369   -27198670.98049 -21174156.62448  20263149.873    20263152.196
  24253295.798    -5562554.43349  -4316075.91045  24253295.764    24253300.416
  24112926.530    -7979318.76749  -6208725.91645  24112926.239    24112930.213
  23233929.438   -11818800.93349  -9195028.47546  23233928.836    23233931.478
  22476667.558   -13691284.03449 -10644737.89546  22476667.147    22476671.555
  24173567.686   -10442051.27449  -7858541.54645  24173567.008    24173570.194
  22558724.235   -15540596.79149 -12085910.62346  22558723.591    22558727.648
  21211133.278   -24431161.79349 -19022468.93147  21211133.008    21211133.949
  20511276.941   -28964843.03749 -22541134.67948  20511276.189    20511280.123
 04  2 25  3 17 30.0000000  0  9G14G25G 9G18G 3G21G31G22G15
  20260270.620   -27213803.98149 -21185948.56148  20260270.147    20260272.474
  24234508.572    -5661280.94749  -4393005.60345  24234508.659    24234513.455
  24123725.041    -7922572.90849  -6164508.35945  24123724.593    24123728.557
  23247050.214   -11749850.51649  -9141300.88746  23247049.643    23247052.319
  22489053.956   -13626193.11549 -10594017.70546  22489053.532    22489057.949
  24192945.374   -10340221.22549  -7779193.48845  24192944.693    24192947.803
  22560410.415   -15531735.55749 -12079005.76746  22560409.833    22560413.796
  21217563.818   -24397368.88949 -18996136.79447  21217563.566    21217564.514
  20520164.459   -28918138.92949 -22504741.87348  20520163.696    20520167.623
 04  2 25  3 18  0.0000000  0  9G14G25G 9G18G 3G21G31G22G15
  20257489.213   -27228420.41949 -21197337.97948  20257488.732    20257491.058
  24215716.974    -5760031.73149  -4469954.20345  24215716.948    24215721.794
  24134623.178    -7865302.29249  -6119881.89145  24134622.848    24134626.782
  23260182.979   -11680837.32749  -9087524.37046  23260182.450    23260185.106
  22501504.393   -13560765.58949 -10543035.21446  22501503.983    22501508.427
  24212356.701   -10238213.67849  -7699707.10845  24212356.085    24212359.208
  22562202.027   -15522321.58849 -12071670.21746  22562201.354    22562205.286
  21224022.113   -24363430.35449 -18969691.16747  21224021.865    21224022.806
  20529139.297   -28870975.91349 -22467991.47948  20529138.533    20529142.461
 04  2 25  3 18 30.0000000  0  9G14G25G 9G18G 3G21G31G22G15
  20254807.033   -27242515.32949 -21208321.01348  20254806.549    20254808.886
  24196922.253    -5858799.05449  -4546915.69445  24196922.269    24196926.921
  24145621.841    -7807503.51149  -6074843.88045  24145621.534    24145625.467
  23273328.633   -11611756.66749  -9033695.28146  23273328.090    23273330.839
  22514019.406   -13494998.79749 -10491788.36146  22514018.999    22514023.389
  24231802.591   -10136024.69349  -7620079.33845  24231802.042    24231805.149
  22564099.294   -15512350.60549 -12063900.60846  22564098.670    22564102.792
  21230509.039   -24329341.40349 -18943128.33647  21230508.795    21230509.693
  20538202.358   -28823349.24349 -22430879.79548  20538201.609    20538205.544
 04  2 25  3 19  0.0000000  0  9G14G25G 9G18G 3G21G31G22G15
  20252223.837   -27256090.21849 -21218898.83548  20252223.347    20252225.670
  24178124.629    -5957581.08649  -4623888.66645  24178124.743    24178129.311
  24156720.550    -7749179.22149  -6029396.38145  24156720.380    24156724.144
  23286486.981   -11542609.38949  -8979814.28646  23286486.411    23286489.188
  22526598.330   -13428896.24849 -10440279.89046  22526597.881    22526602.268
  24251282.635   -10033657.15349  -7540312.45845  24251281.947    24251284.902
  22566102.436   -15501824.30949 -12055698.31046  22566101.823    22566105.818
  21237024.347   -24295103.21549 -18916449.22447  21237024.114    21237024.992
  20547353.460   -28775259.81149 -22393407.51648  20547352.714    20547356.663
 04  2 25  3 19 30.0000000  0  9G14G25G 9G18G 3G21G31G22G15
  20249739.127   -27269147.40749 -21229073.25548  20249738.618    20249740.949
  24159324.401    -6056376.85849  -4700872.35145  24159324.498    24159328.989
  24167918.626    -7690332.76949  -5983542.01045  24167918.438    24167922.300
  23299657.650   -11473397.12849  -8925882.65146  23299657.063    23299659.873
  22539240.254   -13362462.16349 -10388513.07246  22539239.829    22539244.245
  24270795.956    -9931113.71349  -7460408.49745  24270795.358    24270798.160
  22568210.670   -15490745.38949 -12047065.38246  22568210.063    22568214.076
  21243567.652   -24260717.84449 -18889655.43247  21243567.404    21243568.316
  20556592.289   -28726709.68349 -22355576.25348  20556591.518    20556595.497
 04  2 25  3 20  0.0000000  0  9G14G25G 9G18G 3G21G31G22G15
  20247352.888   -27281687.04149 -21238844.38348  20247352.410    20247354.729
  24140522.100    -6155183.77449  -4777864.71945  24140522.174    24140526.478
  24179215.702    -7630966.23849  -5937282.36345  24179215.468    24179219.288
  23312840.668   -11404119.80849  -8871900.33246  23312840.107    23312842.802
  22551944.698   -13295699.68949 -10336490.35746  22551944.294    22551948.740
  24290342.505    -9828395.92649  -7380368.67945  24290341.996    24290344.598
  22570423.795   -15479115.09949 -12038002.81446  22570423.251    22570427.348
  21250138.995   -24226185.31149 -18862746.96347  21250138.755    21250139.651
  20565918.604   -28677699.47249 -22317386.48448  20565917.851    20565921.822
 04  2 25  3 20 30.0000000  0  9G14G25G 9G18G 3G21G31G22G15
  20245065.599   -27293706.73249 -21248210.36648  20245065.103    20245067.426
  24121718.785    -6253996.33349  -4854861.46945  24121718.732    24121723.053
  24190611.926    -7571078.36149  -5890616.47145  24190611.848    24190615.538
  23326036.549   -11334774.80249  -8817865.27546  23326035.971    23326038.625
  22564711.748   -13228608.44549 -10284211.47246  22564711.326    22564715.760
  24309922.452    -9725502.70149  -7300192.15745  24309921.792    24309924.574
  22572742.344   -15466931.27149 -12028508.92946  22572741.786    22572745.829
  21256738.789   -24191503.20649 -18835721.95047  21256738.526    21256739.428
  20575333.052   -28628226.21749 -22278835.91248  20575332.304    20575336.275
 04  2 25  3 21  0.0000000  0  9G14G25G 9G18G 3G21G31G22G15
  20242876.463   -27305210.71349 -21257174.49448  20242875.979    20242878.310
  24102914.195    -6352815.09349  -4931863.05245  24102913.980    24102918.428
  24202106.522    -7510674.64349  -5843548.64645  24202106.281    24202110.012
  23339244.574   -11265365.86849  -8763780.40546  23339244.028    23339246.654
  22577540.098   -13161194.82649 -10231681.38846  22577539.724    22577544.164
  24329534.849    -9622438.82049  -7219882.64745  24329534.254    24329537.226
  22575165.229   -15454198.69749 -12018587.44646  22575164.659    22575168.636
  21263366.215   -24156675.53149 -18808583.49447  21263365.988    21263366.911
  20584834.843   -28578293.96749 -22239927.68348  20584834.076    20584838.075
 04  2 25  3 21 30.0000000  0  9G14G25G 9G18G 3G21G31G22G15
  20240785.700   -27316197.64949 -21265735.73148  20240785.196    20240787.528
  24084109.274    -6451635.50749  -5008865.92545  24084108.998    24084113.352
  24213699.245    -7449754.68949  -5796078.54045  24213699.095    24213702.713
  23352465.104   -11195891.23349  -8709644.33246  23352464.596    23352467.234
  22590429.719   -13093459.57049 -10178900.67546  22590429.291    22590433.765
  24349180.007    -9519204.01949  -7139439.96545  24349179.073    24349181.942
  22577692.784   -15440916.42049 -12008237.62146  22577692.229    22577696.240
  21270021.704   -24121700.57349 -18781330.27247  21270021.481    21270022.425
  20594424.244   -28527901.20249 -22200660.59948  20594423.497    20594427.495
 04  2 25  3 22  0.0000000  0  9G14G25G 9G18G 3G21G31G22G15
  20238793.266   -27326667.99749 -21273894.43448  20238792.775    20238795.074
  24065304.797    -6550454.57749  -5085867.76845  24065304.357    24065308.695
  24225389.691    -7388320.68449  -5748207.88445  24225389.482    24225393.143
  23365698.179   -11126350.84249  -8655457.01246  23365697.743    23365700.398
  22603379.953   -13025405.55449 -10125871.57446  22603379.576    22603384.048
  24368857.427    -9415799.92349  -7058865.34745  24368856.371    24368859.133
  22580324.765   -15427085.59249 -11997460.36246  22580324.187    22580328.110
  21276705.156   -24086578.72649 -18753962.59947  21276704.914    21276705.880
  20604101.242   -28477048.42249 -22161035.06748  20604100.498    20604104.482
 04  2 25  3 22 30.0000000  0  9G14G25G 9G18G 3G21G31G22G15
  20236898.860   -27336623.10949 -21281651.65248  20236898.377    20236900.679
  24046501.054    -6649270.15849  -5162866.88845  24046500.474    24046504.688
  24237177.496    -7326374.78649  -5699938.35345  24237177.272    24237180.946
  23378943.669   -11056745.55849  -8601219.12946  23378943.184    23378945.899
  22616390.334   -12957035.84849 -10072596.48546  22616389.919    22616394.350
  24388566.526    -9312228.13349  -6978160.08445  24388565.497    24388568.324
  22583060.648   -15412707.79049 -11986256.87946  22583060.113    22583064.052
  21283416.390   -24051310.71749 -18726481.02947  21283416.158    21283417.142
  20613865.593   -28425736.51049 -22121051.76148  20613864.818    20613868.818
 04  2 25  3 23  0.0000000  0 10G14G25G 9G18G 3G21G31G22G11G15
  20235102.044   -27346065.43149 -21289009.29448  20235101.541    20235103.863
  24027697.984    -6748081.57549  -5239862.77445  24027697.311    24027701.468
  24249062.019    -7263921.14649  -5651273.14845  24249061.723    24249065.524
  23392201.191   -10987077.32349  -8546932.18846  23392200.676    23392203.396
  22629459.862   -12888355.19249 -10019079.09446  22629459.431    22629463.864
  24408306.676    -9208492.35849  -6897327.01045  24408305.622    24408308.474
  22585900.254   -15397786.09349 -11974629.59046  22585899.667    22585903.580
  21290155.121   -24015898.59549 -18698887.15947  21290154.882    21290155.843
  24642238.923    -3798342.62549  -2154247.34045  24642238.463    24642241.951
  20623716.762   -28373967.93949 -22080712.62847  20623716.009    20623720.048
 04  2 25  3 23 30.0000000  0 10G14G25G 9G18G 3G21G31G22G11G15
  20233402.576   -27354996.25549 -21295968.36948  20233402.067    20233404.370
  24008895.887    -6846886.97349  -5316853.95145  24008895.258    24008899.401
  24261042.775    -7200962.14149  -5602214.14745  24261042.310    24261046.053
  23405470.447   -10917346.68849  -8492596.63146  23405469.890    23405472.568
  22642587.862   -12819366.88649  -9965321.97646  22642587.483    22642591.929
  24428077.619    -9104594.58949  -6816367.73345  24428076.685    24428079.556
  22588842.978   -15382322.20649 -11962579.81046  22588842.360    22588846.300
  21296921.028   -23980343.43349 -18671181.83047  21296920.808    21296921.720
  24623248.700    -3898136.18049  -2232008.45045  24623248.340    24623251.892
  20633654.727   -28321743.50249 -22040018.27647  20633653.978    20633658.022
